[[{"header":{"parameterUnit":"m.s-1","parameterCategory":1,"la1":31.0,"la2":29.5877,"lo1":-88.7671,"lo2":-86.6584,"dy":0.0162,"dx":0.0185,"nx":115,"ny":88,"refTime":"2023-08-07T12:00:00:Z","depth":0,"parameterNumber":2,"parameterNumberName":"U-component_of_WINDS"},"data":[0.0,0.0,0.0,0.0,0.0,0.0,0.0,0.0,0.0,0.0,0.0,0.0,0.0,0.0,0.0,0.0,0.0,0.0,0.0,0.0,0.0,0.0,0.0,0.0,0.0,0.0,0.0,0.0,0.0,0.0,0.0,0.0,0.0,0.0,0.0,0.0,0.0,0.0,0.0,0.0,0.0,0.0,0.0,0.0,0.0,0.0,0.0,0.0,0.0,0.0,0.0,0.0,0.0,0.0,0.0,0.0,0.0,0.0,0.0,0.0,0.0,0.0,0.0,0.0,0.0,0.0,0.0,0.0,0.0,0.0,0.0,0.0,0.0,0.0,0.0,0.0,0.0,0.0,0.0,0.0,0.0,0.0,0.0,0.0,0.0,0.0,0.0,0.0,0.0,0.0,0.0,0.0,0.0,0.0,0.0,0.0,0.0,0.0,0.0,0.0,0.0,0.0,0.0,0.0,0.0,0.0,0.0,0.0,0.0,0.0,0.0,0.0,0.0,0.0,0.0,0.0,0.0,0.0,0.0,0.0,0.0,0.0,0.0,0.0,0.0,0.0,0.0,0.0,0.0,0.0,0.0,0.0,0.0,0.0,0.0,0.0,0.0,0.0,0.0,0.0,0.0,0.0,0.0,0.0,0.0,0.0,0.0,0.0,0.0,0.0,0.0,0.0,0.0,0.0,0.0,0.0,0.0,0.0,0.0,0.0,0.0,0.0,0.0,0.0,0.0,0.0,0.0,0.0,0.0,0.0,0.0,0.0,0.0,0.0,0.0,0.0,0.0,0.0,0.0,0.0,0.0,0.0,0.0,0.0,0.0,0.0,0.0,0.0,0.0,0.0,0.0,0.0,0.0,0.0,0.0,0.0,0.0,0.0,0.0,0.0,0.0,0.0,0.0,0.0,0.0,0.0,0.0,0.0,0.0,0.0,0.0,0.0,0.0,0.0,0.0,0.0,0.0,0.0,0.0,0.0,0.0,0.0,0.0,0.0,0.0,0.0,0.0,0.0,0.0,0.0,0.0,0.0,0.0,0.0,0.0,0.0,0.0,0.0,0.0,0.0,0.0,0.0,0.0,0.0,0.0,0.0,0.0,0.0,0.0,0.0,0.0,0.0,0.0,0.0,0.0,0.0,0.0,0.0,0.0,0.0,0.0,0.0,0.0,0.0,0.0,0.0,0.0,0.0,0.0,0.0,0.0,0.0,0.0,0.0,0.0,0.0,0.0,0.0,0.0,0.0,0.0,0.0,0.0,0.0,0.0,0.0,0.0,0.0,0.0,0.0,0.0,0.0,0.0,0.0,0.0,0.0,0.0,0.0,0.0,0.0,0.0,0.0,0.0,0.0,0.0,0.0,0.0,0.0,0.0,0.0,0.0,0.0,0.0,0.0,0.0,0.0,0.0,0.0,0.0,0.0,0.0,0.0,0.0,0.0,0.0,0.0,0.0,0.0,0.0,0.0,0.0,0.0,0.0,0.0,0.0,0.0,0.0,0.0,0.0,0.0,0.0,0.0,0.0,0.0,0.0,0.0,0.0,0.0,0.0,0.0,0.0,0.0,0.0,0.0,0.0,0.0,0.0,0.0,0.0,0.0,0.0,0.0,0.0,0.0,0.0,0.0,0.0,0.0,0.0,0.0,0.0,0.0,0.0,0.0,0.0,0.0,0.0,0.0,0.0,0.0,0.0,0.0,0.0,0.0,0.0,0.0,0.0,0.0,0.0,0.0,0.0,0.0,0.0,0.0,0.0,0.0,0.0,0.0,0.0,0.0,0.0,0.0,0.0,0.0,0.0,0.0,0.0,0.0,0.0,0.0,0.0,0.0,0.0,0.0,0.0,0.0,0.0,0.0,0.0,0.0,0.0,0.0,0.0,0.0,0.0,0.0,0.0,0.0,0.0,0.0,0.0,0.0,0.0,0.0,0.0,0.0,0.0,0.0,0.0,0.0,0.0,0.0,0.0,0.0,0.0,0.0,0.0,0.0,0.0,0.0,0.0,0.0,0.0,0.0,0.0,0.0,0.0,0.0,0.0,0.0,0.0,0.0,0.0,0.0,0.0,0.0,0.0,0.0,0.0,0.0,0.0,0.0,0.0,0.0,0.0,0.0,0.0,0.0,0.0,0.0,0.0,0.0,0.0,0.0,0.0,0.0,0.0,0.0,0.0,0.0,0.0,0.0,0.0,0.0,0.0,0.0,0.0,0.0,0.0,0.0,0.0,0.0,0.0,0.0,0.0,0.0,0.0,0.0,0.0,0.0,0.0,0.0,0.0,0.0,0.0,0.0,0.0,0.0,0.0,0.0,0.0,0.0,0.0,0.0,0.0,0.0,0.0,0.0,0.0,0.0,0.0,0.0,0.0,0.0,0.0,0.0,0.0,0.0,0.0,0.0,0.0,0.0,0.0,0.0,0.0,0.0,0.0,0.0,0.0,0.0,0.0,0.0,0.0,0.0,0.0,0.0,0.0,0.0,0.0,0.0,0.0,0.0,0.0,0.0,0.0,0.0,0.0,0.0,0.0,0.0,0.0,0.0,0.0,0.0,0.0,0.0,0.0,0.0,0.0,0.0,0.0,0.0,0.0,0.0,0.0,0.0,0.0,0.0,0.0,0.0,0.0,0.0,0.0,0.0,0.0,0.0,0.0,0.0,0.0,0.0,0.0,0.0,0.0,0.0,0.0,0.0,0.0,0.0,0.0,0.0,0.0,0.0,0.0,0.0,0.0,0.0,0.0,0.0,0.0,0.0,0.0,0.0,0.0,0.0,0.0,0.0,0.0,0.0,0.0,0.0,0.0,0.0,0.0,0.0,0.0,0.0,0.0,0.0,0.0,0.0,0.0,0.0,0.0,0.0,0.0,0.0,0.0,0.0,0.0,0.0,0.0,0.0,0.0,0.0,0.0,0.0,0.0,0.0,0.0,0.0,0.0,0.0,0.0,0.0,0.0,0.0,0.0,0.0,0.0,0.0,0.0,0.0,0.0,0.0,0.0,0.0,0.0,0.0,0.0,0.0,0.0,0.0,0.0,0.0,0.0,0.0,0.0,0.0,0.0,0.0,0.0,0.0,0.0,0.0,0.0,0.0,0.0,0.0,0.0,0.0,0.0,0.0,0.0,0.0,0.0,0.0,0.0,0.0,0.0,0.0,0.0,0.0,0.0,0.0,0.0,0.0,0.0,0.0,0.0,0.0,0.0,0.0,0.0,0.0,0.0,0.0,0.0,0.0,0.0,0.0,0.0,0.0,0.0,0.0,0.0,0.0,0.0,0.0,0.0,0.0,0.0,0.0,0.0,0.0,0.0,0.0,0.0,0.0,0.0,0.0,0.0,0.0,0.0,0.0,0.0,0.0,0.0,0.0,0.0,0.0,0.0,0.0,0.0,0.0,0.0,0.0,0.0,0.0,0.0,0.0,0.0,0.0,0.0,0.0,0.0,0.0,0.0,0.0,0.0,0.0,0.0,0.0,0.0,0.0,0.0,0.0,0.0,0.0,0.0,0.0,0.0,0.0,0.0,0.0,0.0,0.0,0.0,0.0,0.0,0.0,0.0,0.0,0.0,0.0,0.0,0.0,0.0,0.0,0.0,0.0,0.0,0.0,0.0,0.0,0.0,0.0,0.0,0.0,0.0,0.0,0.0,0.0,0.0,0.0,0.0,0.0,0.0,0.0,0.0,0.0,0.0,0.0,0.0,0.0,0.0,0.0,0.0,0.0,0.0,0.0,0.0,0.0,0.0,0.0,0.0,0.0,0.0,0.0,0.0,0.0,0.0,0.0,0.0,0.0,0.0,0.0,0.0,0.0,0.0,0.0,0.0,0.0,0.0,0.0,0.0,0.0,0.0,0.0,0.0,0.0,0.0,0.0,0.0,0.0,0.0,0.0,0.0,0.0,0.0,0.0,0.0,0.0,0.0,0.0,0.0,0.0,0.0,0.0,0.0,0.0,0.0,0.0,0.0,0.0,0.0,0.0,0.0,0.0,0.0,0.0,0.0,0.0,0.0,0.0,0.0,0.0,0.0,0.0,0.0,0.0,0.0,0.0,0.0,0.0,0.0,0.0,0.0,0.0,0.0,0.0,0.0,0.0,0.0,0.0,0.0,0.0,0.0,0.0,0.0,0.0,0.0,0.0,0.0,0.0,0.0,0.0,0.0,0.0,0.0,0.0,0.0,0.0,0.0,0.0,0.0,0.0,0.0,0.0,0.0,0.0,0.0,0.0,0.0,0.0,0.0,0.0,0.0,0.0,0.0,0.0,0.0,0.0,0.0,0.0,0.0,0.0,-4.2581,0.0,0.0,0.0,0.0,0.0,0.0,0.0,0.0,0.0,0.0,0.0,0.0,0.0,0.0,0.0,0.0,0.0,0.0,0.0,0.0,0.0,0.0,0.0,0.0,0.0,0.0,0.0,0.0,0.0,0.0,0.0,0.0,0.0,0.0,0.0,0.0,0.0,0.0,0.0,0.0,0.0,0.0,0.0,0.0,0.0,0.0,0.0,0.0,0.0,0.0,0.0,0.0,0.0,0.0,0.0,0.0,0.0,0.0,0.0,0.0,0.0,0.0,0.0,0.0,0.0,0.0,0.0,0.0,0.0,0.0,0.0,0.0,0.0,0.0,0.0,0.0,0.0,0.0,0.0,0.0,0.0,0.0,0.0,0.0,0.0,0.0,0.0,0.0,0.0,0.0,0.0,0.0,0.0,0.0,0.0,0.0,0.0,0.0,0.0,0.0,0.0,0.0,0.0,0.0,0.0,0.0,0.0,0.0,0.0,0.0,-4.161,-4.1238,-4.1852,-4.2417,-4.2856,0.0,0.0,0.0,0.0,0.0,0.0,0.0,0.0,0.0,0.0,0.0,0.0,0.0,0.0,0.0,0.0,0.0,0.0,0.0,0.0,0.0,0.0,0.0,0.0,0.0,0.0,0.0,0.0,0.0,0.0,0.0,0.0,0.0,0.0,0.0,0.0,0.0,0.0,0.0,0.0,0.0,0.0,0.0,0.0,0.0,0.0,0.0,0.0,0.0,0.0,0.0,0.0,0.0,0.0,0.0,0.0,0.0,0.0,0.0,0.0,0.0,0.0,0.0,0.0,0.0,0.0,0.0,0.0,0.0,0.0,0.0,0.0,0.0,0.0,0.0,0.0,0.0,0.0,0.0,0.0,0.0,0.0,0.0,0.0,0.0,0.0,0.0,0.0,0.0,0.0,0.0,0.0,0.0,0.0,0.0,0.0,0.0,0.0,0.0,0.0,0.0,0.0,0.0,0.0,0.0,0.0,0.0,0.0,0.0,0.0,0.0,0.0,-4.2819,-4.3304,-4.3421,0.0,0.0,0.0,0.0,0.0,0.0,0.0,0.0,0.0,0.0,0.0,0.0,0.0,0.0,0.0,0.0,0.0,0.0,0.0,0.0,0.0,0.0,0.0,0.0,0.0,0.0,0.0,0.0,0.0,0.0,0.0,0.0,0.0,0.0,0.0,0.0,0.0,0.0,0.0,0.0,0.0,0.0,0.0,0.0,0.0,0.0,0.0,0.0,0.0,0.0,0.0,0.0,0.0,0.0,0.0,0.0,0.0,0.0,0.0,0.0,0.0,0.0,0.0,0.0,0.0,0.0,0.0,0.0,0.0,0.0,0.0,0.0,0.0,0.0,0.0,0.0,0.0,0.0,0.0,0.0,0.0,0.0,0.0,0.0,0.0,0.0,0.0,0.0,0.0,0.0,0.0,0.0,0.0,0.0,0.0,0.0,0.0,0.0,0.0,0.0,0.0,0.0,0.0,0.0,0.0,0.0,0.0,0.0,0.0,0.0,-4.2929,-4.427,-4.5466,0.0,-4.5035,0.0,0.0,0.0,0.0,0.0,0.0,0.0,0.0,0.0,0.0,0.0,0.0,0.0,0.0,0.0,0.0,0.0,0.0,0.0,0.0,0.0,0.0,0.0,0.0,0.0,0.0,0.0,0.0,0.0,0.0,0.0,0.0,0.0,0.0,0.0,0.0,0.0,0.0,0.0,0.0,0.0,0.0,0.0,0.0,0.0,0.0,0.0,0.0,0.0,0.0,0.0,0.0,0.0,0.0,0.0,0.0,0.0,0.0,0.0,0.0,0.0,0.0,0.0,0.0,0.0,0.0,0.0,0.0,0.0,0.0,0.0,0.0,0.0,0.0,0.0,0.0,0.0,0.0,0.0,0.0,0.0,0.0,0.0,0.0,0.0,0.0,0.0,0.0,0.0,0.0,0.0,0.0,0.0,0.0,0.0,0.0,0.0,0.0,0.0,0.0,0.0,0.0,0.0,0.0,0.0,0.0,0.0,0.0,0.0,0.0,-4.3944,-4.4553,-4.5788,-4.5656,0.0,0.0,0.0,0.0,0.0,0.0,0.0,0.0,0.0,0.0,0.0,0.0,0.0,0.0,0.0,0.0,0.0,0.0,0.0,0.0,0.0,0.0,0.0,0.0,0.0,0.0,0.0,0.0,0.0,0.0,0.0,0.0,0.0,0.0,0.0,0.0,0.0,0.0,0.0,0.0,0.0,0.0,0.0,0.0,0.0,0.0,0.0,0.0,0.0,0.0,0.0,0.0,0.0,0.0,0.0,0.0,0.0,0.0,0.0,0.0,0.0,0.0,0.0,0.0,0.0,0.0,0.0,0.0,0.0,0.0,0.0,0.0,0.0,0.0,0.0,0.0,0.0,0.0,0.0,0.0,0.0,0.0,0.0,0.0,0.0,0.0,0.0,0.0,0.0,0.0,0.0,0.0,0.0,0.0,0.0,0.0,0.0,0.0,0.0,0.0,0.0,0.0,0.0,0.0,0.0,0.0,0.0,0.0,0.0,0.0,-4.3673,-4.4891,-4.549,-4.6517,-4.578,-4.3062,0.0,0.0,0.0,0.0,0.0,0.0,0.0,0.0,0.0,0.0,0.0,0.0,0.0,0.0,0.0,0.0,0.0,0.0,0.0,0.0,0.0,0.0,0.0,0.0,0.0,0.0,0.0,0.0,0.0,0.0,0.0,0.0,0.0,0.0,0.0,0.0,0.0,0.0,0.0,0.0,0.0,0.0,0.0,0.0,0.0,0.0,0.0,0.0,0.0,0.0,0.0,0.0,0.0,0.0,0.0,0.0,0.0,0.0,0.0,0.0,0.0,0.0,0.0,0.0,0.0,0.0,0.0,0.0,0.0,0.0,0.0,0.0,0.0,0.0,0.0,0.0,0.0,0.0,0.0,0.0,0.0,0.0,0.0,0.0,0.0,0.0,0.0,0.0,0.0,0.0,0.0,0.0,0.0,0.0,0.0,0.0,0.0,0.0,0.0,0.0,0.0,0.0,0.0,0.0,0.0,0.0,0.0,0.0,-4.6109,-4.5196,-4.5602,-4.7699,-4.8506,-4.6857,0.0,0.0,0.0,0.0,0.0,0.0,0.0,0.0,0.0,0.0,0.0,0.0,0.0,0.0,0.0,0.0,0.0,0.0,0.0,0.0,0.0,0.0,0.0,0.0,0.0,0.0,0.0,0.0,0.0,0.0,0.0,0.0,0.0,0.0,0.0,0.0,0.0,0.0,0.0,0.0,0.0,0.0,0.0,0.0,0.0,0.0,0.0,0.0,0.0,0.0,0.0,0.0,0.0,0.0,0.0,0.0,0.0,0.0,0.0,0.0,0.0,0.0,0.0,0.0,0.0,0.0,0.0,0.0,0.0,0.0,0.0,0.0,0.0,0.0,0.0,0.0,0.0,0.0,0.0,0.0,0.0,0.0,0.0,0.0,0.0,0.0,0.0,0.0,0.0,0.0,0.0,0.0,0.0,0.0,0.0,0.0,0.0,0.0,0.0,0.0,0.0,0.0,0.0,0.0,0.0,0.0,0.0,0.0,0.0,-4.2422,-4.3369,-4.6041,-5.0338,-4.7202,-4.4801,0.0,0.0,0.0,0.0,0.0,0.0,0.0,0.0,0.0,0.0,0.0,0.0,0.0,0.0,0.0,0.0,0.0,0.0,0.0,0.0,0.0,0.0,0.0,0.0,0.0,0.0,0.0,0.0,0.0,0.0,0.0,0.0,0.0,0.0,0.0,0.0,0.0,0.0,0.0,0.0,0.0,0.0,0.0,0.0,0.0,0.0,0.0,0.0,0.0,0.0,0.0,0.0,0.0,0.0,0.0,0.0,0.0,0.0,0.0,0.0,0.0,0.0,0.0,0.0,0.0,0.0,0.0,0.0,0.0,0.0,0.0,0.0,0.0,0.0,0.0,0.0,0.0,0.0,0.0,0.0,0.0,0.0,0.0,0.0,0.0,0.0,0.0,0.0,0.0,0.0,0.0,0.0,0.0,0.0,0.0,0.0,0.0,0.0,0.0,0.0,0.0,0.0,0.0,0.0,0.0,0.0,0.0,0.0,0.0,-4.2625,0.0,-4.8071,-5.0541,-4.6885,-4.392,0.0,0.0,0.0,0.0,0.0,0.0,0.0,0.0,0.0,0.0,0.0,0.0,0.0,0.0,0.0,0.0,0.0,0.0,0.0,0.0,0.0,0.0,0.0,0.0,0.0,0.0,0.0,0.0,0.0,0.0,0.0,0.0,0.0,0.0,0.0,0.0,0.0,0.0,0.0,0.0,0.0,0.0,0.0,0.0,0.0,0.0,0.0,0.0,0.0,0.0,0.0,0.0,0.0,0.0,0.0,0.0,0.0,0.0,0.0,0.0,0.0,0.0,0.0,0.0,0.0,0.0,0.0,0.0,0.0,0.0,0.0,0.0,0.0,0.0,0.0,0.0,0.0,0.0,0.0,0.0,0.0,0.0,0.0,0.0,0.0,0.0,0.0,0.0,0.0,0.0,0.0,0.0,0.0,0.0,0.0,0.0,0.0,0.0,0.0,0.0,0.0,0.0,0.0,0.0,0.0,0.0,0.0,0.0,-4.2658,-4.7665,-5.1251,-5.1386,-4.8206,-4.78,-4.435,0.0,0.0,0.0,0.0,0.0,0.0,0.0,0.0,0.0,0.0,0.0,0.0,0.0,0.0,0.0,0.0,0.0,0.0,0.0,0.0,0.0,0.0,0.0,0.0,0.0,0.0,0.0,0.0,0.0,0.0,0.0,0.0,0.0,0.0,0.0,0.0,0.0,0.0,0.0,0.0,0.0,0.0,0.0,0.0,0.0,0.0,0.0,0.0,0.0,0.0,0.0,0.0,0.0,0.0,0.0,0.0,0.0,0.0,0.0,0.0,0.0,0.0,0.0,0.0,0.0,0.0,0.0,0.0,0.0,0.0,0.0,0.0,0.0,0.0,0.0,0.0,0.0,0.0,0.0,0.0,0.0,0.0,0.0,0.0,0.0,0.0,0.0,0.0,0.0,0.0,0.0,0.0,0.0,0.0,0.0,0.0,0.0,0.0,0.0,0.0,0.0,0.0,0.0,0.0,0.0,0.0,0.0,0.0,0.0,-4.7124,-4.8274,-5.0304,-5.2942,-4.7259,-4.3944,0.0,0.0,0.0,0.0,0.0,0.0,0.0,0.0,0.0,0.0,0.0,0.0,0.0,0.0,0.0,0.0,0.0,0.0,0.0,0.0,0.0,0.0,0.0,0.0,0.0,0.0,0.0,0.0,0.0,0.0,0.0,0.0,0.0,0.0,0.0,0.0,0.0,0.0,0.0,0.0,0.0,0.0,0.0,0.0,0.0,0.0,0.0,0.0,0.0,0.0,0.0,0.0,0.0,0.0,0.0,0.0,0.0,0.0,0.0,0.0,0.0,0.0,0.0,0.0,0.0,0.0,0.0,0.0,0.0,0.0,0.0,0.0,0.0,0.0,0.0,0.0,0.0,0.0,0.0,0.0,0.0,0.0,0.0,0.0,0.0,0.0,0.0,0.0,0.0,0.0,0.0,0.0,0.0,0.0,0.0,0.0,0.0,0.0,0.0,0.0,0.0,0.0,0.0,0.0,0.0,0.0,0.0,0.0,0.0,-4.9661,-5.0236,-5.1894,-5.4837,-4.8071,-4.4485,-4.4587,0.0,0.0,0.0,0.0,0.0,0.0,0.0,0.0,0.0,0.0,0.0,0.0,0.0,0.0,0.0,0.0,0.0,0.0,0.0,0.0,0.0,0.0,0.0,0.0,0.0,0.0,0.0,0.0,0.0,0.0,0.0,0.0,0.0,0.0,0.0,0.0,0.0,0.0,0.0,0.0,0.0,0.0,0.0,0.0,0.0,0.0,0.0,0.0,0.0,0.0,0.0,0.0,0.0,0.0,0.0,0.0,0.0,0.0,0.0,0.0,0.0,0.0,0.0,0.0,0.0,0.0,0.0,0.0,0.0,0.0,0.0,0.0,0.0,0.0,0.0,0.0,0.0,0.0,0.0,0.0,0.0,0.0,0.0,0.0,0.0,0.0,0.0,0.0,0.0,0.0,0.0,0.0,0.0,0.0,0.0,0.0,0.0,0.0,0.0,0.0,0.0,0.0,0.0,0.0,0.0,0.0,0.0,0.0,-5.4532,-5.6122,-5.5919,-5.3923,-5.0067,-4.6007,0.0,0.0,0.0,0.0,0.0,0.0,0.0,0.0,0.0,0.0,0.0,0.0,0.0,0.0,0.0,0.0,0.0,0.0,0.0,0.0,0.0,0.0,0.0,0.0,0.0,0.0,0.0,0.0,0.0,0.0,0.0,0.0,0.0,0.0,0.0,0.0,0.0,0.0,0.0,0.0,0.0,0.0,0.0,0.0,0.0,0.0,0.0,0.0,0.0,0.0,0.0,0.0,0.0,0.0,0.0,0.0,0.0,0.0,0.0,0.0,0.0,0.0,0.0,0.0,0.0,0.0,0.0,0.0,0.0,0.0,0.0,0.0,0.0,0.0,0.0,0.0,0.0,0.0,0.0,0.0,0.0,0.0,0.0,0.0,0.0,0.0,0.0,0.0,0.0,0.0,0.0,0.0,0.0,0.0,0.0,0.0,0.0,0.0,0.0,0.0,0.0,0.0,0.0,0.0,0.0,0.0,0.0,0.0,0.0,-5.4465,-5.7103,-5.8152,-5.7476,-5.2367,-4.8477,0.0,0.0,0.0,0.0,0.0,0.0,0.0,0.0,0.0,0.0,0.0,0.0,0.0,0.0,0.0,0.0,0.0,0.0,0.0,0.0,0.0,0.0,0.0,0.0,0.0,0.0,0.0,0.0,0.0,0.0,0.0,0.0,0.0,0.0,0.0,0.0,0.0,0.0,0.0,0.0,0.0,0.0,0.0,0.0,0.0,0.0,0.0,0.0,0.0,0.0,0.0,0.0,0.0,0.0,0.0,0.0,0.0,0.0,0.0,0.0,0.0,0.0,0.0,0.0,0.0,0.0,0.0,0.0,0.0,0.0,0.0,0.0,0.0,0.0,0.0,0.0,0.0,0.0,0.0,0.0,0.0,0.0,0.0,0.0,0.0,0.0,0.0,0.0,0.0,0.0,0.0,0.0,0.0,0.0,0.0,0.0,0.0,0.0,0.0,0.0,0.0,0.0,0.0,0.0,0.0,0.0,0.0,0.0,-5.0317,-5.5886,-5.8077,-5.9151,-5.9032,-5.4465,-5.071,0.0,0.0,0.0,0.0,0.0,0.0,0.0,0.0,0.0,0.0,0.0,0.0,0.0,0.0,0.0,0.0,0.0,0.0,0.0,0.0,0.0,0.0,0.0,0.0,0.0,0.0,0.0,0.0,0.0,0.0,0.0,0.0,0.0,0.0,0.0,0.0,0.0,0.0,0.0,0.0,0.0,0.0,0.0,0.0,0.0,0.0,0.0,0.0,0.0,0.0,0.0,0.0,0.0,0.0,0.0,0.0,0.0,0.0,0.0,0.0,0.0,0.0,0.0,0.0,0.0,0.0,0.0,0.0,0.0,0.0,0.0,0.0,0.0,0.0,0.0,0.0,0.0,0.0,0.0,0.0,0.0,0.0,0.0,0.0,0.0,0.0,0.0,0.0,0.0,0.0,0.0,0.0,0.0,0.0,0.0,0.0,0.0,0.0,0.0,0.0,0.0,0.0,0.0,0.0,0.0,0.0,0.0,0.0,-5.0587,-5.719,-5.8694,-5.9259,-5.8923,-5.6224,-5.257,0.0,0.0,0.0,0.0,0.0,0.0,0.0,0.0,0.0,0.0,0.0,0.0,0.0,0.0,0.0,0.0,0.0,0.0,0.0,0.0,0.0,0.0,0.0,0.0,0.0,0.0,0.0,0.0,0.0,0.0,0.0,0.0,0.0,0.0,0.0,0.0,0.0,0.0,0.0,0.0,0.0,0.0,0.0,0.0,0.0,0.0,0.0,0.0,0.0,0.0,0.0,0.0,0.0,0.0,0.0,0.0,0.0,0.0,0.0,0.0,0.0,0.0,0.0,0.0,0.0,0.0,0.0,0.0,0.0,0.0,0.0,0.0,0.0,0.0,0.0,0.0,0.0,0.0,0.0,0.0,0.0,0.0,0.0,0.0,0.0,0.0,0.0,0.0,0.0,0.0,0.0,0.0,0.0,0.0,0.0,0.0,0.0,0.0,0.0,0.0,0.0,0.0,0.0,0.0,0.0,0.0,0.0,0.0,-4.9917,-5.3964,-5.7086,-5.884,-5.8957,-5.6731,-5.3078,0.0,0.0,0.0,0.0,0.0,0.0,0.0,0.0,0.0,0.0,0.0,0.0,0.0,0.0,0.0,0.0,0.0,0.0,0.0,0.0,0.0,0.0,0.0,0.0,0.0,0.0,0.0,0.0,0.0,0.0,0.0,0.0,0.0,0.0,0.0,0.0,0.0,0.0,0.0,0.0,0.0,0.0,0.0,0.0,0.0,0.0,0.0,0.0,-3.6387,0.0,0.0,0.0,0.0,0.0,0.0,0.0,0.0,0.0,0.0,0.0,0.0,0.0,0.0,0.0,0.0,0.0,0.0,0.0,0.0,0.0,0.0,0.0,0.0,0.0,0.0,0.0,0.0,0.0,0.0,0.0,0.0,0.0,0.0,0.0,0.0,0.0,0.0,0.0,0.0,0.0,0.0,0.0,0.0,0.0,0.0,0.0,0.0,0.0,0.0,0.0,0.0,0.0,0.0,0.0,0.0,0.0,0.0,0.0,-4.9497,-5.3201,-5.6141,-5.7806,-5.8174,-5.6881,-5.3788,0.0,0.0,0.0,0.0,0.0,0.0,0.0,0.0,0.0,0.0,0.0,0.0,0.0,0.0,0.0,0.0,0.0,0.0,0.0,0.0,0.0,0.0,0.0,0.0,0.0,0.0,0.0,0.0,0.0,0.0,0.0,0.0,0.0,0.0,0.0,0.0,0.0,0.0,0.0,0.0,0.0,0.0,0.0,0.0,0.0,0.0,0.0,0.0,0.0,0.0,0.0,0.0,0.0,0.0,0.0,0.0,0.0,0.0,0.0,0.0,0.0,0.0,0.0,0.0,0.0,0.0,0.0,0.0,0.0,0.0,0.0,0.0,0.0,0.0,0.0,0.0,0.0,0.0,0.0,0.0,0.0,0.0,0.0,0.0,0.0,0.0,0.0,0.0,0.0,0.0,0.0,0.0,0.0,0.0,0.0,0.0,0.0,0.0,0.0,0.0,0.0,0.0,0.0,0.0,0.0,0.0,0.0,-4.5465,-4.909,-5.3172,-5.5304,-5.6686,-5.7192,-5.6962,-5.4261,-4.9034,0.0,0.0,0.0,0.0,0.0,0.0,0.0,0.0,0.0,0.0,0.0,0.0,0.0,0.0,0.0,0.0,0.0,0.0,0.0,0.0,0.0,0.0,0.0,0.0,0.0,0.0,0.0,0.0,0.0,0.0,0.0,0.0,0.0,0.0,0.0,0.0,0.0,0.0,-3.0005,-3.0507,0.0,0.0,0.0,0.0,0.0,0.0,0.0,0.0,-3.6529,0.0,0.0,0.0,0.0,0.0,0.0,0.0,0.0,0.0,0.0,0.0,0.0,0.0,0.0,0.0,0.0,0.0,0.0,0.0,0.0,0.0,0.0,0.0,0.0,0.0,0.0,0.0,0.0,0.0,0.0,0.0,0.0,0.0,0.0,0.0,0.0,0.0,0.0,0.0,0.0,0.0,0.0,0.0,0.0,0.0,0.0,0.0,0.0,0.0,0.0,0.0,0.0,0.0,0.0,0.0,0.0,-4.4619,-4.5327,-4.7752,-5.2044,-5.4041,-5.5457,-5.6369,-5.666,-5.402,-4.8296,0.0,0.0,0.0,0.0,0.0,0.0,0.0,0.0,0.0,0.0,0.0,0.0,0.0,0.0,0.0,0.0,0.0,0.0,0.0,0.0,0.0,0.0,0.0,0.0,0.0,0.0,0.0,0.0,0.0,0.0,0.0,0.0,0.0,0.0,0.0,0.0,0.0,0.0,0.0,-3.1612,-3.2444,0.0,0.0,0.0,0.0,0.0,0.0,0.0,0.0,-3.5977,0.0,0.0,0.0,0.0,0.0,0.0,0.0,0.0,0.0,0.0,0.0,0.0,0.0,0.0,0.0,0.0,0.0,0.0,0.0,0.0,0.0,0.0,0.0,0.0,0.0,0.0,0.0,0.0,0.0,0.0,0.0,0.0,0.0,0.0,0.0,0.0,0.0,0.0,0.0,0.0,0.0,0.0,0.0,0.0,0.0,0.0,0.0,0.0,0.0,0.0,0.0,0.0,0.0,0.0,0.0,-4.3658,-4.6142,-4.8681,-5.1515,-5.3321,-5.4505,-5.4952,-5.447,-5.1696,0.0,0.0,0.0,0.0,0.0,0.0,0.0,0.0,0.0,0.0,0.0,0.0,0.0,0.0,0.0,0.0,0.0,0.0,0.0,0.0,0.0,0.0,0.0,0.0,0.0,0.0,0.0,0.0,0.0,0.0,0.0,0.0,0.0,0.0,0.0,0.0,0.0,0.0,0.0,0.0,-3.229,-3.3373,-3.5459,0.0,0.0,0.0,0.0,0.0,0.0,-3.5809,-3.5623,0.0,0.0,0.0,0.0,0.0,0.0,0.0,0.0,0.0,0.0,0.0,0.0,0.0,0.0,0.0,0.0,0.0,0.0,0.0,0.0,0.0,0.0,0.0,0.0,0.0,0.0,0.0,0.0,0.0,0.0,0.0,0.0,0.0,0.0,0.0,0.0,0.0,0.0,0.0,0.0,0.0,0.0,0.0,0.0,0.0,0.0,0.0,0.0,0.0,0.0,0.0,0.0,0.0,0.0,0.0,-4.2611,-4.6711,-4.9703,-5.1349,-5.3193,-5.4078,-5.3861,-5.2717,-4.9802,0.0,0.0,0.0,0.0,0.0,0.0,0.0,0.0,0.0,0.0,0.0,0.0,0.0,0.0,0.0,0.0,0.0,0.0,0.0,0.0,0.0,0.0,0.0,0.0,0.0,0.0,0.0,0.0,0.0,0.0,0.0,0.0,0.0,0.0,0.0,0.0,0.0,0.0,0.0,0.0,0.0,-3.435,-3.6307,-3.5165,0.0,0.0,0.0,0.0,-3.472,-3.5451,0.0,0.0,0.0,0.0,0.0,0.0,0.0,0.0,0.0,0.0,0.0,0.0,0.0,0.0,0.0,0.0,0.0,0.0,0.0,0.0,0.0,0.0,0.0,0.0,0.0,0.0,0.0,0.0,0.0,0.0,0.0,0.0,0.0,0.0,0.0,0.0,0.0,0.0,0.0,0.0,0.0,0.0,0.0,0.0,0.0,0.0,0.0,0.0,0.0,0.0,0.0,0.0,0.0,0.0,0.0,0.0,-4.315,-4.6052,-4.9015,-5.2012,-5.3897,-5.4482,-5.3923,-5.3461,-5.0659,0.0,0.0,0.0,0.0,0.0,0.0,0.0,0.0,0.0,0.0,0.0,0.0,0.0,0.0,0.0,0.0,0.0,0.0,0.0,0.0,0.0,0.0,0.0,0.0,0.0,0.0,0.0,0.0,0.0,0.0,0.0,0.0,0.0,0.0,0.0,0.0,0.0,0.0,0.0,0.0,0.0,-3.5085,-3.48,-3.5798,-3.6804,0.0,0.0,-3.7016,-3.8523,-3.7268,0.0,0.0,0.0,0.0,0.0,0.0,0.0,0.0,0.0,0.0,0.0,0.0,0.0,0.0,0.0,0.0,0.0,0.0,0.0,0.0,0.0,0.0,0.0,0.0,0.0,0.0,0.0,0.0,0.0,0.0,0.0,0.0,0.0,0.0,0.0,0.0,0.0,0.0,0.0,0.0,0.0,0.0,0.0,0.0,0.0,0.0,0.0,0.0,0.0,0.0,0.0,0.0,0.0,0.0,0.0,-3.9858,-4.3329,-4.704,-5.0182,-5.2636,-5.3572,-5.3763,-5.3553,-5.1574,-4.8364,0.0,0.0,0.0,0.0,0.0,0.0,0.0,0.0,0.0,0.0,0.0,0.0,0.0,0.0,0.0,0.0,0.0,0.0,0.0,0.0,0.0,0.0,0.0,0.0,0.0,0.0,0.0,0.0,0.0,0.0,0.0,0.0,0.0,0.0,0.0,0.0,0.0,0.0,0.0,0.0,0.0,0.0,-3.6367,-3.6858,0.0,0.0,0.0,-3.7767,-3.7246,0.0,0.0,0.0,0.0,0.0,0.0,0.0,0.0,0.0,0.0,0.0,0.0,0.0,0.0,0.0,0.0,0.0,0.0,0.0,0.0,0.0,0.0,0.0,0.0,0.0,0.0,0.0,0.0,0.0,0.0,0.0,0.0,0.0,0.0,0.0,0.0,0.0,0.0,0.0,0.0,0.0,0.0,0.0,0.0,0.0,0.0,0.0,0.0,0.0,0.0,0.0,0.0,0.0,0.0,0.0,0.0,0.0,-4.3359,-4.8057,-5.1349,-5.3114,-5.3503,-5.3533,-5.3144,-5.0546,0.0,0.0,0.0,0.0,0.0,0.0,0.0,0.0,0.0,0.0,0.0,0.0,0.0,0.0,0.0,0.0,0.0,0.0,0.0,0.0,0.0,0.0,0.0,0.0,0.0,0.0,0.0,-2.3109,0.0,0.0,0.0,0.0,0.0,0.0,0.0,0.0,0.0,0.0,0.0,0.0,0.0,0.0,-3.5628,-3.7753,-3.7789,-3.7977,0.0,0.0,-3.8575,-3.6981,-3.7851,-3.7464,0.0,0.0,0.0,0.0,0.0,0.0,0.0,0.0,0.0,0.0,0.0,0.0,0.0,0.0,0.0,0.0,0.0,0.0,0.0,0.0,0.0,0.0,0.0,0.0,0.0,0.0,0.0,0.0,0.0,0.0,0.0,0.0,0.0,0.0,0.0,0.0,0.0,0.0,0.0,0.0,0.0,0.0,0.0,0.0,0.0,0.0,0.0,0.0,0.0,0.0,0.0,0.0,0.0,0.0,0.0,-4.3449,-4.8506,-5.1798,-5.3174,-5.4401,-5.4461,-5.3204,-5.1802,-4.8595,0.0,0.0,0.0,0.0,0.0,0.0,0.0,0.0,0.0,0.0,0.0,0.0,0.0,0.0,0.0,0.0,0.0,0.0,0.0,0.0,0.0,0.0,0.0,0.0,0.0,0.0,0.0,0.0,0.0,0.0,0.0,0.0,0.0,0.0,0.0,0.0,0.0,0.0,0.0,0.0,0.0,-3.6081,-3.7761,-3.8491,-3.9295,0.0,0.0,-3.9775,-4.0099,-4.0278,-3.9045,-3.5228,0.0,0.0,0.0,0.0,0.0,0.0,0.0,0.0,0.0,0.0,0.0,0.0,0.0,0.0,0.0,0.0,0.0,0.0,0.0,0.0,0.0,0.0,0.0,0.0,0.0,0.0,0.0,0.0,0.0,0.0,0.0,0.0,0.0,0.0,0.0,0.0,0.0,0.0,0.0,0.0,0.0,0.0,0.0,0.0,0.0,0.0,0.0,0.0,0.0,0.0,0.0,0.0,0.0,-4.0696,-4.3359,-4.8147,-5.1439,-5.3084,-5.3294,-5.3294,-5.3174,-5.1139,-4.7908,0.0,0.0,0.0,0.0,0.0,0.0,0.0,0.0,0.0,0.0,0.0,0.0,0.0,0.0,0.0,0.0,0.0,0.0,0.0,0.0,0.0,0.0,0.0,0.0,0.0,0.0,0.0,0.0,-3.0066,-3.0711,-3.1326,0.0,0.0,0.0,0.0,0.0,0.0,0.0,0.0,0.0,0.0,-3.7161,-3.8818,-3.9521,0.0,0.0,-4.0475,-4.0149,-4.0023,-3.9421,-3.8015,-3.5177,-3.3495,0.0,0.0,0.0,0.0,0.0,0.0,0.0,0.0,0.0,0.0,0.0,0.0,0.0,0.0,0.0,0.0,0.0,0.0,0.0,0.0,0.0,0.0,0.0,0.0,0.0,0.0,0.0,0.0,0.0,0.0,0.0,0.0,0.0,0.0,0.0,0.0,0.0,0.0,0.0,0.0,0.0,0.0,0.0,0.0,0.0,0.0,0.0,0.0,0.0,0.0,0.0,0.0,-4.0905,-4.3329,-4.7878,-5.1079,-5.2845,-5.2636,-5.2606,-5.2815,-5.072,-4.7878,0.0,0.0,0.0,0.0,0.0,0.0,0.0,0.0,0.0,0.0,0.0,0.0,0.0,0.0,0.0,0.0,0.0,0.0,0.0,0.0,0.0,0.0,0.0,0.0,0.0,0.0,0.0,0.0,-3.1545,-3.1688,-3.1425,0.0,0.0,0.0,0.0,0.0,0.0,0.0,0.0,0.0,0.0,-3.7864,-3.9672,-4.0124,-4.04,-4.0701,-4.0626,-4.0375,-3.9998,-3.9421,-3.814,-3.5629,0.0,0.0,0.0,0.0,0.0,0.0,0.0,0.0,0.0,0.0,0.0,0.0,0.0,0.0,0.0,0.0,0.0,0.0,0.0,0.0,0.0,0.0,0.0,0.0,0.0,0.0,0.0,0.0,0.0,0.0,-3.9073,0.0,0.0,0.0,0.0,0.0,0.0,0.0,0.0,0.0,0.0,0.0,0.0,0.0,0.0,0.0,0.0,0.0,0.0,0.0,0.0,0.0,0.0,-4.1354,-4.3359,-4.7848,-5.087,-5.2187,-5.2815,-5.2785,-5.2187,-5.09,-4.8925,-4.6232,0.0,0.0,0.0,0.0,0.0,0.0,0.0,0.0,0.0,0.0,0.0,0.0,0.0,0.0,0.0,0.0,0.0,0.0,0.0,0.0,0.0,0.0,0.0,0.0,0.0,0.0,-3.142,-3.101,-3.0228,0.0,0.0,0.0,0.0,0.0,0.0,0.0,0.0,0.0,0.0,-3.6483,-3.799,-4.0174,-4.0049,-4.0124,-4.1128,-4.0852,-4.0501,-4.0475,-4.0852,-4.0149,0.0,0.0,0.0,0.0,0.0,0.0,0.0,0.0,0.0,0.0,0.0,0.0,0.0,0.0,0.0,0.0,0.0,0.0,0.0,0.0,0.0,0.0,0.0,0.0,0.0,0.0,0.0,-4.4688,-4.3132,0.0,0.0,0.0,0.0,0.0,0.0,0.0,0.0,0.0,0.0,0.0,-4.4071,-4.4772,0.0,0.0,0.0,0.0,0.0,0.0,0.0,0.0,0.0,0.0,0.0,0.0,-4.1594,-4.4018,-4.7249,-4.9793,-5.1468,-5.09,-5.069,-5.087,-4.9613,-4.7489,-4.4436,0.0,0.0,0.0,0.0,0.0,0.0,0.0,0.0,0.0,0.0,0.0,0.0,0.0,0.0,0.0,0.0,0.0,0.0,0.0,0.0,0.0,0.0,0.0,0.0,0.0,-2.93,0.0,0.0,0.0,0.0,0.0,0.0,0.0,0.0,0.0,0.0,0.0,-3.4374,-3.6383,-3.8241,-3.9672,-4.04,-4.035,-4.0375,0.0,0.0,0.0,0.0,0.0,0.0,0.0,0.0,0.0,0.0,0.0,0.0,0.0,0.0,-3.6251,-3.2472,-2.9727,-2.7875,-2.8076,0.0,0.0,0.0,0.0,0.0,0.0,0.0,0.0,0.0,0.0,0.0,0.0,0.0,0.0,-4.7631,0.0,-4.5974,0.0,0.0,0.0,0.0,0.0,0.0,0.0,0.0,-4.7768,-4.8046,-4.6997,-4.7652,-4.6475,0.0,-4.4197,-4.2402,0.0,0.0,0.0,0.0,0.0,0.0,0.0,0.0,-4.2611,-4.5005,-4.7399,-4.9344,-5.075,-4.9823,-4.9494,-4.9853,-4.8865,-4.692,-4.4107,-4.2162,-4.0307,0.0,0.0,0.0,0.0,0.0,0.0,0.0,0.0,0.0,0.0,0.0,0.0,0.0,0.0,0.0,0.0,0.0,0.0,0.0,0.0,0.0,0.0,0.0,-2.9741,0.0,0.0,0.0,0.0,0.0,0.0,0.0,0.0,0.0,-3.2566,-3.4474,-3.6558,-3.8391,-3.9722,-4.0576,-4.0777,0.0,0.0,0.0,0.0,0.0,0.0,0.0,-3.9446,-3.9446,-3.8438,-3.7218,-3.5867,-3.7221,-3.7967,-3.621,0.0,0.0,-3.4044,-3.1371,-2.9723,-2.9904,-2.9492,-2.9084,-2.9084,-2.9568,-2.9908,0.0,0.0,0.0,0.0,0.0,0.0,0.0,0.0,-4.9187,-4.983,0.0,-4.8815,0.0,0.0,0.0,0.0,0.0,-4.6989,0.0,0.0,-5.2018,-5.217,-5.0525,-5.0147,-4.8767,-4.6586,-4.7725,-4.6976,-4.4347,-4.1923,0.0,0.0,0.0,0.0,0.0,0.0,-4.4377,-4.6322,-4.8207,-4.9523,-5.0122,-4.9523,-4.9194,-4.9164,-4.8596,-4.7339,-4.5454,-4.4676,-4.318,-4.0636,-3.8003,0.0,0.0,0.0,0.0,0.0,0.0,0.0,0.0,0.0,0.0,0.0,0.0,0.0,0.0,0.0,0.0,0.0,0.0,0.0,0.0,-3.0006,0.0,0.0,0.0,0.0,0.0,0.0,0.0,0.0,0.0,0.0,-3.5027,-3.6759,-3.8894,-4.1028,0.0,0.0,0.0,0.0,-4.0551,-4.0551,-4.1003,-4.1329,-4.1354,-4.1756,-4.1731,-4.0752,0.0,0.0,-3.5129,-3.7356,-3.8428,-3.4337,-3.5934,-3.7156,-3.5704,-3.4117,-3.2685,-3.1158,-2.9587,-2.8525,-2.8418,-2.9223,-2.9754,-5.8761,0.0,0.0,0.0,0.0,-5.4397,-5.5344,-5.663,-5.6833,-5.5852,-5.4059,-5.3112,0.0,0.0,0.0,0.0,0.0,0.0,-5.1352,-5.3213,-5.308,-5.3255,-5.3738,-5.2397,-5.0995,-4.9597,-4.991,-4.9053,-4.7189,-4.686,-4.4287,-3.9649,0.0,0.0,0.0,0.0,-4.5484,-4.698,-4.8057,-4.8656,-4.8835,-4.8207,-4.7878,-4.7878,-4.7698,-4.7309,-4.6741,-4.6112,-4.4945,-4.324,-4.0696,0.0,0.0,0.0,0.0,0.0,0.0,0.0,0.0,0.0,0.0,0.0,0.0,0.0,0.0,0.0,0.0,0.0,0.0,0.0,-2.8405,-2.9017,-2.9327,0.0,0.0,0.0,0.0,0.0,0.0,0.0,0.0,0.0,-3.8843,-3.9396,-4.0325,0.0,0.0,-4.1605,-4.1379,-4.1204,-4.1103,-4.1103,-4.1229,0.0,0.0,-4.1731,-4.1731,-4.2183,-4.1878,-4.0928,-3.9055,-3.9631,-3.9765,-3.8123,-3.8472,-3.8932,-3.8357,-3.5533,-3.2775,-3.1211,-3.0502,-3.0156,-3.0176,-3.0371,-3.0508,-6.3734,-6.1163,-5.8084,-5.7306,-5.8118,-5.8457,-5.9336,-6.0554,-6.0216,-5.9438,-5.8287,-5.6934,-5.4938,-5.2469,-5.1589,0.0,0.0,0.0,-5.4059,-5.5886,-5.4946,-5.4734,-5.5084,-5.3779,-5.2237,-5.0505,-5.0452,-4.9824,-4.8656,-4.8805,-4.695,-4.3269,0.0,0.0,-4.3419,-4.5424,-4.713,-4.8416,-4.8865,-4.8925,-4.8686,-4.7788,-4.7309,-4.7309,-4.704,-4.704,-4.7279,-4.6681,-4.5813,-4.4736,-4.2701,-4.0247,0.0,0.0,0.0,0.0,0.0,0.0,0.0,0.0,0.0,0.0,0.0,-2.6892,0.0,0.0,0.0,0.0,-2.7695,-2.885,-2.998,-3.0583,0.0,0.0,0.0,0.0,0.0,0.0,0.0,-3.7563,-3.9823,-4.1455,-4.1781,-4.1831,-4.2057,-4.2735,-4.2434,-4.2108,-4.2007,0.0,-4.1656,-4.1656,-4.1831,-4.2108,-4.2434,-4.2208,-4.2158,-4.2585,-4.2208,-4.1555,-4.0701,-4.035,-4.0074,-3.9798,-3.9697,-3.974,-3.9707,-3.658,-3.3304,-3.1325,-3.0898,-3.0898,-3.0898,-3.0898,-3.0898,-6.759,-6.6643,-6.2482,-6.0655,-6.0622,-6.14,-6.1704,-6.1603,-6.0825,-6.1231,-6.2279,-6.0182,-5.8761,-5.7949,-5.5886,0.0,-5.6055,-5.5953,-5.663,-5.7949,-5.7205,-5.6365,-5.5412,-5.4576,-5.2721,-5.005,-4.9999,-4.9696,-4.9224,-4.8626,-4.8027,-4.7399,-4.7429,-4.71,-4.6501,-4.7698,-4.8955,-5.0122,-5.0152,-4.9793,-4.9105,-4.7938,-4.7279,-4.7219,-4.6651,-4.6561,-4.701,-4.6501,-4.5843,-4.5155,-4.3898,-4.1773,-3.8661,0.0,0.0,0.0,0.0,0.0,0.0,0.0,0.0,0.0,0.0,0.0,0.0,0.0,0.0,0.0,-3.0306,0.0,-3.3043,-3.3671,0.0,0.0,0.0,-3.5102,-3.5228,-3.799,-3.9898,-3.9948,0.0,0.0,-4.379,-4.379,-4.379,-4.374,-4.2861,-4.2409,-4.2911,-4.2534,-4.2208,-4.2233,-4.261,-4.2886,-4.2785,-4.271,-4.2484,-4.2032,-4.1605,-4.1078,-4.0526,-4.0074,-3.9722,-3.9697,-3.9697,-3.969,-3.966,-3.7232,-3.4425,-3.1441,-3.0995,-3.1112,-3.1228,-3.1228,-3.1228,-6.8707,-6.8402,-6.6745,-6.5392,-6.441,-6.5189,-6.5155,-6.458,-6.3835,-6.3429,-6.3125,-6.1501,-6.0317,-5.9505,-5.8457,-5.8355,-5.8998,-5.7881,-5.7881,-5.866,-5.7983,-5.7234,-5.6443,-5.5665,-5.3882,-5.1216,-5.1057,-5.0175,-4.8625,-4.8865,-4.8716,-4.8117,-4.8536,-4.8237,-4.716,-4.8386,-4.9194,-4.9494,-4.9494,-4.8925,-4.7818,-4.7459,-4.707,-4.6561,-4.6411,-4.5903,-4.5065,-4.4885,-4.4496,-4.3808,-4.2551,-4.1265,-3.9978,-3.6178,0.0,0.0,0.0,0.0,0.0,0.0,0.0,0.0,0.0,-2.8775,-2.5837,0.0,-2.9578,0.0,-3.2014,-3.342,-3.3671,-3.4575,0.0,0.0,-3.7538,-3.8391,-3.9622,-4.0827,-4.1731,-4.2158,-4.3137,-4.379,-4.379,-4.379,-4.3639,-4.3237,-4.2961,-4.2836,-4.2961,-4.2886,-4.2785,-4.276,-4.2559,-4.2359,-4.2359,-4.1982,-4.158,-4.1003,-4.0802,-4.0526,-3.9973,-3.9772,-3.9697,-3.9697,-3.9697,-3.9735,-3.9672,-3.7356,-3.4469,-3.1652,-3.1767,-3.253,-3.253,-3.253,-3.253,-6.9417,-6.9079,-6.8977,-6.8064,-6.6677,-6.6779,-6.6406,-6.5628,-6.4918,-6.4208,-6.3429,-6.1941,-6.1061,-6.0588,-5.9844,-5.9708,-6.0013,-5.8896,-5.8423,-5.8457,-5.7746,-5.7002,-5.6292,-5.5547,-5.4128,-5.2194,-5.1366,-5.029,-4.8961,-4.8591,-4.8356,-4.8297,-4.8356,-4.8177,-4.7818,-4.8745,-4.9254,-4.9254,-4.8985,-4.8476,-4.7758,-4.7459,-4.701,-4.6352,-4.6322,-4.5813,-4.4796,-4.4466,-4.3868,-4.294,-4.1923,-4.0816,-3.9529,-3.6896,-3.507,0.0,0.0,0.0,0.0,0.0,0.0,0.0,0.0,0.0,0.0,0.0,-3.1587,0.0,-3.4449,-3.583,-3.6081,-3.7337,-3.8492,-3.9396,-3.9998,-4.0701,-4.1605,-4.2409,-4.3011,-4.3313,-4.384,-4.4066,-4.384,-4.379,-4.3589,-4.3062,-4.2986,-4.2986,-4.2986,-4.2986,-4.2986,-4.2961,-4.271,-4.2434,-4.2208,-4.1706,-4.1153,-4.0651,-4.0526,-4.0325,-3.9798,-3.9697,-3.9697,-3.9697,-3.9697,-3.9744,-3.9554,-3.7905,-3.5176,-3.2188,-3.26,-3.3395,-3.2416,-3.2092,-3.2092,-6.9891,-6.9282,-6.9823,-6.9214,-6.7827,-6.7117,-6.6373,-6.5628,-6.4918,-6.4072,-6.3159,-6.1873,-6.1231,-6.1095,-6.0317,-5.9979,-5.9911,-5.9201,-5.8457,-5.7712,-5.7103,-5.6359,-5.5547,-5.4905,-5.3978,-5.2811,-5.1221,-5.0169,-4.9594,-4.8036,-4.7608,-4.8117,-4.7608,-4.7578,-4.8147,-4.8716,-4.9075,-4.9134,-4.8506,-4.8147,-4.8147,-4.7608,-4.695,-4.6232,-4.6112,-4.5663,-4.4825,-4.4347,-4.3449,-4.2192,-4.1713,-4.0636,-3.8751,-3.7494,-3.6537,0.0,-3.4021,0.0,0.0,0.0,0.0,0.0,0.0,0.0,0.0,-3.3495,-3.4048,-3.4851,-3.6985,-3.8517,-3.8944,-4.045,-4.1455,-4.1455,-4.1982,-4.2333,-4.2308,-4.3187,-4.379,-4.379,-4.4166,-4.4242,-4.3865,-4.374,-4.3489,-4.3087,-4.2986,-4.2936,-4.2861,-4.2836,-4.2836,-4.2861,-4.276,-4.2258,-4.1882,-4.143,-4.0902,-4.0501,-4.0375,-4.0249,-3.9772,-3.9697,-3.9697,-3.9697,-3.9697,-3.9747,-3.9669,-3.8445,-3.6363,-3.3157,-3.3833,-3.4069,-3.2113,-3.1441,-3.1228,-7.0669,-6.9958,-6.9485,-6.8774,-6.7827,-6.7117,-6.6406,-6.5628,-6.4918,-6.3531,-6.1738,-6.1434,-6.0926,-6.0283,-5.9573,-5.9235,-5.9167,-5.8457,-5.7712,-5.7002,-5.6867,-5.6089,-5.4837,-5.4668,-5.371,-5.2152,-5.0919,-4.9915,-4.9027,-4.7825,-4.7369,-4.7489,-4.7369,-4.7369,-4.7489,0.0,0.0,0.0,-4.7818,-4.7489,-4.7489,-4.7369,-4.6711,-4.5544,-4.4975,0.0,-4.2252,-4.2521,-4.2132,-4.0905,-4.1654,0.0,0.0,0.0,0.0,0.0,0.0,0.0,0.0,0.0,0.0,0.0,-3.8311,-3.64,-3.4085,-3.578,-3.6784,-3.6207,-3.8467,-3.9898,-3.9597,-4.1028,-4.2007,-4.2032,-4.2886,-4.3313,-4.2911,-4.3388,-4.379,-4.379,-4.3514,-4.3438,-4.3689,-4.3413,-4.3087,-4.2936,-4.2986,-4.2785,-4.2359,-4.2308,-4.2308,-4.2258,-4.1656,-4.1028,-4.0827,-4.04,-4.0074,-3.9848,-3.9848,-3.9823,-3.9722,-3.9697,-3.9697,-3.9697,-3.9697,-3.9719,-3.9649,-3.8534,-3.7643,-3.7958,-3.558,-3.3304,-3.2851,-3.2644,-3.2644,-7.0872,0.0,-6.9789,-6.8977,0.0,-6.7489,-6.6508,-6.5121,-6.4749,-6.3362,-6.1298,-6.0892,-6.0283,-5.9539,-5.8795,-5.8457,-5.8423,-5.8051,-5.7306,-5.6292,-5.6258,-5.548,-5.4059,-5.4059,-5.3617,-5.2627,-5.1187,-5.0087,-4.9536,-4.8072,-4.7309,-4.7309,-4.7309,-4.7309,-4.7309,-4.7309,-4.7459,-4.7788,-4.7489,-4.7309,-4.7309,-4.7309,-4.683,-4.5843,0.0,0.0,0.0,0.0,0.0,0.0,0.0,0.0,0.0,0.0,0.0,-4.0816,-4.0516,-4.0487,-4.0816,-4.0956,-4.1082,-4.1421,-4.014,-3.8366,-3.61,-3.7462,-3.8316,-3.809,-3.9798,-4.0701,-4.0199,-4.1354,-4.2158,-4.2183,-4.266,-4.2961,-4.3011,-4.3212,-4.3388,-4.3338,-4.2911,-4.2685,-4.2936,-4.2509,-4.2183,-4.2158,-4.2158,-4.2082,-4.1831,-4.1982,-4.2082,-4.1806,-4.1078,-4.0551,-4.0475,-4.0049,-3.9697,-3.9697,-3.9697,-3.9697,-3.9697,-3.9697,-3.9697,-3.9697,-3.9697,-3.9694,-3.9661,-3.9069,-3.8827,-3.914,-3.6801,-3.3979,-3.3304,-3.253,-3.1977,-7.0804,-6.9992,-6.9992,-6.9113,-6.7692,-6.7692,-6.6508,-6.458,0.0,0.0,0.0,-6.0385,-5.9607,-5.8795,-5.8152,-5.7881,-5.7881,-5.7881,-5.7171,-5.5919,-5.5784,-5.4972,-5.3721,-5.3551,-5.3518,-5.3416,-5.141,-5.0397,-5.032,-4.8324,-4.7309,-4.7309,-4.7309,-4.7309,-4.7309,-4.7309,-4.7309,-4.7309,-4.7309,-4.7309,-4.7309,-4.7309,-4.698,-4.6352,-4.6711,-4.6381,-4.5185,-4.5244,-4.4496,-4.2821,-4.2402,-4.2132,-4.1923,-4.2013,-4.2731,-4.4167,-4.4436,-4.4526,-4.4676,-4.4288,-4.3455,-4.1957,-4.0939,-3.9778,-3.8466,-3.8743,-3.9195,-3.9647,-4.0601,-4.1003,-4.0576,-4.1404,-4.2007,-4.2007,-4.2007,-4.2208,-4.261,-4.2785,-4.2785,-4.266,-4.2384,-4.2108,-4.2032,-4.1681,-4.1329,-4.1354,-4.143,-4.1279,-4.1279,-4.153,-4.163,-4.1229,-4.0676,-4.0375,-4.0425,-4.0049,-3.9722,-3.9697,-3.9697,-3.9697,-3.9697,-3.9697,-3.9697,-3.9697,-3.9697,-3.9697,-3.9697,-3.9362,-3.9278,-3.9202,-3.6874,-3.4515,-3.3304,-3.1883,-3.0995,-7.0534,-6.9248,-6.9248,-6.8368,-6.6981,-6.6948,-6.6068,-6.4512,-6.326,-6.1772,-6.0283,-6.0148,-5.9336,-5.8051,-5.7915,-5.7881,-5.7881,-5.7881,-5.7442,0.0,-5.6021,-5.5277,-5.4431,-5.3788,-5.3518,-5.3348,-5.141,-5.0397,-5.0165,-4.8324,-4.7309,-4.7309,-4.7309,-4.7309,-4.7309,-4.7309,-4.7309,-4.7309,-4.7309,-4.7309,-4.7309,-4.7309,-4.698,-4.6352,-4.5873,-4.5244,-4.4496,-4.5035,-4.4915,-4.4107,-4.5065,-4.5125,-4.4018,-4.4407,-4.4616,-4.4377,-4.4855,-4.5424,-4.5992,-4.5943,-4.5113,-4.3482,-4.3013,-4.2003,-3.9676,-3.9521,-3.9622,-3.9722,-4.03,-4.0601,-4.0551,-4.1078,-4.1455,-4.1455,-4.1455,-4.148,-4.163,-4.2032,-4.2133,-4.1706,-4.1957,-4.1932,-4.153,-4.1354,-4.1229,-4.1304,-4.1153,-4.1128,-4.0752,-4.0701,-4.0727,-4.0601,-4.0174,-4.0049,-4.0275,-4.0049,-3.9747,-3.9697,-3.9697,-3.9697,-3.9697,-3.9697,-3.9697,-3.9697,-3.9697,-3.9697,-3.9697,-3.8582,-3.8113,-3.7583,-3.5572,-3.362,-3.3304,-3.1977,-3.1015,-7.0466,-6.9214,-6.9519,-6.8571,-6.6779,-6.6373,-6.5831,-6.5121,-6.4072,-6.2245,-6.0182,-6.008,-5.9268,-5.7915,-5.7881,-5.7881,-5.7881,-5.7881,-5.7509,-5.6765,-5.6055,-5.531,-5.4566,-5.3856,-5.3518,-5.3348,-5.1954,-5.093,-5.032,-4.8841,-4.7849,-4.7309,-4.7309,-4.7309,-4.7309,-4.7309,-4.7309,-4.7309,-4.7309,-4.7309,-4.7309,-4.7309,-4.716,-4.686,-4.6531,-4.6262,-4.5963,-4.6232,-4.6082,-4.5424,-4.5992,-4.6052,-4.5454,-4.5693,-4.5873,-4.5933,-4.6232,-4.6531,-4.683,-4.6195,-4.5191,-4.3665,-4.2834,-4.169,-3.9878,-3.9697,-3.9697,-3.9722,-4.0199,-4.04,-4.0124,-4.0576,-4.0902,-4.0902,-4.0902,-4.1028,-4.1329,-4.1806,-4.1932,-4.1455,-4.1555,-4.1505,-4.0978,-4.0626,-4.045,-4.045,-4.045,-4.035,-4.0124,-4.0074,-4.0074,-4.0049,-3.9848,-3.9798,-4.0023,-3.9873,-3.9722,-3.9697,-3.9697,-3.9697,-3.9697,-3.9697,-3.9697,-3.9697,-3.9697,-3.9697,-3.9697,-3.9233,-3.8638,-3.817,-3.6094,-3.4626,-3.4069,-3.255,-3.0995,-7.0534,-6.9417,-6.9958,-6.8977,-6.7049,-6.644,-6.6,-6.5628,-6.4918,-6.3091,-6.0791,-6.0452,-5.9539,-5.8186,-5.7983,-5.7881,-5.7881,-5.7881,-5.7577,-5.7002,-5.6122,-5.5412,-5.4803,-5.3923,-5.3518,-5.3382,-5.2549,-5.1786,-5.096,-4.9833,-4.8661,-4.7605,-4.7399,-4.7309,-4.7309,-4.7309,-4.7309,-4.7309,-4.7309,-4.7309,-4.7309,-4.7309,-4.7309,-4.7309,-4.7309,-4.7309,-4.7309,-4.7309,-4.707,-4.6591,-4.6561,-4.6561,-4.6531,-4.6531,-4.677,-4.7249,-4.7309,-4.7309,-4.7222,-4.6166,-4.484,-4.3598,-4.235,-4.1019,-3.9878,-3.9697,-3.9697,-3.9747,-4.0074,-4.0124,-3.9848,-4.0074,-4.035,-4.0325,-4.0325,-4.0475,-4.0927,-4.1455,-4.158,-4.1078,-4.1053,-4.0953,-4.04,-3.9973,-3.9772,-3.9772,-3.9697,-3.9697,-3.9697,-3.9697,-3.9697,-3.9697,-3.9697,-3.9697,-3.9697,-3.9697,-3.9697,-3.9697,-3.9697,-3.9697,-3.9697,-3.9697,-3.9697,-3.9697,-3.9697,-3.9697,-3.9697,-3.9258,-3.8951,-3.8491,-3.6233,-3.4274,-3.348,-3.2169,-3.0897,-7.0838,-7.0161,-7.0161,-6.9282,-6.7895,-6.7726,-6.6948,-6.573,-6.4952,-6.37,-6.2245,-6.1501,-6.0351,-5.893,-5.822,-5.7915,-5.7881,-5.7881,-5.7848,-5.7611,-5.6359,-5.5683,-5.5513,-5.4194,-5.3518,-5.3483,-5.3152,-5.2803,-5.2539,-5.1259,-4.9849,-4.8353,-4.7608,-4.7309,-4.7309,-4.7309,-4.7309,-4.7309,-4.7309,-4.7309,-4.7309,-4.7309,-4.7309,-4.7309,-4.7309,-4.7309,-4.7309,-4.7309,-4.7279,-4.7219,-4.7189,-4.7219,-4.7189,-4.7219,-4.7249,-4.7309,-4.7309,-4.7309,-4.7222,-4.6077,-4.484,-4.3598,-4.2252,-4.1019,-3.9878,-3.9697,-3.9697,-3.9722,-3.9747,-3.9772,-3.9697,-3.9772,-3.9823,-3.9848,-3.9823,-3.9798,-3.9973,-4.0325,-4.045,-3.9923,-4.0375,-4.04,-3.9948,-3.9747,-3.9697,-3.9697,-3.9697,-3.9697,-3.9697,-3.9697,-3.9697,-3.9697,-3.9697,-3.9697,-3.9697,-3.9697,-3.9697,-3.9697,-3.9697,-3.9697,-3.9697,-3.9697,-3.9697,-3.9697,-3.9697,-3.9697,-3.9465,-3.8767,-3.7733,-3.7372,-3.5283,-3.2322,-3.0833,-3.0339,-3.0351,-7.0872,-7.0263,-7.0669,-7.0263,-6.9282,-6.8808,-6.7996,-6.7015,-6.6677,-6.573,-6.4275,-6.3125,-6.1298,-5.9032,-5.8693,-5.8321,-5.7915,-5.7881,-5.7881,-5.7814,-5.6833,-5.6359,-5.6258,-5.5344,-5.4837,-5.4734,-5.3977,-5.3301,-5.2488,-5.09,-4.9398,-4.8415,-4.7997,-4.7698,-4.7339,-4.7309,-4.7309,-4.7309,-4.7309,-4.7309,-4.7309,-4.7309,-4.7309,-4.7309,-4.7309,-4.7309,-4.7309,-4.7309,-4.7309,-4.7309,-4.7309,-4.7309,-4.7309,-4.7309,-4.7309,-4.7309,-4.7309,-4.6931,-4.6255,-4.5689,-4.4535,-4.2544,-4.1887,-4.1019,-3.9903,-3.9697,-3.9697,-3.9697,-3.9697,-3.9697,-3.9697,-3.9697,-3.9697,-3.9697,-3.9697,-3.9697,-3.9697,-4.0174,-4.03,-3.9823,-4.0174,-4.03,-3.9848,-3.9697,-3.9697,-3.9697,-3.9697,-3.9697,-3.9697,-3.9697,-3.9697,-3.9697,-3.9697,-3.9697,-3.9697,-3.9697,-3.9697,-3.9697,-3.9697,-3.9697,-3.9697,-3.9697,-3.9697,-3.9697,-3.9647,-3.9672,-3.9697,-3.9337,-3.8644,-3.7436,-3.5375,-3.275,-3.1079,-3.0247,-3.0035,-7.1007,-7.0635,-7.1109,-7.0872,-7.0161,-6.962,-6.8977,-6.8199,-6.7793,-6.688,-6.5595,-6.414,-6.1975,-5.9539,-5.9133,-5.8592,-5.7949,-5.7881,-5.7881,-5.7814,-5.7137,-5.6799,-5.6731,-5.6055,-5.5716,-5.5576,-5.5102,-5.423,-5.2989,-5.1055,-4.9613,-4.8925,-4.8476,-4.8057,-4.7608,-4.7429,-4.7309,-4.7309,-4.7309,-4.7309,-4.7309,-4.7309,-4.7309,-4.7309,-4.7309,-4.7309,-4.7309,-4.7309,-4.7309,-4.7309,-4.7309,-4.7309,-4.7309,-4.7309,-4.7309,-4.7309,-4.7309,-4.6931,-4.5987,-4.5298,-4.4069,-4.2377,-4.1617,-4.0743,-3.9878,-3.9697,-3.9697,-3.9697,-3.9697,-3.9697,-3.9697,-3.9697,-3.9697,-3.9697,-3.9697,-3.9697,-3.9722,-4.0074,-4.0124,-3.9798,-4.0023,-4.0149,-3.9798,-3.9697,-3.9697,-3.9697,-3.9697,-3.9697,-3.9697,-3.9697,-3.9697,-3.9697,-3.9697,-3.9697,-3.9697,-3.9697,-3.9697,-3.9697,-3.9697,-3.9697,-3.9697,-3.9697,-3.9697,-3.9697,-3.9597,-3.9421,-3.9295,-3.932,-3.8739,-3.7661,-3.5679,-3.3242,-3.1295,-3.0425,-2.9849,-7.1312,-7.1244,-7.1278,-7.0906,-7.0195,-7.0161,-6.9722,-6.8876,-6.759,-6.6474,-6.5628,-6.4208,-6.2245,-6.008,-5.9438,-5.8626,-5.7949,-5.7881,-5.7881,-5.7814,-5.7171,-5.6833,-5.6765,-5.6055,-5.575,-5.5883,-5.6068,-5.56,-5.4166,-5.2559,-5.1264,-5.0062,-4.8955,-4.8327,-4.8177,-4.7698,-4.7339,-4.7369,-4.7369,-4.7309,-4.7309,-4.7309,-4.7309,-4.7309,-4.7309,-4.7309,-4.7309,-4.7309,-4.7309,-4.7309,-4.7309,-4.7309,-4.7309,-4.7309,-4.7309,-4.7309,-4.7309,-4.7222,-4.6844,-4.5024,-4.3598,-4.3026,-4.1219,-3.9775,-3.98,-3.9697,-3.9697,-3.9697,-3.9697,-3.9697,-3.9697,-3.9697,-3.9697,-3.9697,-3.9697,-3.9697,-3.9697,-3.9747,-3.9747,-3.9697,-3.9772,-3.9798,-3.9697,-3.9697,-3.9697,-3.9697,-3.9697,-3.9697,-3.9697,-3.9697,-3.9697,-3.9697,-3.9697,-3.9697,-3.9697,-3.9697,-3.9697,-3.9697,-3.9697,-3.9697,-3.9697,-3.9697,-3.9697,-3.9572,-3.927,-3.9044,-3.8843,-3.8291,-3.7494,-3.6405,-3.525,-3.3197,-3.1542,-3.1085,-3.0191,-7.1312,-7.1312,-7.1312,-7.1142,-7.0906,-7.0906,-7.0229,-6.9079,-6.8538,-6.7557,-6.6305,-6.485,-6.3226,-6.1501,-6.025,-5.9032,-5.7949,-5.7881,-5.7881,-5.7848,-5.7611,-5.7509,-5.7476,-5.7205,-5.7103,-5.6993,-5.5974,-5.4416,-5.2603,-5.1729,-5.1061,-5.0333,-4.9793,-4.9344,-4.8955,-4.8686,-4.8356,-4.7997,-4.7938,-4.7728,-4.7369,-4.7309,-4.7309,-4.7309,-4.7309,-4.7309,-4.7309,-4.7309,-4.7309,-4.7309,-4.7309,-4.7309,-4.7309,-4.7309,-4.7309,-4.7309,-4.7309,-4.6931,-4.6166,-4.5298,-4.3975,-4.235,-4.1518,-4.0465,-3.9878,-3.9697,-3.9697,-3.9697,-3.9697,-3.9697,-3.9697,-3.9697,-3.9697,-3.9697,-3.9697,-3.9697,-3.9697,-3.9697,-3.9697,-3.9697,-3.9697,-3.9697,-3.9697,-3.9697,-3.9697,-3.9697,-3.9697,-3.9697,-3.9697,-3.9697,-3.9697,-3.9697,-3.9697,-3.9697,-3.9697,-3.9697,-3.9697,-3.9697,-3.9697,-3.9697,-3.9697,-3.9697,-3.9697,-3.9521,-3.9145,-3.8718,-3.8517,-3.7914,-3.6972,-3.6456,-3.5259,-3.3697,-3.1847,-3.108,-2.9823,-7.1312,-7.1312,-7.1312,-7.1142,-7.0973,-7.0939,-7.0263,-6.9113,-6.8808,-6.7861,-6.6406,-6.5121,-6.3531,-6.1738,-6.0554,-5.9302,-5.7983,-5.7881,-5.7881,-5.7881,-5.7881,-5.7881,-5.7881,-5.7881,-5.7701,-5.7072,-5.531,-5.3383,-5.1941,-5.1596,-5.1169,-5.0601,-5.0361,-5.0032,-4.9613,-4.9374,-4.9015,-4.8656,-4.8596,-4.8386,-4.7967,-4.7728,-4.7638,-4.7578,-4.7399,-4.7309,-4.7309,-4.7309,-4.7309,-4.7309,-4.7309,-4.7309,-4.7309,-4.7309,-4.7309,-4.7309,-4.7309,-4.6931,-4.6077,-4.5689,-4.4442,-4.2447,-4.1789,-4.1071,-4.0105,-3.9798,-3.9772,-3.9873,-3.9772,-3.9697,-3.9697,-3.9697,-3.9697,-3.9697,-3.9697,-3.9697,-3.9697,-3.9697,-3.9697,-3.9697,-3.9697,-3.9697,-3.9697,-3.9697,-3.9697,-3.9697,-3.9697,-3.9697,-3.9697,-3.9697,-3.9697,-3.9697,-3.9697,-3.9697,-3.9697,-3.9697,-3.9697,-3.9697,-3.9697,-3.9697,-3.9697,-3.9697,-3.9572,-3.9396,-3.9019,-3.8542,-3.8015,-3.7412,-3.7111,-3.6839,-3.5866,-3.4362,-3.2632,-3.103,-2.9828,-7.1244,-7.1176,-7.1312,-7.0804,-7.0229,-7.0263,-6.9789,-6.8977,-6.8199,-6.7117,-6.5797,-6.4884,-6.299,-6.0689,-6.0216,-5.9302,-5.8084,-5.7881,-5.7881,-5.7881,-5.7881,-5.7881,-5.7881,-5.7881,-5.7222,-5.6159,-5.4718,-5.3579,-5.2637,-5.2118,-5.1678,-5.1139,-5.0571,-5.0272,-5.0212,-4.9643,-4.9284,-4.9134,-4.9045,-4.9075,-4.9134,-4.8416,-4.8087,-4.8087,-4.7608,-4.7309,-4.7309,-4.7309,-4.7309,-4.7309,-4.7309,-4.7309,-4.7309,-4.7309,-4.7309,-4.7309,-4.7309,-4.7309,-4.7106,-4.6166,-4.5024,-4.3598,-4.235,-4.1402,-4.0618,-4.0102,-3.9948,-4.0149,-4.0023,-3.9747,-3.9722,-3.9697,-3.9697,-3.9697,-3.9697,-3.9697,-3.9697,-3.9697,-3.9697,-3.9697,-3.9697,-3.9697,-3.9697,-3.9697,-3.9697,-3.9697,-3.9697,-3.9697,-3.9697,-3.9697,-3.9697,-3.9697,-3.9697,-3.9697,-3.9697,-3.9697,-3.9697,-3.9697,-3.9697,-3.9697,-3.9697,-3.9672,-3.9446,-3.9195,-3.8442,-3.7939,-3.7287,-3.6759,-3.6684,-3.6438,-3.5667,-3.4751,-3.2932,-3.1235,-3.012,-6.9789,-6.9857,-7.0331,-7.0094,-6.9553,-6.9958,-6.9485,-6.8233,-6.7489,-6.6609,-6.5561,-6.4377,-6.2753,-6.1129,-6.0351,-5.9268,-5.7949,-5.7881,-5.7881,-5.7881,-5.7881,-5.7881,-5.7881,-5.7881,-5.6887,-5.5361,-5.4613,-5.3471,-5.1972,-5.1626,-5.1379,-5.1199,-5.102,-5.0661,-5.0242,-5.0032,-4.9583,-4.8686,-4.8596,-4.8386,-4.7967,-4.7728,-4.7638,-4.7578,-4.7399,-4.7309,-4.7309,-4.7309,-4.7309,-4.7309,-4.7309,-4.7309,-4.7309,-4.7309,-4.7309,-4.7309,-4.7309,-4.7309,-4.7309,-4.6931,-4.6077,-4.484,-4.3598,-4.2431,-4.1406,-4.0618,-4.0124,-4.0074,-4.0099,-4.0149,-3.9798,-3.9697,-3.9722,-3.9697,-3.9697,-3.9697,-3.9697,-3.9697,-3.9697,-3.9697,-3.9697,-3.9697,-3.9697,-3.9697,-3.9697,-3.9697,-3.9697,-3.9697,-3.9697,-3.9697,-3.9697,-3.9697,-3.9697,-3.9697,-3.9697,-3.9697,-3.9697,-3.9697,-3.9697,-3.9697,-3.9697,-3.9521,-3.927,-3.8718,-3.7965,-3.7312,-3.6634,-3.6358,-3.6358,-3.5978,-3.5379,-3.4166,-3.2632,-3.1418,-3.0224,-6.9079,-6.9147,-6.9586,-6.935,-6.8741,-6.918,-6.847,-6.7151,-6.6609,-6.5831,-6.4783,-6.3632,-6.2245,-6.0926,-6.0047,-5.9032,-5.7949,-5.7881,-5.7881,-5.7881,-5.7881,-5.8017,-5.818,-5.7883,-5.6624,-5.4998,-5.4708,-5.3486,-5.1353,-5.1947,-5.1977,-5.1379,-5.1439,-5.1109,-5.0331,-5.0212,-4.9673,-4.8775,-4.8656,-4.8446,-4.8057,-4.7788,-4.7668,-4.7638,-4.7429,-4.7309,-4.7309,-4.7309,-4.7309,-4.7309,-4.7309,-4.7309,-4.7309,-4.7309,-4.7309,-4.7309,-4.7309,-4.7309,-4.7309,-4.7222,-4.6432,-4.4932,-4.3975,-4.2776,-4.1481,-4.0537,-4.0049,-4.0099,-4.03,-4.03,-3.9848,-3.9923,-3.9898,-3.9697,-3.9697,-3.9697,-3.9697,-3.9697,-3.9697,-3.9697,-3.9697,-3.9697,-3.9697,-3.9697,-3.9697,-3.9697,-3.9697,-3.9697,-3.9697,-3.9697,-3.9697,-3.9697,-3.9697,-3.9697,-3.9697,-3.9697,-3.9697,-3.9697,-3.9697,-3.9697,-3.9697,-3.9371,-3.9044,-3.814,-3.7337,-3.6985,-3.6383,-3.6358,-3.6358,-3.5667,-3.4872,-3.3552,-3.2151,-3.1133,-3.0016,-6.8944,-6.8977,-6.9011,-6.8571,-6.7895,-6.7996,-6.7252,-6.5899,-6.5628,-6.4884,-6.3666,-6.2753,-6.1535,-6.0216,-5.9471,-5.866,-5.7983,-5.7881,-5.7881,-5.7881,-5.7915,-5.8152,-5.8552,-5.7974,-5.6784,-5.5095,-5.4819,-5.3652,-5.1693,-5.2762,-5.3114,-5.1409,-5.1648,-5.1439,-5.0331,-5.0152,-4.9733,-4.8985,-4.8955,-4.8925,-4.8865,-4.8446,-4.8147,-4.8087,-4.7608,-4.7309,-4.7309,-4.7309,-4.7309,-4.7309,-4.7309,-4.7309,-4.7309,-4.7309,-4.7309,-4.7309,-4.7309,-4.7309,-4.7309,-4.7309,-4.6432,-4.4656,-4.3815,-4.276,-4.126,-4.0464,-4.0099,-4.0375,-4.0501,-4.0325,-3.9998,-4.0074,-4.0099,-3.9798,-3.9697,-3.9697,-3.9697,-3.9697,-3.9697,-3.9697,-3.9697,-3.9697,-3.9697,-3.9697,-3.9697,-3.9697,-3.9697,-3.9697,-3.9697,-3.9697,-3.9697,-3.9697,-3.9697,-3.9697,-3.9697,-3.9697,-3.9697,-3.9647,-3.9572,-3.9421,-3.932,-3.8944,-3.8567,-3.7638,-3.696,-3.6584,-3.6383,-3.6358,-3.5858,-3.5066,-3.4068,-3.2855,-3.1746,-3.0721,-2.9911,-6.7421,-6.7455,-6.7996,-6.7793,-6.7218,-6.7658,-6.7049,-6.5696,-6.5087,-6.4343,-6.3328,-6.2144,-6.1028,-6.008,-5.9336,-5.8592,-5.8017,-5.7881,-5.7881,-5.7881,-5.7881,-5.7949,-5.8287,-5.8504,-5.7543,-5.5846,-5.5016,-5.3946,-5.2547,-5.2296,-5.1858,-5.1259,-5.1439,-5.087,-4.9733,-4.9553,-4.8895,-4.7967,-4.7848,-4.7878,-4.7848,-4.7728,-4.7578,-4.7549,-4.7399,-4.7309,-4.7309,-4.7309,-4.7309,-4.7309,-4.7309,-4.7309,-4.7309,-4.7309,-4.7309,-4.7309,-4.7309,-4.7309,-4.7309,-4.7309,-4.6931,-4.6255,-4.4349,-4.33,-4.276,-4.1234,-4.0534,-4.0526,-4.0526,-4.045,-4.0275,-4.0074,-3.9848,-3.9747,-3.9697,-3.9697,-3.9697,-3.9697,-3.9697,-3.9697,-3.9697,-3.9697,-3.9697,-3.9697,-3.9697,-3.9697,-3.9697,-3.9697,-3.9697,-3.9697,-3.9697,-3.9697,-3.9697,-3.9697,-3.9697,-3.9697,-3.9672,-3.9597,-3.9371,-3.8969,-3.8668,-3.8216,-3.7814,-3.7211,-3.6784,-3.6408,-3.6358,-3.6358,-3.5475,-3.4385,-3.3871,-3.3055,-3.144,-3.0224,-2.9618,-6.6812,-6.6812,-6.6948,-6.6711,-6.6339,-6.6474,-6.5865,-6.485,-6.4343,-6.3531,-6.2482,-6.1332,-6.0385,-5.9607,-5.8863,-5.8321,-5.7915,-5.7881,-5.7881,-5.7949,-5.822,-5.822,-5.8186,-5.8626,-5.794,-5.6059,-5.5339,-5.4096,-5.2826,-5.2141,-5.1738,-5.1379,-5.1498,-5.081,-4.9374,-4.9224,-4.8626,-4.7578,-4.7309,-4.7309,-4.7309,-4.7309,-4.7309,-4.7309,-4.7309,-4.7309,-4.7309,-4.7309,-4.7309,-4.7309,-4.7309,-4.7309,-4.7309,-4.7309,-4.7309,-4.7309,-4.7309,-4.7309,-4.7309,-4.7309,-4.6726,-4.5779,-4.4163,-4.3026,-4.194,-4.0773,-4.0174,-4.0149,-4.0375,-4.0375,-4.0174,-3.9873,-3.9722,-3.9697,-3.9697,-3.9697,-3.9697,-3.9697,-3.9697,-3.9697,-3.9697,-3.9697,-3.9697,-3.9697,-3.9697,-3.9697,-3.9697,-3.9697,-3.9697,-3.9697,-3.9697,-3.9697,-3.9697,-3.9697,-3.9672,-3.9647,-3.9295,-3.922,-3.8743,-3.8391,-3.804,-3.7563,-3.7262,-3.691,-3.6584,-3.6358,-3.6263,-3.5763,-3.4654,-3.3871,-3.3773,-3.2632,-3.07,-2.9725,-2.914,-6.6643,-6.6508,-6.5865,-6.5561,-6.5459,-6.4884,-6.441,-6.3666,-6.3599,-6.2753,-6.1467,-6.0486,-5.981,-5.8964,-5.8389,-5.7881,-5.7881,-5.7881,-5.7881,-5.8051,-5.8355,-5.8423,-5.8017,-5.8328,-5.7686,-5.6071,-5.5633,-5.4215,-5.2947,-5.2863,-5.2247,-5.1498,-5.1678,-5.096,-4.9553,-4.9164,-4.8446,-4.7549,-4.7309,-4.7309,-4.7309,-4.7309,-4.7309,-4.7309,-4.7309,-4.7309,-4.7309,-4.7309,-4.7309,-4.7309,-4.7309,-4.7309,-4.7309,-4.7309,-4.7309,-4.7309,-4.7309,-4.7309,-4.7309,-4.7222,-4.6344,-4.4535,-4.3882,-4.2544,-4.0844,-4.0056,-3.9848,-3.9973,-4.0199,-4.0124,-3.9873,-3.9697,-3.9697,-3.9697,-3.9697,-3.9697,-3.9697,-3.9697,-3.9697,-3.9697,-3.9697,-3.9697,-3.9697,-3.9697,-3.9697,-3.9697,-3.9697,-3.9697,-3.9697,-3.9697,-3.9697,-3.9697,-3.9697,-3.9697,-3.9647,-3.9597,-3.9094,-3.8693,-3.799,-3.7563,-3.7337,-3.701,-3.681,-3.6558,-3.6433,-3.6168,-3.5763,-3.4969,-3.3946,-3.2764,-3.2118,-3.0615,-2.9076,-2.8981,-2.8589,-6.5595,-6.5053,-6.4918,-6.4816,-6.4816,-6.4647,-6.4174,-6.3497,-6.3497,-6.2618,-6.1366,-6.0452,-5.9674,-5.893,-5.822,-5.7881,-5.7881,-5.7881,-5.7881,-5.7915,-5.8017,-5.8051,-5.7796,-5.7807,-5.7371,-5.6269,-5.4442,-5.3517,-5.3162,-5.2235,-5.1528,-5.1319,-5.087,-5.0212,-4.9404,-4.8775,-4.8117,-4.7429,-4.7309,-4.7309,-4.7309,-4.7309,-4.7309,-4.7309,-4.7309,-4.7309,-4.7309,-4.7309,-4.7309,-4.7309,-4.7309,-4.7309,-4.7309,-4.7309,-4.7309,-4.7309,-4.7309,-4.7309,-4.7309,-4.7222,-4.6638,-4.5115,-4.3975,-4.2834,-4.1392,-4.016,-4.0002,-4.0124,-4.0074,-3.9873,-3.9722,-3.9697,-3.9697,-3.9697,-3.9697,-3.9697,-3.9697,-3.9697,-3.9697,-3.9697,-3.9697,-3.9697,-3.9697,-3.9697,-3.9697,-3.9697,-3.9697,-3.9697,-3.9697,-3.9697,-3.9697,-3.9697,-3.9697,-3.9647,-3.9371,-3.9145,-3.8517,-3.809,-3.7462,-3.6985,-3.6784,-3.6659,-3.6558,-3.6458,-3.6408,-3.6073,-3.5763,-3.4654,-3.365,-3.2118,-3.0547,-2.9415,-2.8589,-2.8367,-2.8164,-6.5256,-6.458,-6.4241,-6.4106,-6.4038,-6.3734,-6.3328,-6.3024,-6.299,-6.2144,-6.0892,-6.025,-5.9505,-5.849,-5.8084,-5.7881,-5.7881,-5.7881,-5.7881,-5.7881,-5.7881,-5.7881,-5.7514,-5.6744,-5.6124,-5.5924,-5.4088,-5.3155,-5.2733,-5.1934,-5.1289,-5.1169,-5.0541,-4.9972,-4.9284,-4.8626,-4.7997,-4.7429,-4.7309,-4.7309,-4.7309,-4.7309,-4.7309,-4.7309,-4.7309,-4.7309,-4.7309,-4.7309,-4.7309,-4.7309,-4.7309,-4.7309,-4.7309,-4.7309,-4.7309,-4.7309,-4.7309,-4.7309,-4.7309,-4.7222,-4.6726,-4.5508,-4.4256,-4.293,-4.169,-4.0465,-3.9901,-3.9998,-3.9898,-3.9697,-3.9697,-3.9697,-3.9697,-3.9697,-3.9697,-3.9697,-3.9697,-3.9697,-3.9697,-3.9697,-3.9697,-3.9697,-3.9697,-3.9697,-3.9697,-3.9697,-3.9697,-3.9697,-3.9697,-3.9697,-3.9697,-3.9697,-3.9697,-3.9546,-3.9145,-3.8617,-3.7864,-3.7462,-3.7061,-3.6709,-3.6508,-3.6458,-3.6383,-3.6358,-3.6358,-3.6263,-3.5763,-3.4557,-3.3215,-3.1873,-3.045,-2.9187,-2.8288,-2.8208,-2.7843,-6.5019,-6.4208,-6.3599,-6.3328,-6.3226,-6.2685,-6.2482,-6.2415,-6.2415,-6.1738,-6.0452,-6.0182,-5.9404,-5.8321,-5.7949,-5.7881,-5.7881,-5.7881,-5.7881,-5.7881,-5.7554,-5.7345,-5.6796,-5.544,-5.4401,-5.4804,-5.3295,-5.2429,-5.2111,-5.1588,-5.1229,-5.1109,-5.0571,-4.9912,-4.9284,-4.8626,-4.7967,-4.7399,-4.7309,-4.7309,-4.7309,-4.7309,-4.7309,-4.7309,-4.7309,-4.7309,-4.7309,-4.7309,-4.7309,-4.7309,-4.7309,-4.7309,-4.7309,-4.7309,-4.7309,-4.7309,-4.7309,-4.7309,-4.7222,-4.7019,-4.6344,-4.5207,-4.3882,-4.2641,-4.1293,-4.0364,-3.9903,-3.9722,-3.9697,-3.9697,-3.9697,-3.9697,-3.9697,-3.9697,-3.9697,-3.9697,-3.9697,-3.9697,-3.9697,-3.9697,-3.9697,-3.9697,-3.9697,-3.9697,-3.9697,-3.9697,-3.9697,-3.9697,-3.9697,-3.9672,-3.9672,-3.9546,-3.9496,-3.8894,-3.8442,-3.8191,-3.7412,-3.7036,-3.6659,-3.6533,-3.6358,-3.6358,-3.6358,-3.6358,-3.6358,-3.6143,-3.5257,-3.3539,-3.237,-3.1483,-2.9963,-2.8087,-2.7744,-2.7944,-2.7382,-6.3971,-6.2753,-6.2618,-6.2584,-6.255,-6.2415,-6.2313,-6.2415,-6.2313,-6.1907,-6.1028,-6.0385,-5.9641,-5.8795,-5.8118,-5.7881,-5.7881,-5.7881,-5.7881,-5.7701,-5.7114,-5.6502,-5.5622,-5.3853,-5.2707,-5.2343,-5.1758,-5.166,-5.1922,-5.1558,-5.1259,-5.1079,-5.0571,-4.9912,-4.9344,-4.8626,-4.7997,-4.7489,-4.7369,-4.7309,-4.7309,-4.7369,-4.7399,-4.7429,-4.7489,-4.7459,-4.7369,-4.7339,-4.7309,-4.7309,-4.7309,-4.7309,-4.7309,-4.7309,-4.7309,-4.7309,-4.7309,-4.7309,-4.7019,-4.6255,-4.5207,-4.3882,-4.2738,-4.1492,-4.0465,-3.9878,-3.9697,-3.9697,-3.9697,-3.9697,-3.9697,-3.9697,-3.9697,-3.9697,-3.9697,-3.9697,-3.9697,-3.9697,-3.9697,-3.9697,-3.9697,-3.9697,-3.9697,-3.9697,-3.9697,-3.9697,-3.9697,-3.9697,-3.9697,-3.9647,-3.9597,-3.9446,-3.9245,-3.8417,-3.7588,-3.7462,-3.7061,-3.6734,-3.6483,-3.6483,-3.6358,-3.6358,-3.6358,-3.6358,-3.6073,-3.5667,-3.4413,-3.2932,-3.1208,-3.0149,-2.8528,-2.7022,-2.6983,-2.6963,-2.6566,-6.3193,-6.1873,-6.1839,-6.1569,-6.1231,-6.1197,-6.1197,-6.1264,-6.1603,-6.14,-6.0757,-6.025,-5.9708,-5.8964,-5.822,-5.7881,-5.7881,-5.7881,-5.7881,-5.7628,-5.6744,-5.5842,-5.5062,-5.2954,-5.1857,-5.1277,-5.0667,-5.075,-5.1588,-5.1379,-5.1199,-5.1079,-5.0571,-5.0062,-4.9583,-4.8775,-4.8207,-4.7788,-4.7519,-4.7309,-4.7369,-4.7578,-4.7788,-4.7848,-4.8057,-4.8147,-4.7848,-4.7818,-4.7638,-4.7399,-4.7309,-4.7309,-4.7309,-4.7309,-4.7309,-4.7309,-4.7309,-4.6931,-4.6432,-4.5598,-4.4932,-4.3598,-4.2252,-4.1392,-4.0642,-4.016,-3.9697,-3.9697,-3.9697,-3.9697,-3.9697,-3.9697,-3.9697,-3.9697,-3.9697,-3.9697,-3.9697,-3.9697,-3.9697,-3.9697,-3.9697,-3.9697,-3.9697,-3.9697,-3.9697,-3.9697,-3.9697,-3.9672,-3.9647,-3.9521,-3.9371,-3.8969,-3.8642,-3.799,-3.7211,-3.6985,-3.686,-3.6533,-3.6358,-3.6358,-3.6358,-3.6358,-3.6358,-3.6358,-3.5953,-3.5547,-3.4727,-3.3543,-3.1219,-2.8873,-2.7663,-2.6685,-2.6212,-2.5898,-2.5781,-6.2651,-6.1298,-6.1298,-6.0825,-6.0182,-6.0114,-6.0148,-6.025,-6.0791,-6.0723,-6.0148,-5.9911,-5.9539,-5.893,-5.8321,-5.7881,-5.7881,-5.7881,-5.7881,-5.752,-5.6239,-5.5267,-5.4194,-5.2543,-5.0734,-5.0075,-4.9609,-4.9673,-5.0601,-5.087,-5.099,-5.09,-5.0511,-5.0331,-5.0002,-4.9105,-4.8596,-4.8117,-4.7668,-4.7339,-4.7459,-4.7788,-4.8087,-4.8087,-4.8596,-4.8476,-4.7997,-4.7908,-4.7698,-4.7429,-4.7309,-4.7309,-4.7309,-4.7309,-4.7309,-4.7309,-4.7106,-4.6344,-4.5689,-4.4535,-4.3787,-4.293,-4.1887,-4.1319,-4.0945,-4.0185,-3.9697,-3.9697,-3.9697,-3.9697,-3.9697,-3.9697,-3.9697,-3.9697,-3.9697,-3.9697,-3.9697,-3.9697,-3.9697,-3.9697,-3.9697,-3.9672,-3.9622,-3.9697,-3.9697,-3.9697,-3.9697,-3.9446,-3.9396,-3.917,-3.8919,-3.8366,-3.7914,-3.7437,-3.6935,-3.6659,-3.6584,-3.6458,-3.6358,-3.6358,-3.6358,-3.6358,-3.6358,-3.6358,-3.6358,-3.5928,-3.5112,-3.3646,-3.0754,-2.8494,-2.7221,-2.6369,-2.5937,-2.584,-2.5762,-6.2651,-6.1298,-6.1298,-6.0825,-6.0114,-6.0013,-6.0047,-6.0047,-6.0148,-6.0216,-5.9979,-5.9438,-5.9133,-5.8795,-5.822,-5.7915,-5.7881,-5.7881,-5.7741,-5.7278,-5.5267,-5.3777,-5.2605,-4.9935,-4.9213,-4.8826,-4.8563,-4.8805,-4.9494,-5.0032,-5.0331,-5.0361,-5.0661,-5.078,-5.0032,-4.9254,-4.8865,-4.8267,-4.7638,-4.7309,-4.7339,-4.7459,-4.7549,-4.7549,-4.7698,-4.7788,-4.7728,-4.7668,-4.7489,-4.7369,-4.7309,-4.7309,-4.7309,-4.7309,-4.7309,-4.6931,-4.6344,-4.5508,-4.5024,-4.3598,-4.2377,-4.1789,-4.0743,-4.0058,-3.9981,-3.9981,-3.9697,-3.9697,-3.9697,-3.9697,-3.9697,-3.9697,-3.9697,-3.9697,-3.9697,-3.9697,-3.9697,-3.9697,-3.9697,-3.9521,-3.9471,-3.9496,-3.9496,-3.9597,-3.9697,-3.9697,-3.9622,-3.9346,-3.9044,-3.8718,-3.8266,-3.7688,-3.7412,-3.6985,-3.6784,-3.6483,-3.6433,-3.6358,-3.6358,-3.6358,-3.6358,-3.6358,-3.6358,-3.6358,-3.6307,-3.5904,-3.5089,-3.2998,-2.9947,-2.798,-2.6625,-2.6055,-2.5781,-2.5723,-2.5723,-6.2245,-6.1264,-6.0825,-6.0182,-5.9471,-5.9032,-5.8863,-5.893,-5.9302,-5.9505,-5.9438,-5.9201,-5.8795,-5.8389,-5.7983,-5.7881,-5.7881,-5.7848,-5.7285,-5.6354,-5.4482,-5.2681,-5.1006,-4.9255,-4.8177,-4.7818,-4.7758,-4.7788,-4.8416,-4.9134,-4.9673,-4.9733,-4.9972,-4.9942,-4.9703,-4.9045,-4.8626,-4.8177,-4.7698,-4.7339,-4.7399,-4.7638,-4.7848,-4.7848,-4.8147,-4.8087,-4.7878,-4.7848,-4.7638,-4.7429,-4.7309,-4.7309,-4.7309,-4.7222,-4.7019,-4.6077,-4.5024,-4.4349,-4.4069,-4.2544,-4.1518,-4.0642,-4.0083,-3.98,-3.9697,-3.9697,-3.9697,-3.9697,-3.9697,-3.9697,-3.9697,-3.9697,-3.9697,-3.9697,-3.9697,-3.9697,-3.9697,-3.9672,-3.9622,-3.9421,-3.9195,-3.9094,-3.9019,-3.9044,-3.8994,-3.8894,-3.8818,-3.8642,-3.8316,-3.799,-3.7462,-3.686,-3.6734,-3.6609,-3.6533,-3.6383,-3.6408,-3.6358,-3.6358,-3.6358,-3.6358,-3.6358,-3.6282,-3.5605,-3.5026,-3.4652,-3.4462,-3.2522,-2.9633,-2.7641,-2.5879,-2.5801,-2.5723,-2.5723,-2.5723,-6.1806,-6.1231,-6.0452,-5.9674,-5.8964,-5.822,-5.7814,-5.7712,-5.8186,-5.8457,-5.8524,-5.8558,-5.8355,-5.7983,-5.7881,-5.7881,-5.7881,-5.7712,-5.6653,-5.5358,-5.3646,-5.1865,-5.0216,-4.8754,-4.7758,-4.7309,-4.7399,-4.7429,-4.7668,-4.8207,-4.8775,-4.9015,-4.9344,-4.9314,-4.9134,-4.8686,-4.8237,-4.7908,-4.7549,-4.7339,-4.7369,-4.7728,-4.7908,-4.8117,-4.8416,-4.8536,-4.8147,-4.7997,-4.7668,-4.7429,-4.7309,-4.7309,-4.7309,-4.7222,-4.7019,-4.5958,-4.4748,-4.3693,-4.3218,-4.2057,-4.0844,-4.0083,-3.9697,-3.9697,-3.9697,-3.9697,-3.9697,-3.9697,-3.9697,-3.9697,-3.9697,-3.9697,-3.9697,-3.9697,-3.9697,-3.9697,-3.9647,-3.9521,-3.9346,-3.9145,-3.8793,-3.8316,-3.8266,-3.8316,-3.8241,-3.809,-3.799,-3.7914,-3.7663,-3.7362,-3.6985,-3.6508,-3.6483,-3.6458,-3.6408,-3.6358,-3.6358,-3.6307,-3.6282,-3.6307,-3.6282,-3.6063,-3.5818,-3.4977,-3.3881,-3.3458,-3.3121,-3.1275,-2.9384,-2.7344,-2.5801,-2.5762,-2.5723,-2.5723,-2.5723,-6.1366,-6.1231,-6.0419,-5.9674,-5.8998,-5.822,-5.7509,-5.707,-5.7036,-5.7103,-5.7273,-5.7611,-5.7915,-5.7915,-5.7881,-5.7848,-5.7814,-5.7171,-5.6077,-5.4656,-5.2838,-5.1118,-4.9532,-4.8243,-4.7429,-4.7339,-4.7309,-4.7309,-4.7339,-4.7519,-4.7967,-4.8297,-4.8716,-4.9075,-4.8955,-4.8386,-4.7908,-4.7608,-4.7339,-4.7309,-4.7309,-4.7429,-4.7459,-4.7459,-4.7459,-4.7429,-4.7399,-4.7459,-4.7459,-4.7309,-4.7309,-4.7309,-4.7309,-4.7019,-4.6726,-4.5869,-4.4256,-4.3218,-4.2544,-4.1219,-4.0083,-3.98,-3.9697,-3.9697,-3.9697,-3.9697,-3.9697,-3.9697,-3.9697,-3.9697,-3.9697,-3.9697,-3.9697,-3.9697,-3.9672,-3.9572,-3.9446,-3.917,-3.8994,-3.8818,-3.8391,-3.7864,-3.7487,-3.7513,-3.7613,-3.7487,-3.7513,-3.7437,-3.7186,-3.691,-3.6684,-3.6408,-3.6408,-3.6383,-3.6383,-3.6307,-3.6157,-3.6031,-3.5981,-3.6056,-3.6132,-3.5769,-3.4928,-3.4002,-3.2983,-3.2392,-3.1467,-2.9663,-2.7869,-2.656,-2.5723,-2.5723,-2.5723,-2.5723,-2.5723,-5.998,-6.052,-6.0216,-5.9945,-5.9607,-5.8896,-5.8152,-5.7476,-5.7002,-5.6799,-5.6833,-5.7103,-5.7476,-5.778,-5.7848,-5.7611,-5.7239,-5.7002,-5.5247,-5.3476,-5.1802,-5.0241,-4.8806,-4.7804,-4.7309,-4.7309,-4.7309,-4.7309,-4.7309,-4.7309,-4.7399,-4.7758,-4.8057,-4.7997,-4.7908,-4.7908,-4.7608,-4.7429,-4.7309,-4.7309,-4.7309,-4.7309,-4.7309,-4.7309,-4.7309,-4.7309,-4.7309,-4.7309,-4.7309,-4.7309,-4.7309,-4.7222,-4.7019,-4.655,-4.584,-4.5149,-4.3326,-4.2269,-4.1439,-4.0313,-3.98,-3.9697,-3.9697,-3.9697,-3.9697,-3.9697,-3.9697,-3.9697,-3.9697,-3.9697,-3.9697,-3.9697,-3.9697,-3.9697,-3.9622,-3.9471,-3.922,-3.8894,-3.8442,-3.8165,-3.7764,-3.7287,-3.696,-3.6709,-3.681,-3.6885,-3.6935,-3.6935,-3.6684,-3.6483,-3.6257,-3.6107,-3.6056,-3.6132,-3.6132,-3.6006,-3.5881,-3.5755,-3.5655,-3.5629,-3.5537,-3.4352,-3.3477,-3.263,-3.1829,-3.0909,-2.9663,-2.7965,-2.6734,-2.5956,-2.5723,-2.5723,-2.5723,-2.5723,-2.5723,-5.853,-5.9505,-5.9911,-6.008,-6.0013,-5.9336,-5.8592,-5.7848,-5.7103,-5.6799,-5.6799,-5.6833,-5.707,-5.7442,-5.7273,-5.7002,-5.6461,-5.5947,-5.4088,-5.2486,-5.1119,-4.9603,-4.814,-4.7309,-4.7309,-4.7309,-4.7309,-4.7309,-4.7309,-4.7309,-4.7339,-4.7369,-4.7309,-4.7399,-4.7399,-4.7309,-4.7309,-4.7309,-4.7309,-4.7309,-4.7309,-4.7309,-4.7309,-4.7309,-4.7309,-4.7309,-4.7309,-4.7309,-4.7309,-4.7135,-4.6931,-4.6726,-4.6255,-4.5541,-4.4358,-4.3216,-4.2081,-4.0807,-4.0055,-3.9752,-3.975,-3.9697,-3.9697,-3.9697,-3.9697,-3.9697,-3.9697,-3.9697,-3.9697,-3.9697,-3.9697,-3.9697,-3.9697,-3.9697,-3.9371,-3.9195,-3.8843,-3.8492,-3.7939,-3.7462,-3.7086,-3.6784,-3.6684,-3.6458,-3.6458,-3.6558,-3.6634,-3.6533,-3.6182,-3.6006,-3.5881,-3.573,-3.5629,-3.573,-3.5805,-3.5554,-3.5303,-3.5278,-3.5152,-3.5027,-3.4628,-3.3392,-3.2393,-3.1622,-3.0616,-2.9415,-2.8124,-2.6774,-2.619,-2.5742,-2.5723,-2.5723,-2.5723,-2.5723,-2.5723,-5.703,-5.8084,-5.9404,-5.9979,-5.981,-5.9302,-5.8592,-5.7848,-5.7137,-5.6765,-5.6697,-5.6697,-5.6697,-5.6697,-5.6325,-5.5987,-5.5683,-5.5038,-5.3545,-5.1726,-5.0813,-4.9259,-4.8049,-4.7309,-4.7309,-4.7309,-4.7309,-4.7309,-4.7309,-4.7309,-4.7309,-4.7309,-4.7309,-4.7309,-4.7309,-4.7309,-4.7309,-4.7309,-4.7309,-4.7309,-4.7309,-4.7309,-4.7309,-4.7309,-4.7309,-4.7309,-4.7309,-4.7309,-4.7309,-4.7222,-4.6255,-4.5869,-4.5598,-4.4256,-4.3255,-4.2598,-4.1405,-4.0465,-3.9922,-3.9801,-3.9649,-3.9672,-3.9697,-3.9697,-3.9697,-3.9697,-3.9622,-3.9546,-3.9647,-3.9647,-3.9672,-3.9697,-3.9672,-3.9597,-3.9295,-3.8868,-3.8542,-3.8065,-3.7513,-3.6985,-3.6634,-3.6358,-3.6358,-3.6282,-3.6207,-3.6257,-3.6332,-3.6132,-3.5705,-3.5529,-3.5429,-3.5353,-3.5253,-3.5228,-3.5253,-3.4951,-3.4751,-3.4726,-3.46,-3.4374,-3.3956,-3.3064,-3.1896,-3.0696,-2.9343,-2.8073,-2.6967,-2.5742,-2.5723,-2.5723,-2.5723,-2.5723,-2.5723,-2.5723,-2.5723,-5.4896,-5.6528,-5.7509,-5.7915,-5.8017,-5.8727,-5.8592,-5.7848,-5.7137,-5.6528,-5.6156,-5.6089,-5.6089,-5.5953,-5.5784,-5.5378,-5.4869,-5.4768,-5.3379,-5.0903,-5.0416,-4.9116,-4.7849,-4.7309,-4.7309,-4.7309,-4.7309,-4.7309,-4.7309,-4.7309,-4.7309,-4.7309,-4.7309,-4.7309,-4.7309,-4.7309,-4.7309,-4.7309,-4.7309,-4.7309,-4.7309,-4.7309,-4.7309,-4.7309,-4.7309,-4.7309,-4.7309,-4.7309,-4.7222,-4.7019,-4.5869,-4.5298,-4.4812,-4.3476,-4.1957,-4.1309,-4.0233,-3.9469,-3.929,-3.9247,-3.9295,-3.9521,-3.9697,-3.9697,-3.9697,-3.9697,-3.9521,-3.932,-3.9421,-3.9371,-3.9245,-3.9521,-3.9597,-3.9572,-3.927,-3.8718,-3.8266,-3.7663,-3.7111,-3.6609,-3.6182,-3.5705,-3.5504,-3.5604,-3.5604,-3.5529,-3.5554,-3.5454,-3.5102,-3.5027,-3.4951,-3.4926,-3.4876,-3.4801,-3.4675,-3.4374,-3.4198,-3.4173,-3.3897,-3.352,-3.3071,-3.2616,-3.1266,-3.0032,-2.8293,-2.6648,-2.6091,-2.5723,-2.5723,-2.5723,-2.5723,-2.5723,-2.5723,-2.5723,-2.5723,-5.34,-5.5342,-5.6122,-5.6427,-5.6664,-5.8017,-5.822,-5.7476,-5.6765,-5.6156,-5.575,-5.548,-5.5344,-5.5243,-5.5006,-5.4387,-5.3746,-5.3643,-5.2441,-5.0087,-4.9852,-4.8677,-4.7764,-4.7309,-4.7309,-4.7309,-4.7309,-4.7309,-4.7309,-4.7309,-4.7309,-4.7309,-4.7309,-4.7309,-4.7309,-4.7309,-4.7309,-4.7309,-4.7309,-4.7309,-4.7309,-4.7309,-4.7309,-4.7309,-4.7309,-4.7309,-4.7309,-4.7222,-4.7019,-4.6462,-4.5598,-4.4535,-4.3665,-4.2205,-4.0473,-3.9689,-3.8779,-3.8239,-3.8239,-3.829,-3.8542,-3.927,-3.9521,-3.9672,-3.9622,-3.9471,-3.9245,-3.9094,-3.9094,-3.8894,-3.8743,-3.9094,-3.912,-3.9069,-3.8693,-3.8115,-3.7814,-3.7236,-3.6659,-3.6157,-3.5755,-3.5228,-3.4776,-3.4801,-3.4876,-3.4801,-3.4751,-3.4625,-3.4525,-3.4474,-3.4374,-3.4299,-3.4223,-3.4098,-3.3947,-3.3771,-3.3646,-3.3621,-3.3283,-3.2921,-3.2636,-3.2259,-3.0758,-2.9326,-2.8028,-2.6935,-2.6091,-2.5723,-2.5723,-2.5723,-2.5723,-2.5723,-2.5723,-2.5723,-2.5723,-5.2646,-5.4496,-5.5344,-5.5615,-5.5852,-5.6968,-5.7239,-5.6731,-5.6055,-5.5716,-5.5615,-5.4905,-5.4668,-5.4431,-5.389,-5.3107,-5.2373,-5.2197,-5.0843,-4.9456,-4.9135,-4.8157,-4.7593,-4.7309,-4.7309,-4.7309,-4.7309,-4.7309,-4.7309,-4.7309,-4.7309,-4.7309,-4.7309,-4.7309,-4.7309,-4.7309,-4.7309,-4.7309,-4.7309,-4.7309,-4.7309,-4.7309,-4.7309,-4.7309,-4.7309,-4.7309,-4.7222,-4.7106,-4.6462,-4.5508,-4.4256,-4.3026,-4.1629,-3.9927,-3.8892,-3.7965,-3.7207,-3.7236,-3.7437,-3.7588,-3.7914,-3.8768,-3.922,-3.9496,-3.9521,-3.9195,-3.8868,-3.8592,-3.8442,-3.8216,-3.8065,-3.8165,-3.8241,-3.8015,-3.7713,-3.7412,-3.7236,-3.6759,-3.6182,-3.5755,-3.5429,-3.4977,-3.4474,-3.4349,-3.4198,-3.4073,-3.4022,-3.3997,-3.3922,-3.3897,-3.3771,-3.3495,-3.342,-3.3269,-3.3194,-3.3319,-3.3319,-3.337,-3.2922,-3.2525,-3.2239,-3.1601,-2.9943,-2.868,-2.8028,-2.7125,-2.611,-2.5723,-2.5723,-2.5723,-2.5723,-2.5723,-2.5723,-2.5723,-2.5723,-5.148,-5.2748,-5.3751,-5.416,-5.4194,-5.46,-5.5209,-5.5919,-5.5784,-5.5446,-5.4905,-5.4702,-5.4296,-5.3788,-5.3585,-5.2767,-5.2208,-5.1631,-5.055,-4.9536,-4.8564,-4.8042,-4.7593,-4.7309,-4.7309,-4.7309,-4.7309,-4.7309,-4.7309,-4.7309,-4.7309,-4.7309,-4.7219,-4.7249,-4.7249,-4.7279,-4.7219,-4.7219,-4.7219,-4.7309,-4.7309,-4.7309,-4.7309,-4.7309,-4.7135,-4.7135,-4.7019,-4.6255,-4.5689,-4.5115,-4.3218,-4.1887,-4.1663,-3.9927,-3.8617,-3.809,-3.7713,-3.7663,-3.7739,-3.7764,-3.7889,-3.814,-3.8442,-3.8743,-3.8894,-3.8818,-3.8442,-3.809,-3.7864,-3.7688,-3.7563,-3.7588,-3.7663,-3.7538,-3.7287,-3.7086,-3.686,-3.6383,-3.5805,-3.5278,-3.4977,-3.4374,-3.3922,-3.3746,-3.3571,-3.3395,-3.3345,-3.337,-3.342,-3.3445,-3.3395,-3.3144,-3.3093,-3.3093,-3.3068,-3.3082,-3.3144,-3.3093,-3.2351,-3.1689,-3.1223,-3.0418,-2.9028,-2.7934,-2.722,-2.6572,-2.5917,-2.5723,-2.5723,-2.5723,-2.5723,-2.5723,-2.5723,-2.5723,-2.5723,-5.0595,-5.1921,-5.2557,-5.311,-5.345,-5.3518,-5.4059,-5.4769,-5.4837,-5.4532,-5.4194,-5.4126,-5.3923,-5.3518,-5.3112,-5.2196,-5.0921,-5.0594,-4.961,-4.8112,-4.8171,-4.7819,-4.7452,-4.7309,-4.7309,-4.7309,-4.7309,-4.7309,-4.7309,-4.7309,-4.7309,-4.7279,-4.713,-4.695,-4.68,-4.6561,-4.6411,-4.6651,-4.692,-4.7219,-4.7249,-4.7249,-4.7309,-4.7133,-4.6959,-4.6579,-4.6403,-4.5331,-4.4507,-4.4069,-4.1985,-4.1319,-4.0941,-3.955,-3.8617,-3.814,-3.7965,-3.7739,-3.7638,-3.7588,-3.7663,-3.7688,-3.7688,-3.7864,-3.8015,-3.8015,-3.7739,-3.7462,-3.7337,-3.7236,-3.7161,-3.7111,-3.7211,-3.7287,-3.7086,-3.686,-3.6458,-3.6006,-3.5454,-3.4851,-3.4274,-3.3646,-3.3269,-3.3144,-3.3093,-3.3144,-3.3169,-3.3194,-3.3219,-3.3219,-3.3219,-3.3119,-3.3093,-3.3093,-3.3068,-3.2785,-3.2413,-3.2064,-3.1134,-3.0508,-3.0124,-2.9304,-2.8049,-2.7125,-2.6284,-2.5917,-2.5723,-2.5723,-2.5723,-2.5723,-2.5723,-2.5723,-2.5723,-2.5723,-2.5723,-4.9977,-5.1776,-5.1921,-5.2697,-5.3416,-5.3518,-5.3484,-5.3416,-5.3484,-5.3484,-5.3518,-5.345,-5.3382,-5.3045,-5.2371,-5.0979,-4.9839,-4.9245,-4.8404,-4.6436,-4.7056,-4.7186,-4.7366,-4.7309,-4.7309,-4.7309,-4.7309,-4.7309,-4.7309,-4.7279,-4.7249,-4.7219,-4.6711,-4.6411,-4.6202,-4.5843,-4.5693,-4.5813,-4.6381,-4.683,-4.692,-4.707,-4.716,-4.6837,-4.6079,-4.5248,-4.4886,-4.3967,-4.2698,-4.1923,-4.1214,-4.0614,-3.9855,-3.9372,-3.8718,-3.8442,-3.8341,-3.799,-3.7713,-3.7538,-3.7287,-3.7211,-3.7136,-3.7161,-3.7262,-3.7487,-3.7312,-3.701,-3.6885,-3.681,-3.6734,-3.6709,-3.6784,-3.681,-3.6684,-3.6458,-3.6132,-3.5529,-3.4751,-3.4223,-3.3746,-3.3194,-3.3169,-3.3093,-3.3093,-3.3093,-3.3093,-3.3093,-3.3093,-3.3093,-3.3093,-3.3093,-3.3093,-3.3068,-3.281,-3.2438,-3.1689,-3.0956,-3.0011,-2.9396,-2.9143,-2.8215,-2.703,-2.6476,-2.5917,-2.582,-2.5723,-2.5723,-2.5723,-2.5723,-2.5723,-2.5723,-2.5723,-2.5664,-2.5566,-4.9536,-5.093,-5.2487,-5.328,-5.3484,-5.3518,-5.3112,-5.2604,-5.2604,-5.2909,-5.3281,-5.2875,-5.2538,-5.2336,-5.1061,-4.9698,-4.8689,-4.782,-4.7096,-4.6448,-4.6531,-4.698,-4.7189,-4.7219,-4.7249,-4.7309,-4.7309,-4.716,-4.71,-4.71,-4.698,-4.6591,-4.6202,-4.5963,-4.5544,-4.5185,-4.5125,-4.5095,-4.5424,-4.5783,-4.5783,-4.5783,-4.5783,-4.5446,-4.4762,-4.4033,-4.3352,-4.1901,-4.1032,-4.0271,-3.9792,-3.9398,-3.9044,-3.9295,-3.917,-3.8843,-3.8944,-3.8592,-3.8065,-3.7688,-3.7412,-3.6835,-3.6634,-3.6584,-3.6684,-3.6985,-3.701,-3.6684,-3.6483,-3.6408,-3.6358,-3.6358,-3.6332,-3.6332,-3.6282,-3.6031,-3.578,-3.4951,-3.4098,-3.3646,-3.3219,-3.3119,-3.3093,-3.3093,-3.3093,-3.3093,-3.3093,-3.3093,-3.3093,-3.3093,-3.3093,-3.3093,-3.3093,-3.2982,-3.2698,-3.184,-3.0909,-2.9942,-2.9009,-2.85,-2.8006,-2.722,-2.638,-2.611,-2.5723,-2.5723,-2.5723,-2.5723,-2.5723,-2.5723,-2.5625,-2.5586,-2.5488,-2.541,-2.5293,-4.9004,-5.055,-5.2661,-5.3281,-5.301,-5.2976,-5.2536,-5.1928,-5.1826,-5.1831,-5.1866,-5.1731,-5.1595,-5.1162,-4.9821,-4.8414,-4.7395,-4.6639,-4.6242,-4.5996,-4.6232,-4.677,-4.698,-4.704,-4.683,-4.683,-4.6501,-4.6352,-4.6501,-4.6352,-4.6082,-4.5843,-4.5663,-4.5304,-4.4825,-4.4646,-4.4496,-4.4407,-4.4496,-4.4496,-4.4616,-4.4885,-4.4882,-4.449,-4.3575,-4.2757,-4.1407,-4.0106,-3.9372,-3.9039,-3.8713,-3.8868,-3.8843,-3.9094,-3.927,-3.932,-3.9371,-3.932,-3.8592,-3.804,-3.7588,-3.6935,-3.6408,-3.6458,-3.6433,-3.6709,-3.6709,-3.6433,-3.6433,-3.6358,-3.6358,-3.6358,-3.6107,-3.6006,-3.583,-3.5604,-3.5077,-3.4349,-3.3746,-3.3345,-3.3093,-3.3093,-3.3093,-3.3093,-3.3093,-3.3093,-3.3093,-3.3043,-3.3043,-3.2943,-3.2968,-3.2857,-3.2671,-3.2426,-3.1952,-3.0998,-2.9919,-2.8873,-2.8021,-2.7191,-2.6553,-2.6184,-2.5723,-2.5684,-2.5684,-2.5723,-2.5723,-2.5605,-2.5703,-2.5723,-2.5566,-2.5391,-2.5273,-2.5003,-2.4562,-4.8296,-5.039,-5.236,-5.2875,-5.2334,-5.2198,-5.1758,-5.115,-5.1082,-5.0491,-4.9756,-5.0391,-5.0159,-4.9521,-4.8446,-4.7157,-4.6103,-4.5449,-4.5122,-4.5582,-4.5873,-4.6411,-4.6621,-4.6651,-4.6441,-4.6082,-4.5753,-4.5574,-4.5544,-4.5514,-4.5484,-4.5125,-4.4706,-4.4287,-4.4047,-4.3748,-4.3539,-4.3599,-4.3629,-4.3479,-4.3868,-4.4295,-4.4015,-4.3257,-4.2116,-4.0913,-3.9706,-3.8685,-3.7934,-3.7912,-3.7912,-3.8191,-3.8492,-3.8718,-3.9069,-3.922,-3.9371,-3.912,-3.8668,-3.8191,-3.7638,-3.7086,-3.6634,-3.6383,-3.6358,-3.6257,-3.6257,-3.6232,-3.6232,-3.6207,-3.6207,-3.6056,-3.5755,-3.5504,-3.5278,-3.5077,-3.4424,-3.3847,-3.347,-3.3093,-3.3093,-3.3093,-3.3093,-3.3093,-3.3093,-3.3093,-3.3068,-3.3018,-3.2918,-3.2632,-3.2446,-3.2067,-3.1748,-3.1404,-3.1192,-2.9894,-2.8696,-2.8043,-2.716,-2.6034,-2.5195,-2.5391,-2.5527,-2.5547,-2.5566,-2.5508,-2.543,-2.5293,-2.543,-2.5508,-2.5254,-2.498,-2.4883,-2.4481,-2.3632,-4.7219,-4.9695,-5.1093,-5.1894,-5.2065,-5.1657,-5.098,-5.0371,-5.0207,-4.9486,-4.8365,-4.81,-4.8062,-4.7677,-4.6139,-4.521,-4.5077,-4.4386,-4.475,-4.5214,-4.5424,-4.5933,-4.6262,-4.6172,-4.5963,-4.5544,-4.5185,-4.5274,-4.4915,-4.5035,-4.4975,-4.4496,-4.4466,-4.4047,-4.3569,-4.3329,-4.3329,-4.3329,-4.3329,-4.3329,-4.3329,-4.3388,-4.2895,-4.1961,-4.0854,-3.9687,-3.845,-3.7271,-3.6849,-3.6784,-3.7061,-3.7487,-3.7814,-3.8065,-3.8391,-3.8768,-3.8944,-3.8768,-3.8341,-3.804,-3.7513,-3.686,-3.6433,-3.6257,-3.6107,-3.583,-3.578,-3.568,-3.5655,-3.5655,-3.5579,-3.5303,-3.5027,-3.4801,-3.4575,-3.4349,-3.3922,-3.3545,-3.3194,-3.3093,-3.3093,-3.3093,-3.3093,-3.3093,-3.3093,-3.3093,-3.3093,-3.2993,-3.2566,-3.2247,-3.1843,-3.1283,-3.0664,-3.0951,-3.092,-2.8678,-2.7409,-2.6921,-2.6459,-2.5535,-2.5059,-2.5176,-2.5273,-2.5215,-2.5137,-2.5059,-2.498,-2.4961,-2.4844,-2.4863,-2.4707,-2.4512,-2.4434,-2.3871,-2.285]},{"header":{"parameterUnit":"m.s-1","parameterCategory":1,"la1":31.0,"la2":29.5877,"lo1":-88.7671,"lo2":-86.6584,"dy":0.0162,"dx":0.0185,"nx":115,"ny":88,"refTime":"2023-08-07T12:00:00:Z","depth":0,"parameterNumber":3,"parameterNumberName":"V-component_of_WINDS"},"data":[0.0,0.0,0.0,0.0,0.0,0.0,0.0,0.0,0.0,0.0,0.0,0.0,0.0,0.0,0.0,0.0,0.0,0.0,0.0,0.0,0.0,0.0,0.0,0.0,0.0,0.0,0.0,0.0,0.0,0.0,0.0,0.0,0.0,0.0,0.0,0.0,0.0,0.0,0.0,0.0,0.0,0.0,0.0,0.0,0.0,0.0,0.0,0.0,0.0,0.0,0.0,0.0,0.0,0.0,0.0,0.0,0.0,0.0,0.0,0.0,0.0,0.0,0.0,0.0,0.0,0.0,0.0,0.0,0.0,0.0,0.0,0.0,0.0,0.0,0.0,0.0,0.0,0.0,0.0,0.0,0.0,0.0,0.0,0.0,0.0,0.0,0.0,0.0,0.0,0.0,0.0,0.0,0.0,0.0,0.0,0.0,0.0,0.0,0.0,0.0,0.0,0.0,0.0,0.0,0.0,0.0,0.0,0.0,0.0,0.0,0.0,0.0,0.0,0.0,0.0,0.0,0.0,0.0,0.0,0.0,0.0,0.0,0.0,0.0,0.0,0.0,0.0,0.0,0.0,0.0,0.0,0.0,0.0,0.0,0.0,0.0,0.0,0.0,0.0,0.0,0.0,0.0,0.0,0.0,0.0,0.0,0.0,0.0,0.0,0.0,0.0,0.0,0.0,0.0,0.0,0.0,0.0,0.0,0.0,0.0,0.0,0.0,0.0,0.0,0.0,0.0,0.0,0.0,0.0,0.0,0.0,0.0,0.0,0.0,0.0,0.0,0.0,0.0,0.0,0.0,0.0,0.0,0.0,0.0,0.0,0.0,0.0,0.0,0.0,0.0,0.0,0.0,0.0,0.0,0.0,0.0,0.0,0.0,0.0,0.0,0.0,0.0,0.0,0.0,0.0,0.0,0.0,0.0,0.0,0.0,0.0,0.0,0.0,0.0,0.0,0.0,0.0,0.0,0.0,0.0,0.0,0.0,0.0,0.0,0.0,0.0,0.0,0.0,0.0,0.0,0.0,0.0,0.0,0.0,0.0,0.0,0.0,0.0,0.0,0.0,0.0,0.0,0.0,0.0,0.0,0.0,0.0,0.0,0.0,0.0,0.0,0.0,0.0,0.0,0.0,0.0,0.0,0.0,0.0,0.0,0.0,0.0,0.0,0.0,0.0,0.0,0.0,0.0,0.0,0.0,0.0,0.0,0.0,0.0,0.0,0.0,0.0,0.0,0.0,0.0,0.0,0.0,0.0,0.0,0.0,0.0,0.0,0.0,0.0,0.0,0.0,0.0,0.0,0.0,0.0,0.0,0.0,0.0,0.0,0.0,0.0,0.0,0.0,0.0,0.0,0.0,0.0,0.0,0.0,0.0,0.0,0.0,0.0,0.0,0.0,0.0,0.0,0.0,0.0,0.0,0.0,0.0,0.0,0.0,0.0,0.0,0.0,0.0,0.0,0.0,0.0,0.0,0.0,0.0,0.0,0.0,0.0,0.0,0.0,0.0,0.0,0.0,0.0,0.0,0.0,0.0,0.0,0.0,0.0,0.0,0.0,0.0,0.0,0.0,0.0,0.0,0.0,0.0,0.0,0.0,0.0,0.0,0.0,0.0,0.0,0.0,0.0,0.0,0.0,0.0,0.0,0.0,0.0,0.0,0.0,0.0,0.0,0.0,0.0,0.0,0.0,0.0,0.0,0.0,0.0,0.0,0.0,0.0,0.0,0.0,0.0,0.0,0.0,0.0,0.0,0.0,0.0,0.0,0.0,0.0,0.0,0.0,0.0,0.0,0.0,0.0,0.0,0.0,0.0,0.0,0.0,0.0,0.0,0.0,0.0,0.0,0.0,0.0,0.0,0.0,0.0,0.0,0.0,0.0,0.0,0.0,0.0,0.0,0.0,0.0,0.0,0.0,0.0,0.0,0.0,0.0,0.0,0.0,0.0,0.0,0.0,0.0,0.0,0.0,0.0,0.0,0.0,0.0,0.0,0.0,0.0,0.0,0.0,0.0,0.0,0.0,0.0,0.0,0.0,0.0,0.0,0.0,0.0,0.0,0.0,0.0,0.0,0.0,0.0,0.0,0.0,0.0,0.0,0.0,0.0,0.0,0.0,0.0,0.0,0.0,0.0,0.0,0.0,0.0,0.0,0.0,0.0,0.0,0.0,0.0,0.0,0.0,0.0,0.0,0.0,0.0,0.0,0.0,0.0,0.0,0.0,0.0,0.0,0.0,0.0,0.0,0.0,0.0,0.0,0.0,0.0,0.0,0.0,0.0,0.0,0.0,0.0,0.0,0.0,0.0,0.0,0.0,0.0,0.0,0.0,0.0,0.0,0.0,0.0,0.0,0.0,0.0,0.0,0.0,0.0,0.0,0.0,0.0,0.0,0.0,0.0,0.0,0.0,0.0,0.0,0.0,0.0,0.0,0.0,0.0,0.0,0.0,0.0,0.0,0.0,0.0,0.0,0.0,0.0,0.0,0.0,0.0,0.0,0.0,0.0,0.0,0.0,0.0,0.0,0.0,0.0,0.0,0.0,0.0,0.0,0.0,0.0,0.0,0.0,0.0,0.0,0.0,0.0,0.0,0.0,0.0,0.0,0.0,0.0,0.0,0.0,0.0,0.0,0.0,0.0,0.0,0.0,0.0,0.0,0.0,0.0,0.0,0.0,0.0,0.0,0.0,0.0,0.0,0.0,0.0,0.0,0.0,0.0,0.0,0.0,0.0,0.0,0.0,0.0,0.0,0.0,0.0,0.0,0.0,0.0,0.0,0.0,0.0,0.0,0.0,0.0,0.0,0.0,0.0,0.0,0.0,0.0,0.0,0.0,0.0,0.0,0.0,0.0,0.0,0.0,0.0,0.0,0.0,0.0,0.0,0.0,0.0,0.0,0.0,0.0,0.0,0.0,0.0,0.0,0.0,0.0,0.0,0.0,0.0,0.0,0.0,0.0,0.0,0.0,0.0,0.0,0.0,0.0,0.0,0.0,0.0,0.0,0.0,0.0,0.0,0.0,0.0,0.0,0.0,0.0,0.0,0.0,0.0,0.0,0.0,0.0,0.0,0.0,0.0,0.0,0.0,0.0,0.0,0.0,0.0,0.0,0.0,0.0,0.0,0.0,0.0,0.0,0.0,0.0,0.0,0.0,0.0,0.0,0.0,0.0,0.0,0.0,0.0,0.0,0.0,0.0,0.0,0.0,0.0,0.0,0.0,0.0,0.0,0.0,0.0,0.0,0.0,0.0,0.0,0.0,0.0,0.0,0.0,0.0,0.0,0.0,0.0,0.0,0.0,0.0,0.0,0.0,0.0,0.0,0.0,0.0,0.0,0.0,0.0,0.0,0.0,0.0,0.0,0.0,0.0,0.0,0.0,0.0,0.0,0.0,0.0,0.0,0.0,0.0,0.0,0.0,0.0,0.0,0.0,0.0,0.0,0.0,0.0,0.0,0.0,0.0,0.0,0.0,0.0,0.0,0.0,0.0,0.0,0.0,0.0,0.0,0.0,0.0,0.0,0.0,0.0,0.0,0.0,0.0,0.0,0.0,0.0,0.0,0.0,0.0,0.0,0.0,0.0,0.0,0.0,0.0,0.0,0.0,0.0,0.0,0.0,0.0,0.0,0.0,0.0,0.0,0.0,0.0,0.0,0.0,0.0,0.0,0.0,0.0,0.0,0.0,0.0,0.0,0.0,0.0,0.0,0.0,0.0,0.0,0.0,0.0,0.0,0.0,0.0,0.0,0.0,0.0,0.0,0.0,0.0,0.0,0.0,0.0,0.0,0.0,0.0,0.0,0.0,0.0,0.0,0.0,0.0,0.0,0.0,0.0,0.0,0.0,0.0,0.0,0.0,0.0,0.0,0.0,0.0,0.0,0.0,0.0,0.0,0.0,0.0,0.0,0.0,0.0,0.0,0.0,0.0,0.0,0.0,0.0,0.0,0.0,0.0,0.0,0.0,0.0,0.0,0.0,0.0,0.0,0.0,0.0,0.0,0.0,0.0,0.0,0.0,0.0,0.0,0.0,0.0,0.0,0.0,0.0,0.0,0.0,0.0,0.0,0.0,0.0,0.0,0.0,0.0,0.0,0.0,0.0,0.0,0.0,0.0,0.0,0.0,0.0,0.0,0.0,0.0,0.0,0.0,0.0,0.0,0.0,0.0,0.0,0.0,0.0,0.0,0.0,0.0,0.0,0.0,0.0,0.0,0.0,0.0,0.0,0.0,0.0,0.0,0.0,0.0,0.0,0.0,0.0,0.0,0.0,0.0,0.0,0.0,-1.9969,0.0,0.0,0.0,0.0,0.0,0.0,0.0,0.0,0.0,0.0,0.0,0.0,0.0,0.0,0.0,0.0,0.0,0.0,0.0,0.0,0.0,0.0,0.0,0.0,0.0,0.0,0.0,0.0,0.0,0.0,0.0,0.0,0.0,0.0,0.0,0.0,0.0,0.0,0.0,0.0,0.0,0.0,0.0,0.0,0.0,0.0,0.0,0.0,0.0,0.0,0.0,0.0,0.0,0.0,0.0,0.0,0.0,0.0,0.0,0.0,0.0,0.0,0.0,0.0,0.0,0.0,0.0,0.0,0.0,0.0,0.0,0.0,0.0,0.0,0.0,0.0,0.0,0.0,0.0,0.0,0.0,0.0,0.0,0.0,0.0,0.0,0.0,0.0,0.0,0.0,0.0,0.0,0.0,0.0,0.0,0.0,0.0,0.0,0.0,0.0,0.0,0.0,0.0,0.0,0.0,0.0,0.0,0.0,0.0,0.0,-2.4023,-2.3809,-2.3438,-2.2317,-2.0212,0.0,0.0,0.0,0.0,0.0,0.0,0.0,0.0,0.0,0.0,0.0,0.0,0.0,0.0,0.0,0.0,0.0,0.0,0.0,0.0,0.0,0.0,0.0,0.0,0.0,0.0,0.0,0.0,0.0,0.0,0.0,0.0,0.0,0.0,0.0,0.0,0.0,0.0,0.0,0.0,0.0,0.0,0.0,0.0,0.0,0.0,0.0,0.0,0.0,0.0,0.0,0.0,0.0,0.0,0.0,0.0,0.0,0.0,0.0,0.0,0.0,0.0,0.0,0.0,0.0,0.0,0.0,0.0,0.0,0.0,0.0,0.0,0.0,0.0,0.0,0.0,0.0,0.0,0.0,0.0,0.0,0.0,0.0,0.0,0.0,0.0,0.0,0.0,0.0,0.0,0.0,0.0,0.0,0.0,0.0,0.0,0.0,0.0,0.0,0.0,0.0,0.0,0.0,0.0,0.0,0.0,0.0,0.0,0.0,0.0,0.0,0.0,-2.4349,-2.3146,-2.0479,0.0,0.0,0.0,0.0,0.0,0.0,0.0,0.0,0.0,0.0,0.0,0.0,0.0,0.0,0.0,0.0,0.0,0.0,0.0,0.0,0.0,0.0,0.0,0.0,0.0,0.0,0.0,0.0,0.0,0.0,0.0,0.0,0.0,0.0,0.0,0.0,0.0,0.0,0.0,0.0,0.0,0.0,0.0,0.0,0.0,0.0,0.0,0.0,0.0,0.0,0.0,0.0,0.0,0.0,0.0,0.0,0.0,0.0,0.0,0.0,0.0,0.0,0.0,0.0,0.0,0.0,0.0,0.0,0.0,0.0,0.0,0.0,0.0,0.0,0.0,0.0,0.0,0.0,0.0,0.0,0.0,0.0,0.0,0.0,0.0,0.0,0.0,0.0,0.0,0.0,0.0,0.0,0.0,0.0,0.0,0.0,0.0,0.0,0.0,0.0,0.0,0.0,0.0,0.0,0.0,0.0,0.0,0.0,0.0,0.0,-2.4785,-2.5431,-2.4815,0.0,-2.136,0.0,0.0,0.0,0.0,0.0,0.0,0.0,0.0,0.0,0.0,0.0,0.0,0.0,0.0,0.0,0.0,0.0,0.0,0.0,0.0,0.0,0.0,0.0,0.0,0.0,0.0,0.0,0.0,0.0,0.0,0.0,0.0,0.0,0.0,0.0,0.0,0.0,0.0,0.0,0.0,0.0,0.0,0.0,0.0,0.0,0.0,0.0,0.0,0.0,0.0,0.0,0.0,0.0,0.0,0.0,0.0,0.0,0.0,0.0,0.0,0.0,0.0,0.0,0.0,0.0,0.0,0.0,0.0,0.0,0.0,0.0,0.0,0.0,0.0,0.0,0.0,0.0,0.0,0.0,0.0,0.0,0.0,0.0,0.0,0.0,0.0,0.0,0.0,0.0,0.0,0.0,0.0,0.0,0.0,0.0,0.0,0.0,0.0,0.0,0.0,0.0,0.0,0.0,0.0,0.0,0.0,0.0,0.0,0.0,0.0,-2.5371,-2.5723,-2.3963,-2.2763,0.0,0.0,0.0,0.0,0.0,0.0,0.0,0.0,0.0,0.0,0.0,0.0,0.0,0.0,0.0,0.0,0.0,0.0,0.0,0.0,0.0,0.0,0.0,0.0,0.0,0.0,0.0,0.0,0.0,0.0,0.0,0.0,0.0,0.0,0.0,0.0,0.0,0.0,0.0,0.0,0.0,0.0,0.0,0.0,0.0,0.0,0.0,0.0,0.0,0.0,0.0,0.0,0.0,0.0,0.0,0.0,0.0,0.0,0.0,0.0,0.0,0.0,0.0,0.0,0.0,0.0,0.0,0.0,0.0,0.0,0.0,0.0,0.0,0.0,0.0,0.0,0.0,0.0,0.0,0.0,0.0,0.0,0.0,0.0,0.0,0.0,0.0,0.0,0.0,0.0,0.0,0.0,0.0,0.0,0.0,0.0,0.0,0.0,0.0,0.0,0.0,0.0,0.0,0.0,0.0,0.0,0.0,0.0,0.0,0.0,-2.5215,-2.5918,-2.6131,-2.4086,-2.295,-2.3017,0.0,0.0,0.0,0.0,0.0,0.0,0.0,0.0,0.0,0.0,0.0,0.0,0.0,0.0,0.0,0.0,0.0,0.0,0.0,0.0,0.0,0.0,0.0,0.0,0.0,0.0,0.0,0.0,0.0,0.0,0.0,0.0,0.0,0.0,0.0,0.0,0.0,0.0,0.0,0.0,0.0,0.0,0.0,0.0,0.0,0.0,0.0,0.0,0.0,0.0,0.0,0.0,0.0,0.0,0.0,0.0,0.0,0.0,0.0,0.0,0.0,0.0,0.0,0.0,0.0,0.0,0.0,0.0,0.0,0.0,0.0,0.0,0.0,0.0,0.0,0.0,0.0,0.0,0.0,0.0,0.0,0.0,0.0,0.0,0.0,0.0,0.0,0.0,0.0,0.0,0.0,0.0,0.0,0.0,0.0,0.0,0.0,0.0,0.0,0.0,0.0,0.0,0.0,0.0,0.0,0.0,0.0,0.0,-2.6621,-2.6094,-2.6328,-2.7539,-2.5927,-2.4783,0.0,0.0,0.0,0.0,0.0,0.0,0.0,0.0,0.0,0.0,0.0,0.0,0.0,0.0,0.0,0.0,0.0,0.0,0.0,0.0,0.0,0.0,0.0,0.0,0.0,0.0,0.0,0.0,0.0,0.0,0.0,0.0,0.0,0.0,0.0,0.0,0.0,0.0,0.0,0.0,0.0,0.0,0.0,0.0,0.0,0.0,0.0,0.0,0.0,0.0,0.0,0.0,0.0,0.0,0.0,0.0,0.0,0.0,0.0,0.0,0.0,0.0,0.0,0.0,0.0,0.0,0.0,0.0,0.0,0.0,0.0,0.0,0.0,0.0,0.0,0.0,0.0,0.0,0.0,0.0,0.0,0.0,0.0,0.0,0.0,0.0,0.0,0.0,0.0,0.0,0.0,0.0,0.0,0.0,0.0,0.0,0.0,0.0,0.0,0.0,0.0,0.0,0.0,0.0,0.0,0.0,0.0,0.0,0.0,-2.4492,-2.5039,-2.6582,-2.9062,-2.5629,-2.4073,0.0,0.0,0.0,0.0,0.0,0.0,0.0,0.0,0.0,0.0,0.0,0.0,0.0,0.0,0.0,0.0,0.0,0.0,0.0,0.0,0.0,0.0,0.0,0.0,0.0,0.0,0.0,0.0,0.0,0.0,0.0,0.0,0.0,0.0,0.0,0.0,0.0,0.0,0.0,0.0,0.0,0.0,0.0,0.0,0.0,0.0,0.0,0.0,0.0,0.0,0.0,0.0,0.0,0.0,0.0,0.0,0.0,0.0,0.0,0.0,0.0,0.0,0.0,0.0,0.0,0.0,0.0,0.0,0.0,0.0,0.0,0.0,0.0,0.0,0.0,0.0,0.0,0.0,0.0,0.0,0.0,0.0,0.0,0.0,0.0,0.0,0.0,0.0,0.0,0.0,0.0,0.0,0.0,0.0,0.0,0.0,0.0,0.0,0.0,0.0,0.0,0.0,0.0,0.0,0.0,0.0,0.0,0.0,0.0,-2.4609,0.0,-2.7754,-2.918,-2.6123,-2.422,0.0,0.0,0.0,0.0,0.0,0.0,0.0,0.0,0.0,0.0,0.0,0.0,0.0,0.0,0.0,0.0,0.0,0.0,0.0,0.0,0.0,0.0,0.0,0.0,0.0,0.0,0.0,0.0,0.0,0.0,0.0,0.0,0.0,0.0,0.0,0.0,0.0,0.0,0.0,0.0,0.0,0.0,0.0,0.0,0.0,0.0,0.0,0.0,0.0,0.0,0.0,0.0,0.0,0.0,0.0,0.0,0.0,0.0,0.0,0.0,0.0,0.0,0.0,0.0,0.0,0.0,0.0,0.0,0.0,0.0,0.0,0.0,0.0,0.0,0.0,0.0,0.0,0.0,0.0,0.0,0.0,0.0,0.0,0.0,0.0,0.0,0.0,0.0,0.0,0.0,0.0,0.0,0.0,0.0,0.0,0.0,0.0,0.0,0.0,0.0,0.0,0.0,0.0,0.0,0.0,0.0,0.0,0.0,-2.4629,-2.7519,-2.959,-2.9668,-2.7832,-2.7598,-2.5605,0.0,0.0,0.0,0.0,0.0,0.0,0.0,0.0,0.0,0.0,0.0,0.0,0.0,0.0,0.0,0.0,0.0,0.0,0.0,0.0,0.0,0.0,0.0,0.0,0.0,0.0,0.0,0.0,0.0,0.0,0.0,0.0,0.0,0.0,0.0,0.0,0.0,0.0,0.0,0.0,0.0,0.0,0.0,0.0,0.0,0.0,0.0,0.0,0.0,0.0,0.0,0.0,0.0,0.0,0.0,0.0,0.0,0.0,0.0,0.0,0.0,0.0,0.0,0.0,0.0,0.0,0.0,0.0,0.0,0.0,0.0,0.0,0.0,0.0,0.0,0.0,0.0,0.0,0.0,0.0,0.0,0.0,0.0,0.0,0.0,0.0,0.0,0.0,0.0,0.0,0.0,0.0,0.0,0.0,0.0,0.0,0.0,0.0,0.0,0.0,0.0,0.0,0.0,0.0,0.0,0.0,0.0,0.0,0.0,-2.7207,-2.7871,-2.9043,-3.0566,-2.7285,-2.5371,0.0,0.0,0.0,0.0,0.0,0.0,0.0,0.0,0.0,0.0,0.0,0.0,0.0,0.0,0.0,0.0,0.0,0.0,0.0,0.0,0.0,0.0,0.0,0.0,0.0,0.0,0.0,0.0,0.0,0.0,0.0,0.0,0.0,0.0,0.0,0.0,0.0,0.0,0.0,0.0,0.0,0.0,0.0,0.0,0.0,0.0,0.0,0.0,0.0,0.0,0.0,0.0,0.0,0.0,0.0,0.0,0.0,0.0,0.0,0.0,0.0,0.0,0.0,0.0,0.0,0.0,0.0,0.0,0.0,0.0,0.0,0.0,0.0,0.0,0.0,0.0,0.0,0.0,0.0,0.0,0.0,0.0,0.0,0.0,0.0,0.0,0.0,0.0,0.0,0.0,0.0,0.0,0.0,0.0,0.0,0.0,0.0,0.0,0.0,0.0,0.0,0.0,0.0,0.0,0.0,0.0,0.0,0.0,0.0,-2.8672,-2.9004,-2.9961,-3.166,-2.7754,-2.5684,-2.5742,0.0,0.0,0.0,0.0,0.0,0.0,0.0,0.0,0.0,0.0,0.0,0.0,0.0,0.0,0.0,0.0,0.0,0.0,0.0,0.0,0.0,0.0,0.0,0.0,0.0,0.0,0.0,0.0,0.0,0.0,0.0,0.0,0.0,0.0,0.0,0.0,0.0,0.0,0.0,0.0,0.0,0.0,0.0,0.0,0.0,0.0,0.0,0.0,0.0,0.0,0.0,0.0,0.0,0.0,0.0,0.0,0.0,0.0,0.0,0.0,0.0,0.0,0.0,0.0,0.0,0.0,0.0,0.0,0.0,0.0,0.0,0.0,0.0,0.0,0.0,0.0,0.0,0.0,0.0,0.0,0.0,0.0,0.0,0.0,0.0,0.0,0.0,0.0,0.0,0.0,0.0,0.0,0.0,0.0,0.0,0.0,0.0,0.0,0.0,0.0,0.0,0.0,0.0,0.0,0.0,0.0,0.0,0.0,-3.1484,-3.2402,-3.2285,-3.1133,-2.8906,-2.6562,0.0,0.0,0.0,0.0,0.0,0.0,0.0,0.0,0.0,0.0,0.0,0.0,0.0,0.0,0.0,0.0,0.0,0.0,0.0,0.0,0.0,0.0,0.0,0.0,0.0,0.0,0.0,0.0,0.0,0.0,0.0,0.0,0.0,0.0,0.0,0.0,0.0,0.0,0.0,0.0,0.0,0.0,0.0,0.0,0.0,0.0,0.0,0.0,0.0,0.0,0.0,0.0,0.0,0.0,0.0,0.0,0.0,0.0,0.0,0.0,0.0,0.0,0.0,0.0,0.0,0.0,0.0,0.0,0.0,0.0,0.0,0.0,0.0,0.0,0.0,0.0,0.0,0.0,0.0,0.0,0.0,0.0,0.0,0.0,0.0,0.0,0.0,0.0,0.0,0.0,0.0,0.0,0.0,0.0,0.0,0.0,0.0,0.0,0.0,0.0,0.0,0.0,0.0,0.0,0.0,0.0,0.0,0.0,0.0,-3.1445,-3.2969,-3.3574,-3.3184,-3.0234,-2.7988,0.0,0.0,0.0,0.0,0.0,0.0,0.0,0.0,0.0,0.0,0.0,0.0,0.0,0.0,0.0,0.0,0.0,0.0,0.0,0.0,0.0,0.0,0.0,0.0,0.0,0.0,0.0,0.0,0.0,0.0,0.0,0.0,0.0,0.0,0.0,0.0,0.0,0.0,0.0,0.0,0.0,0.0,0.0,0.0,0.0,0.0,0.0,0.0,0.0,0.0,0.0,0.0,0.0,0.0,0.0,0.0,0.0,0.0,0.0,0.0,0.0,0.0,0.0,0.0,0.0,0.0,0.0,0.0,0.0,0.0,0.0,0.0,0.0,0.0,0.0,0.0,0.0,0.0,0.0,0.0,0.0,0.0,0.0,0.0,0.0,0.0,0.0,0.0,0.0,0.0,0.0,0.0,0.0,0.0,0.0,0.0,0.0,0.0,0.0,0.0,0.0,0.0,0.0,0.0,0.0,0.0,0.0,0.0,-3.1594,-3.2266,-3.4552,-3.5191,-3.4082,-3.1445,-2.9277,0.0,0.0,0.0,0.0,0.0,0.0,0.0,0.0,0.0,0.0,0.0,0.0,0.0,0.0,0.0,0.0,0.0,0.0,0.0,0.0,0.0,0.0,0.0,0.0,0.0,0.0,0.0,0.0,0.0,0.0,0.0,0.0,0.0,0.0,0.0,0.0,0.0,0.0,0.0,0.0,0.0,0.0,0.0,0.0,0.0,0.0,0.0,0.0,0.0,0.0,0.0,0.0,0.0,0.0,0.0,0.0,0.0,0.0,0.0,0.0,0.0,0.0,0.0,0.0,0.0,0.0,0.0,0.0,0.0,0.0,0.0,0.0,0.0,0.0,0.0,0.0,0.0,0.0,0.0,0.0,0.0,0.0,0.0,0.0,0.0,0.0,0.0,0.0,0.0,0.0,0.0,0.0,0.0,0.0,0.0,0.0,0.0,0.0,0.0,0.0,0.0,0.0,0.0,0.0,0.0,0.0,0.0,0.0,-3.3483,-3.3519,-3.6321,-3.667,-3.4191,-3.2461,-3.0351,0.0,0.0,0.0,0.0,0.0,0.0,0.0,0.0,0.0,0.0,0.0,0.0,0.0,0.0,0.0,0.0,0.0,0.0,0.0,0.0,0.0,0.0,0.0,0.0,0.0,0.0,0.0,0.0,0.0,0.0,0.0,0.0,0.0,0.0,0.0,0.0,0.0,0.0,0.0,0.0,0.0,0.0,0.0,0.0,0.0,0.0,0.0,0.0,0.0,0.0,0.0,0.0,0.0,0.0,0.0,0.0,0.0,0.0,0.0,0.0,0.0,0.0,0.0,0.0,0.0,0.0,0.0,0.0,0.0,0.0,0.0,0.0,0.0,0.0,0.0,0.0,0.0,0.0,0.0,0.0,0.0,0.0,0.0,0.0,0.0,0.0,0.0,0.0,0.0,0.0,0.0,0.0,0.0,0.0,0.0,0.0,0.0,0.0,0.0,0.0,0.0,0.0,0.0,0.0,0.0,0.0,0.0,0.0,-3.4952,-3.372,-3.6019,-3.6234,-3.4211,-3.2754,-3.0644,0.0,0.0,0.0,0.0,0.0,0.0,0.0,0.0,0.0,0.0,0.0,0.0,0.0,0.0,0.0,0.0,0.0,0.0,0.0,0.0,0.0,0.0,0.0,0.0,0.0,0.0,0.0,0.0,0.0,0.0,0.0,0.0,0.0,0.0,0.0,0.0,0.0,0.0,0.0,0.0,0.0,0.0,0.0,0.0,0.0,0.0,0.0,0.0,-3.0532,0.0,0.0,0.0,0.0,0.0,0.0,0.0,0.0,0.0,0.0,0.0,0.0,0.0,0.0,0.0,0.0,0.0,0.0,0.0,0.0,0.0,0.0,0.0,0.0,0.0,0.0,0.0,0.0,0.0,0.0,0.0,0.0,0.0,0.0,0.0,0.0,0.0,0.0,0.0,0.0,0.0,0.0,0.0,0.0,0.0,0.0,0.0,0.0,0.0,0.0,0.0,0.0,0.0,0.0,0.0,0.0,0.0,0.0,0.0,-3.7129,-3.5548,-3.7335,-3.736,-3.5301,-3.3505,-3.1055,0.0,0.0,0.0,0.0,0.0,0.0,0.0,0.0,0.0,0.0,0.0,0.0,0.0,0.0,0.0,0.0,0.0,0.0,0.0,0.0,0.0,0.0,0.0,0.0,0.0,0.0,0.0,0.0,0.0,0.0,0.0,0.0,0.0,0.0,0.0,0.0,0.0,0.0,0.0,0.0,0.0,0.0,0.0,0.0,0.0,0.0,0.0,0.0,0.0,0.0,0.0,0.0,0.0,0.0,0.0,0.0,0.0,0.0,0.0,0.0,0.0,0.0,0.0,0.0,0.0,0.0,0.0,0.0,0.0,0.0,0.0,0.0,0.0,0.0,0.0,0.0,0.0,0.0,0.0,0.0,0.0,0.0,0.0,0.0,0.0,0.0,0.0,0.0,0.0,0.0,0.0,0.0,0.0,0.0,0.0,0.0,0.0,0.0,0.0,0.0,0.0,0.0,0.0,0.0,0.0,0.0,0.0,-3.7147,-3.8873,-3.7927,-3.8904,-3.8415,-3.6436,-3.4057,-3.1486,-2.8739,0.0,0.0,0.0,0.0,0.0,0.0,0.0,0.0,0.0,0.0,0.0,0.0,0.0,0.0,0.0,0.0,0.0,0.0,0.0,0.0,0.0,0.0,0.0,0.0,0.0,0.0,0.0,0.0,0.0,0.0,0.0,0.0,0.0,0.0,0.0,0.0,0.0,0.0,-3.5759,-3.6357,0.0,0.0,0.0,0.0,0.0,0.0,0.0,0.0,-3.0788,0.0,0.0,0.0,0.0,0.0,0.0,0.0,0.0,0.0,0.0,0.0,0.0,0.0,0.0,0.0,0.0,0.0,0.0,0.0,0.0,0.0,0.0,0.0,0.0,0.0,0.0,0.0,0.0,0.0,0.0,0.0,0.0,0.0,0.0,0.0,0.0,0.0,0.0,0.0,0.0,0.0,0.0,0.0,0.0,0.0,0.0,0.0,0.0,0.0,0.0,0.0,0.0,0.0,0.0,0.0,0.0,-3.6945,-3.7866,-3.8669,-3.9396,-3.8726,-3.7583,-3.5911,-3.3877,-3.182,-2.9741,0.0,0.0,0.0,0.0,0.0,0.0,0.0,0.0,0.0,0.0,0.0,0.0,0.0,0.0,0.0,0.0,0.0,0.0,0.0,0.0,0.0,0.0,0.0,0.0,0.0,0.0,0.0,0.0,0.0,0.0,0.0,0.0,0.0,0.0,0.0,0.0,0.0,0.0,0.0,-3.7674,-3.7323,0.0,0.0,0.0,0.0,0.0,0.0,0.0,0.0,-3.1551,0.0,0.0,0.0,0.0,0.0,0.0,0.0,0.0,0.0,0.0,0.0,0.0,0.0,0.0,0.0,0.0,0.0,0.0,0.0,0.0,0.0,0.0,0.0,0.0,0.0,0.0,0.0,0.0,0.0,0.0,0.0,0.0,0.0,0.0,0.0,0.0,0.0,0.0,0.0,0.0,0.0,0.0,0.0,0.0,0.0,0.0,0.0,0.0,0.0,0.0,0.0,0.0,0.0,0.0,0.0,-3.6634,-3.8718,-4.0308,-4.1345,-4.0363,-3.9419,-3.8657,-3.5036,-3.2776,0.0,0.0,0.0,0.0,0.0,0.0,0.0,0.0,0.0,0.0,0.0,0.0,0.0,0.0,0.0,0.0,0.0,0.0,0.0,0.0,0.0,0.0,0.0,0.0,0.0,0.0,0.0,0.0,0.0,0.0,0.0,0.0,0.0,0.0,0.0,0.0,0.0,0.0,0.0,0.0,-3.8482,-3.8223,-3.6241,0.0,0.0,0.0,0.0,0.0,0.0,-3.2385,-3.2358,0.0,0.0,0.0,0.0,0.0,0.0,0.0,0.0,0.0,0.0,0.0,0.0,0.0,0.0,0.0,0.0,0.0,0.0,0.0,0.0,0.0,0.0,0.0,0.0,0.0,0.0,0.0,0.0,0.0,0.0,0.0,0.0,0.0,0.0,0.0,0.0,0.0,0.0,0.0,0.0,0.0,0.0,0.0,0.0,0.0,0.0,0.0,0.0,0.0,0.0,0.0,0.0,0.0,0.0,0.0,-3.5755,-3.9195,-4.1706,-4.3087,-4.2123,-4.1496,-4.1329,-3.6742,-3.4228,0.0,0.0,0.0,0.0,0.0,0.0,0.0,0.0,0.0,0.0,0.0,0.0,0.0,0.0,0.0,0.0,0.0,0.0,0.0,0.0,0.0,0.0,0.0,0.0,0.0,0.0,0.0,0.0,0.0,0.0,0.0,0.0,0.0,0.0,0.0,0.0,0.0,0.0,0.0,0.0,0.0,-3.9341,-3.7597,-3.771,0.0,0.0,0.0,0.0,-3.472,-3.4535,0.0,0.0,0.0,0.0,0.0,0.0,0.0,0.0,0.0,0.0,0.0,0.0,0.0,0.0,0.0,0.0,0.0,0.0,0.0,0.0,0.0,0.0,0.0,0.0,0.0,0.0,0.0,0.0,0.0,0.0,0.0,0.0,0.0,0.0,0.0,0.0,0.0,0.0,0.0,0.0,0.0,0.0,0.0,0.0,0.0,0.0,0.0,0.0,0.0,0.0,0.0,0.0,0.0,0.0,0.0,0.0,-3.6207,-3.8642,-4.1128,-4.345,-4.268,-4.1995,-4.1377,-3.8663,-3.6135,0.0,0.0,0.0,0.0,0.0,0.0,0.0,0.0,0.0,0.0,0.0,0.0,0.0,0.0,0.0,0.0,0.0,0.0,0.0,0.0,0.0,0.0,0.0,0.0,0.0,0.0,0.0,0.0,0.0,0.0,0.0,0.0,0.0,0.0,0.0,0.0,0.0,0.0,0.0,0.0,0.0,-4.108,-3.8312,-3.9411,-3.9814,0.0,0.0,-3.7504,-3.9201,-3.9272,0.0,0.0,0.0,0.0,0.0,0.0,0.0,0.0,0.0,0.0,0.0,0.0,0.0,0.0,0.0,0.0,0.0,0.0,0.0,0.0,0.0,0.0,0.0,0.0,0.0,0.0,0.0,0.0,0.0,0.0,0.0,0.0,0.0,0.0,0.0,0.0,0.0,0.0,0.0,0.0,0.0,0.0,0.0,0.0,0.0,0.0,0.0,0.0,0.0,0.0,0.0,0.0,0.0,0.0,0.0,-3.3445,-3.6358,-3.9471,-4.2108,-4.4166,-4.377,-4.3536,-4.3174,-3.9753,-3.6943,0.0,0.0,0.0,0.0,0.0,0.0,0.0,0.0,0.0,0.0,0.0,0.0,0.0,0.0,0.0,0.0,0.0,0.0,0.0,0.0,0.0,0.0,0.0,0.0,0.0,0.0,0.0,0.0,0.0,0.0,0.0,0.0,0.0,0.0,0.0,0.0,0.0,0.0,0.0,0.0,0.0,0.0,-4.0213,-4.1661,0.0,0.0,0.0,-4.0678,-4.1366,0.0,0.0,0.0,0.0,0.0,0.0,0.0,0.0,0.0,0.0,0.0,0.0,0.0,0.0,0.0,0.0,0.0,0.0,0.0,0.0,0.0,0.0,0.0,0.0,0.0,0.0,0.0,0.0,0.0,0.0,0.0,0.0,0.0,0.0,0.0,0.0,0.0,0.0,0.0,0.0,0.0,0.0,0.0,0.0,0.0,0.0,0.0,0.0,0.0,0.0,0.0,0.0,0.0,0.0,0.0,0.0,0.0,-3.6383,-4.0325,-4.3087,-4.4568,-4.4895,-4.492,-4.4593,-4.1114,0.0,0.0,0.0,0.0,0.0,0.0,0.0,0.0,0.0,0.0,0.0,0.0,0.0,0.0,0.0,0.0,0.0,0.0,0.0,0.0,0.0,0.0,0.0,0.0,0.0,0.0,0.0,-2.6701,0.0,0.0,0.0,0.0,0.0,0.0,0.0,0.0,0.0,0.0,0.0,0.0,0.0,0.0,-4.19,-4.2485,-4.3856,-4.4466,0.0,0.0,-4.3793,-4.3877,-4.3543,-4.2532,0.0,0.0,0.0,0.0,0.0,0.0,0.0,0.0,0.0,0.0,0.0,0.0,0.0,0.0,0.0,0.0,0.0,0.0,0.0,0.0,0.0,0.0,0.0,0.0,0.0,0.0,0.0,0.0,0.0,0.0,0.0,0.0,0.0,0.0,0.0,0.0,0.0,0.0,0.0,0.0,0.0,0.0,0.0,0.0,0.0,0.0,0.0,0.0,0.0,0.0,0.0,0.0,0.0,0.0,0.0,-3.6458,-4.0701,-4.3463,-4.4618,-4.5648,-4.5698,-4.4644,-4.3275,-4.0595,0.0,0.0,0.0,0.0,0.0,0.0,0.0,0.0,0.0,0.0,0.0,0.0,0.0,0.0,0.0,0.0,0.0,0.0,0.0,0.0,0.0,0.0,0.0,0.0,0.0,0.0,0.0,0.0,0.0,0.0,0.0,0.0,0.0,0.0,0.0,0.0,0.0,0.0,0.0,0.0,0.0,-4.3,-4.4803,-4.5669,-4.683,0.0,0.0,-4.7193,-4.7788,-4.779,-4.6326,-4.1983,0.0,0.0,0.0,0.0,0.0,0.0,0.0,0.0,0.0,0.0,0.0,0.0,0.0,0.0,0.0,0.0,0.0,0.0,0.0,0.0,0.0,0.0,0.0,0.0,0.0,0.0,0.0,0.0,0.0,0.0,0.0,0.0,0.0,0.0,0.0,0.0,0.0,0.0,0.0,0.0,0.0,0.0,0.0,0.0,0.0,0.0,0.0,0.0,0.0,0.0,0.0,0.0,0.0,-3.4148,-3.6383,-4.04,-4.3162,-4.4543,-4.4719,-4.4719,-4.4618,-4.2911,-4.0199,0.0,0.0,0.0,0.0,0.0,0.0,0.0,0.0,0.0,0.0,0.0,0.0,0.0,0.0,0.0,0.0,0.0,0.0,0.0,0.0,0.0,0.0,0.0,0.0,0.0,0.0,0.0,0.0,-2.9034,-2.8639,-2.9468,0.0,0.0,0.0,0.0,0.0,0.0,0.0,0.0,0.0,0.0,-4.4287,-4.6262,-4.71,0.0,0.0,-4.8237,-4.7848,-4.7698,-4.698,-4.5304,-4.1923,-3.9918,0.0,0.0,0.0,0.0,0.0,0.0,0.0,0.0,0.0,0.0,0.0,0.0,0.0,0.0,0.0,0.0,0.0,0.0,0.0,0.0,0.0,0.0,0.0,0.0,0.0,0.0,0.0,0.0,0.0,0.0,0.0,0.0,0.0,0.0,0.0,0.0,0.0,0.0,0.0,0.0,0.0,0.0,0.0,0.0,0.0,0.0,0.0,0.0,0.0,0.0,0.0,0.0,-3.4324,-3.6358,-4.0174,-4.2861,-4.4342,-4.4166,-4.4141,-4.4317,-4.2559,-4.0174,0.0,0.0,0.0,0.0,0.0,0.0,0.0,0.0,0.0,0.0,0.0,0.0,0.0,0.0,0.0,0.0,0.0,0.0,0.0,0.0,0.0,0.0,0.0,0.0,0.0,0.0,0.0,0.0,-3.0596,-3.0335,-3.0214,0.0,0.0,0.0,0.0,0.0,0.0,0.0,0.0,0.0,0.0,-4.5125,-4.7279,-4.7818,-4.8147,-4.8506,-4.8416,-4.8117,-4.7668,-4.698,-4.5454,-4.2462,0.0,0.0,0.0,0.0,0.0,0.0,0.0,0.0,0.0,0.0,0.0,0.0,0.0,0.0,0.0,0.0,0.0,0.0,0.0,0.0,0.0,0.0,0.0,0.0,0.0,0.0,0.0,0.0,0.0,0.0,-2.2559,0.0,0.0,0.0,0.0,0.0,0.0,0.0,0.0,0.0,0.0,0.0,0.0,0.0,0.0,0.0,0.0,0.0,0.0,0.0,0.0,0.0,0.0,-3.47,-3.6383,-4.0149,-4.2685,-4.379,-4.4317,-4.4292,-4.379,-4.271,-4.1053,-3.8793,0.0,0.0,0.0,0.0,0.0,0.0,0.0,0.0,0.0,0.0,0.0,0.0,0.0,0.0,0.0,0.0,0.0,0.0,0.0,0.0,0.0,0.0,0.0,0.0,0.0,0.0,-3.1557,-3.2393,-3.27,0.0,0.0,0.0,0.0,0.0,0.0,0.0,0.0,0.0,0.0,-4.3479,-4.5274,-4.7878,-4.7728,-4.7818,-4.9015,-4.8686,-4.8267,-4.8237,-4.8686,-4.7848,0.0,0.0,0.0,0.0,0.0,0.0,0.0,0.0,0.0,0.0,0.0,0.0,0.0,0.0,0.0,0.0,0.0,0.0,0.0,0.0,0.0,0.0,0.0,0.0,0.0,0.0,0.0,-2.5801,-2.4902,0.0,0.0,0.0,0.0,0.0,0.0,0.0,0.0,0.0,0.0,0.0,-3.0289,-3.2678,0.0,0.0,0.0,0.0,0.0,0.0,0.0,0.0,0.0,0.0,0.0,0.0,-3.4901,-3.6935,-3.9647,-4.1781,-4.3187,-4.271,-4.2534,-4.2685,-4.163,-3.9848,-3.7287,0.0,0.0,0.0,0.0,0.0,0.0,0.0,0.0,0.0,0.0,0.0,0.0,0.0,0.0,0.0,0.0,0.0,0.0,0.0,0.0,0.0,0.0,0.0,0.0,0.0,-3.1696,0.0,0.0,0.0,0.0,0.0,0.0,0.0,0.0,0.0,0.0,0.0,-4.0965,-4.3359,-4.5574,-4.7279,-4.8147,-4.8087,-4.8117,0.0,0.0,0.0,0.0,0.0,0.0,0.0,0.0,0.0,0.0,0.0,0.0,0.0,0.0,-4.3976,-4.1749,-4.0543,-3.9994,-4.0283,0.0,0.0,0.0,0.0,0.0,0.0,0.0,0.0,0.0,0.0,0.0,0.0,0.0,0.0,-2.75,0.0,-2.6543,0.0,0.0,0.0,0.0,0.0,0.0,0.0,0.0,-2.9704,-3.1801,-3.3061,-3.5422,-3.6638,0.0,-3.7086,-3.5579,0.0,0.0,0.0,0.0,0.0,0.0,0.0,0.0,-3.5755,-3.7764,-3.9772,-4.1404,-4.2585,-4.1806,-4.153,-4.1831,-4.1003,-3.9371,-3.701,-3.5378,-3.3822,0.0,0.0,0.0,0.0,0.0,0.0,0.0,0.0,0.0,0.0,0.0,0.0,0.0,0.0,0.0,0.0,0.0,0.0,0.0,0.0,0.0,0.0,0.0,-3.2033,0.0,0.0,0.0,0.0,0.0,0.0,0.0,0.0,0.0,-3.8811,-4.1085,-4.3569,-4.5753,-4.7339,-4.8356,-4.8596,0.0,0.0,0.0,0.0,0.0,0.0,0.0,-4.701,-4.701,-4.6629,-4.5961,-4.5092,-4.5556,-4.5853,-4.5318,0.0,0.0,-4.4974,-4.3981,-4.3654,-4.4334,-4.4983,-4.5434,-4.5434,-4.619,-4.6946,0.0,0.0,0.0,0.0,0.0,0.0,0.0,0.0,-2.8398,-2.8769,0.0,-2.8184,0.0,0.0,0.0,0.0,0.0,-2.7129,0.0,0.0,-3.2189,-3.4204,-3.5378,-3.7107,-3.8273,-3.8918,-3.9869,-3.9243,-3.7211,-3.5177,0.0,0.0,0.0,0.0,0.0,0.0,-3.7236,-3.8868,-4.045,-4.1555,-4.2057,-4.1555,-4.1279,-4.1254,-4.0777,-3.9722,-3.814,-3.7487,-3.6232,-3.4098,-3.1888,0.0,0.0,0.0,0.0,0.0,0.0,0.0,0.0,0.0,0.0,0.0,0.0,0.0,0.0,0.0,0.0,0.0,0.0,0.0,0.0,-3.2745,0.0,0.0,0.0,0.0,0.0,0.0,0.0,0.0,0.0,0.0,-4.1743,-4.3808,-4.6352,-4.8895,0.0,0.0,0.0,0.0,-4.8327,-4.8327,-4.8865,-4.9254,-4.9284,-4.9763,-4.9733,-4.8566,0.0,0.0,-4.8351,-4.7599,-4.7243,-4.7044,-4.7903,-4.9085,-5.0055,-4.8499,-4.778,-4.9622,-4.9486,-4.9159,-4.9221,-5.0109,-5.102,-3.3926,0.0,0.0,0.0,0.0,-3.1406,-3.1953,-3.2695,-3.2812,-3.2246,-3.1211,-3.0664,0.0,0.0,0.0,0.0,0.0,0.0,-2.9648,-3.0878,-3.2847,-3.4255,-3.5232,-3.6518,-3.7734,-3.8924,-3.9346,-3.9545,-3.9597,-3.932,-3.7161,-3.3269,0.0,0.0,0.0,0.0,-3.8165,-3.9421,-4.0325,-4.0827,-4.0978,-4.045,-4.0174,-4.0174,-4.0023,-3.9697,-3.922,-3.8693,-3.7713,-3.6282,-3.4148,0.0,0.0,0.0,0.0,0.0,0.0,0.0,0.0,0.0,0.0,0.0,0.0,0.0,0.0,0.0,0.0,0.0,0.0,0.0,-3.2966,-3.3676,-3.4337,0.0,0.0,0.0,0.0,0.0,0.0,0.0,0.0,0.0,-4.6292,-4.695,-4.8057,0.0,0.0,-4.9583,-4.9314,-4.9105,-4.8985,-4.8985,-4.9134,0.0,0.0,-4.9733,-4.9733,-5.0272,-5.0577,-5.0093,-4.8444,-4.8076,-4.7812,-4.7289,-4.7509,-4.8292,-4.9987,-5.0512,-5.0955,-5.2201,-5.2302,-5.2232,-5.2266,-5.2604,-5.2841,-3.6797,-3.5312,-3.3535,-3.3086,-3.3555,-3.375,-3.4258,-3.4961,-3.4766,-3.4316,-3.3652,-3.2871,-3.1719,-3.0293,-2.9785,0.0,0.0,0.0,-3.1211,-3.2266,-3.3015,-3.4036,-3.5092,-3.5596,-3.6747,-3.8579,-3.8713,-3.9455,-4.0827,-4.0953,-3.9396,-3.6307,0.0,0.0,-3.6433,-3.8115,-3.9546,-4.0626,-4.1003,-4.1053,-4.0852,-4.0099,-3.9697,-3.9697,-3.9471,-3.9471,-3.9672,-3.917,-3.8442,-3.7538,-3.583,-3.3771,0.0,0.0,0.0,0.0,0.0,0.0,0.0,0.0,0.0,0.0,0.0,-3.2048,0.0,0.0,0.0,0.0,-3.3006,-3.4382,-3.5729,-3.6447,0.0,0.0,0.0,0.0,0.0,0.0,0.0,-4.4766,-4.7459,-4.9404,-4.9793,-4.9853,-5.0122,-5.093,-5.0571,-5.0182,-5.0062,0.0,-4.9643,-4.9643,-4.9853,-5.0182,-5.0571,-5.0301,-5.0242,-5.075,-5.0301,-4.9523,-4.8506,-4.8087,-4.7758,-4.7429,-4.7309,-4.7782,-4.9474,-5.058,-5.1776,-5.3179,-5.3518,-5.3518,-5.3518,-5.3518,-5.3518,-3.9023,-3.8476,-3.6074,-3.5019,-3.5,-3.5449,-3.5625,-3.5566,-3.5117,-3.5351,-3.5957,-3.4746,-3.3926,-3.3457,-3.2266,0.0,-3.2363,-3.2305,-3.2695,-3.3457,-3.3027,-3.3534,-3.4793,-3.4435,-3.5561,-3.7887,-3.802,-3.9177,-4.1121,-4.0802,-4.03,-3.9772,-3.9798,-3.9521,-3.9019,-4.0023,-4.1078,-4.2057,-4.2082,-4.1781,-4.1204,-4.0224,-3.9672,-3.9622,-3.9145,-3.9069,-3.9446,-3.9019,-3.8467,-3.7889,-3.6835,-3.5052,-3.2441,0.0,0.0,0.0,0.0,0.0,0.0,0.0,0.0,0.0,0.0,0.0,0.0,0.0,0.0,0.0,-3.6118,0.0,-3.9379,-4.0127,0.0,0.0,0.0,-4.1833,-4.1983,-4.5274,-4.7549,-4.7608,0.0,0.0,-5.2187,-5.2187,-5.2187,-5.2127,-5.1079,-5.0541,-5.1139,-5.069,-5.0301,-5.0331,-5.078,-5.1109,-5.099,-5.09,-5.0631,-5.0092,-4.9583,-4.8955,-4.8297,-4.7758,-4.7339,-4.7309,-4.7309,-4.7722,-4.8758,-4.9859,-5.1038,-5.311,-5.3416,-5.3348,-5.328,-5.328,-5.328,-3.9668,-3.9492,-3.8535,-3.7754,-3.7187,-3.7637,-3.7617,-3.7285,-3.6855,-3.6621,-3.6445,-3.5508,-3.4824,-3.4355,-3.375,-3.3691,-3.4062,-3.3418,-3.3418,-3.3867,-3.3476,-3.3211,-3.3248,-3.2953,-3.3997,-3.6364,-3.6587,-3.7981,-4.0621,-4.1003,-4.0877,-4.0375,-4.0727,-4.0475,-3.9572,-4.0601,-4.1279,-4.153,-4.153,-4.1053,-4.0124,-3.9823,-3.9496,-3.9069,-3.8944,-3.8517,-3.7814,-3.7663,-3.7337,-3.6759,-3.5705,-3.4625,-3.3545,-3.0357,0.0,0.0,0.0,0.0,0.0,0.0,0.0,0.0,0.0,-3.4292,-3.0791,0.0,-3.525,0.0,-3.8153,-3.9828,-4.0127,-4.1205,0.0,0.0,-4.4736,-4.5753,-4.7219,-4.8656,-4.9733,-5.0242,-5.1409,-5.2187,-5.2187,-5.2187,-5.2007,-5.1528,-5.1199,-5.105,-5.1199,-5.1109,-5.099,-5.096,-5.072,-5.0481,-5.0481,-5.0032,-4.9553,-4.8865,-4.8626,-4.8297,-4.7638,-4.7399,-4.7309,-4.7309,-4.7309,-4.7989,-4.9652,-5.0254,-5.1102,-5.2939,-5.287,-5.2312,-5.2312,-5.2312,-5.2312,-4.0078,-3.9883,-3.9824,-3.9297,-3.8496,-3.8555,-3.834,-3.7891,-3.748,-3.707,-3.6621,-3.5762,-3.5254,-3.498,-3.4551,-3.4473,-3.4648,-3.4004,-3.373,-3.375,-3.334,-3.291,-3.25,-3.207,-3.3008,-3.4875,-3.5468,-3.7043,-3.9472,-4.0234,-4.0576,-4.0526,-4.0576,-4.0425,-4.0124,-4.0902,-4.1329,-4.1329,-4.1103,-4.0676,-4.0074,-3.9823,-3.9446,-3.8894,-3.8868,-3.8442,-3.7588,-3.7312,-3.681,-3.6031,-3.5177,-3.4248,-3.3169,-3.0959,-2.9428,0.0,0.0,0.0,0.0,0.0,0.0,0.0,0.0,0.0,0.0,0.0,-3.7644,0.0,-4.1055,-4.2701,-4.3,-4.4496,-4.5873,-4.695,-4.7668,-4.8506,-4.9583,-5.0541,-5.1259,-5.1618,-5.2247,-5.2516,-5.2247,-5.2187,-5.1947,-5.1319,-5.1229,-5.1229,-5.1229,-5.1229,-5.1229,-5.1199,-5.09,-5.0571,-5.0301,-4.9703,-4.9045,-4.8446,-4.8297,-4.8057,-4.7429,-4.7309,-4.7309,-4.7309,-4.7309,-4.7575,-4.8845,-4.9399,-5.0237,-5.1512,-5.1669,-5.1671,-5.2383,-5.2627,-5.2627,-4.0351,-4.0,-4.0312,-3.9961,-3.916,-3.875,-3.832,-3.7891,-3.748,-3.6992,-3.6465,-3.5723,-3.5351,-3.5273,-3.4824,-3.4629,-3.459,-3.418,-3.375,-3.332,-3.2969,-3.2539,-3.207,-3.1699,-3.2273,-3.3644,-3.4712,-3.6283,-3.8227,-3.9247,-3.9948,-4.0375,-3.9948,-3.9923,-4.04,-4.0877,-4.1178,-4.1229,-4.0701,-4.04,-4.04,-3.9948,-3.9396,-3.8793,-3.8693,-3.8316,-3.7613,-3.7211,-3.6458,-3.5403,-3.5002,-3.4098,-3.2516,-3.1461,-3.0658,0.0,-2.9574,0.0,0.0,0.0,0.0,0.0,0.0,0.0,0.0,-3.9918,-4.0576,-4.1534,-4.4077,-4.5903,-4.6411,-4.8207,-4.9404,-4.9404,-5.0032,-5.0451,-5.0421,-5.1468,-5.2187,-5.2187,-5.2636,-5.2725,-5.2276,-5.2127,-5.1828,-5.1349,-5.1229,-5.1169,-5.1079,-5.105,-5.105,-5.1079,-5.096,-5.0361,-4.9912,-4.9374,-4.8745,-4.8267,-4.8117,-4.7967,-4.7399,-4.7309,-4.7309,-4.7309,-4.7309,-4.7369,-4.7486,-4.8332,-4.9142,-5.0334,-5.0635,-5.1229,-5.2661,-5.311,-5.328,-4.0801,-4.0391,-4.0117,-3.9707,-3.916,-3.875,-3.834,-3.7891,-3.748,-3.668,-3.5644,-3.5469,-3.5176,-3.4805,-3.4394,-3.4199,-3.416,-3.375,-3.332,-3.291,-3.2832,-3.2383,-3.166,-3.1562,-3.2113,-3.3224,-3.467,-3.61,-3.7619,-3.9074,-3.9747,-3.9848,-3.9747,-3.9747,-3.9848,0.0,0.0,0.0,-4.0124,-3.9848,-3.9848,-3.9747,-3.9195,-3.8216,-3.7739,0.0,-3.5454,-3.568,-3.5353,-3.4324,-3.4951,0.0,0.0,0.0,0.0,0.0,0.0,0.0,0.0,0.0,0.0,0.0,-3.7978,-3.8695,-4.0085,-4.2641,-4.3838,-4.315,-4.5843,-4.7549,-4.7189,-4.8895,-5.0062,-5.0092,-5.1109,-5.1618,-5.1139,-5.1708,-5.2187,-5.2187,-5.1858,-5.1768,-5.2067,-5.1738,-5.1349,-5.1169,-5.1229,-5.099,-5.0481,-5.0421,-5.0421,-5.0361,-4.9643,-4.8895,-4.8656,-4.8147,-4.7758,-4.7489,-4.7489,-4.7459,-4.7339,-4.7309,-4.7309,-4.7309,-4.7309,-4.7546,-4.8313,-4.8661,-4.9058,-5.0144,-5.1051,-5.1776,-5.2065,-5.2241,-5.2241,-4.0918,0.0,-4.0293,-3.9824,0.0,-3.8965,-3.8398,-3.7598,-3.7383,-3.6582,-3.5391,-3.5156,-3.4805,-3.4375,-3.3945,-3.375,-3.373,-3.3516,-3.3086,-3.25,-3.248,-3.2031,-3.1211,-3.1211,-3.1426,-3.2092,-3.4202,-3.5727,-3.6487,-3.8582,-3.9697,-3.9697,-3.9697,-3.9697,-3.9697,-3.9697,-3.9823,-4.0099,-3.9848,-3.9697,-3.9697,-3.9697,-3.9295,-3.8467,0.0,0.0,0.0,0.0,0.0,0.0,0.0,0.0,0.0,0.0,0.0,-3.4248,-3.3997,-3.3972,-3.4248,-3.529,-3.7153,-3.9825,-4.1931,-4.2986,-4.2832,-4.4646,-4.5663,-4.5394,-4.7429,-4.8506,-4.7908,-4.9284,-5.0242,-5.0272,-5.084,-5.1199,-5.1259,-5.1498,-5.1708,-5.1648,-5.1139,-5.087,-5.1169,-5.0661,-5.0272,-5.0242,-5.0242,-5.0152,-4.9853,-5.0032,-5.0152,-4.9823,-4.8955,-4.8327,-4.8237,-4.7728,-4.7309,-4.7309,-4.7309,-4.7309,-4.7309,-4.7309,-4.7309,-4.7309,-4.7309,-4.7516,-4.7899,-4.8031,-4.8377,-4.9426,-5.042,-5.1336,-5.1776,-5.2312,-5.2697,-4.0879,-4.041,-4.041,-3.9902,-3.9082,-3.9082,-3.8398,-3.7285,0.0,0.0,0.0,-3.4863,-3.4414,-3.3945,-3.3574,-3.3418,-3.3418,-3.3418,-3.3008,-3.2285,-3.2207,-3.1738,-3.1016,-3.0918,-3.0898,-3.0995,-3.3866,-3.5288,-3.5398,-3.8267,-3.9697,-3.9697,-3.9697,-3.9697,-3.9697,-3.9697,-3.9697,-3.9697,-3.9697,-3.9697,-3.9697,-3.9697,-3.9421,-3.8894,-3.9195,-3.8919,-3.7914,-3.7965,-3.7337,-3.5931,-3.5579,-3.5353,-3.5177,-3.5253,-3.5855,-3.7061,-3.7287,-3.7362,-3.7487,-3.8839,-4.0346,-4.1957,-4.4873,-4.6369,-4.5639,-4.6172,-4.6711,-4.7249,-4.8386,-4.8865,-4.8356,-4.9344,-5.0062,-5.0062,-5.0062,-5.0301,-5.078,-5.099,-5.099,-5.084,-5.0511,-5.0182,-5.0092,-4.9673,-4.9254,-4.9284,-4.9374,-4.9194,-4.9194,-4.9494,-4.9613,-4.9134,-4.8476,-4.8117,-4.8177,-4.7728,-4.7339,-4.7309,-4.7309,-4.7309,-4.7309,-4.7309,-4.7309,-4.7309,-4.7309,-4.7309,-4.7309,-4.7538,-4.786,-4.8627,-4.9833,-5.093,-5.1776,-5.28,-5.3416,-4.0723,-3.998,-3.998,-3.9473,-3.8672,-3.8652,-3.8144,-3.7246,-3.6523,-3.5664,-3.4805,-3.4726,-3.4258,-3.3516,-3.3437,-3.3418,-3.3418,-3.3418,-3.3164,0.0,-3.2344,-3.1914,-3.1426,-3.1055,-3.0898,-3.1112,-3.3866,-3.5288,-3.5617,-3.8267,-3.9697,-3.9697,-3.9697,-3.9697,-3.9697,-3.9697,-3.9697,-3.9697,-3.9697,-3.9697,-3.9697,-3.9697,-3.9421,-3.8894,-3.8492,-3.7965,-3.7337,-3.7789,-3.7688,-3.701,-3.7814,-3.7864,-3.6935,-3.7262,-3.7437,-3.7236,-3.7638,-3.8115,-3.8592,-3.8894,-4.0265,-4.2916,-4.377,-4.4847,-4.6867,-4.71,-4.7219,-4.7339,-4.8027,-4.8386,-4.8327,-4.8955,-4.9404,-4.9404,-4.9404,-4.9434,-4.9613,-5.0092,-5.0212,-4.9703,-5.0002,-4.9972,-4.9494,-4.9284,-4.9134,-4.9224,-4.9045,-4.9015,-4.8566,-4.8506,-4.8536,-4.8386,-4.7878,-4.7728,-4.7997,-4.7728,-4.7369,-4.7309,-4.7309,-4.7309,-4.7309,-4.7309,-4.7309,-4.7309,-4.7309,-4.7309,-4.7309,-4.8072,-4.8346,-4.8759,-5.0101,-5.1525,-5.1776,-5.2697,-5.345,-4.0684,-3.9961,-4.0137,-3.959,-3.8555,-3.832,-3.8008,-3.7598,-3.6992,-3.5937,-3.4746,-3.4687,-3.4219,-3.3437,-3.3418,-3.3418,-3.3418,-3.3418,-3.3203,-3.2773,-3.2363,-3.1934,-3.1504,-3.1094,-3.0898,-3.1112,-3.3098,-3.4515,-3.5398,-3.7477,-3.8921,-3.9697,-3.9697,-3.9697,-3.9697,-3.9697,-3.9697,-3.9697,-3.9697,-3.9697,-3.9697,-3.9697,-3.9572,-3.932,-3.9044,-3.8818,-3.8567,-3.8793,-3.8668,-3.8115,-3.8592,-3.8642,-3.814,-3.8341,-3.8492,-3.8542,-3.8793,-3.9044,-3.9295,-3.998,-4.1229,-4.3286,-4.4163,-4.5298,-4.7106,-4.7309,-4.7309,-4.7339,-4.7908,-4.8147,-4.7818,-4.8356,-4.8745,-4.8745,-4.8745,-4.8895,-4.9254,-4.9823,-4.9972,-4.9404,-4.9523,-4.9464,-4.8835,-4.8416,-4.8207,-4.8207,-4.8207,-4.8087,-4.7818,-4.7758,-4.7758,-4.7728,-4.7489,-4.7429,-4.7698,-4.7519,-4.7339,-4.7309,-4.7309,-4.7309,-4.7309,-4.7309,-4.7309,-4.7309,-4.7309,-4.7309,-4.7309,-4.7593,-4.7927,-4.8201,-4.9679,-5.0855,-5.1229,-5.2345,-5.3416,-4.0723,-4.0078,-4.0391,-3.9824,-3.8711,-3.8359,-3.8105,-3.7891,-3.748,-3.6426,-3.5098,-3.4902,-3.4375,-3.3594,-3.3476,-3.3418,-3.3418,-3.3418,-3.3242,-3.291,-3.2402,-3.1992,-3.1641,-3.1133,-3.0898,-3.1132,-3.2518,-3.3791,-3.5024,-3.6874,-3.8534,-3.9769,-3.9772,-3.9697,-3.9697,-3.9697,-3.9697,-3.9697,-3.9697,-3.9697,-3.9697,-3.9697,-3.9697,-3.9697,-3.9697,-3.9697,-3.9697,-3.9697,-3.9496,-3.9094,-3.9069,-3.9069,-3.9044,-3.9044,-3.9245,-3.9647,-3.9697,-3.9697,-3.98,-4.0844,-4.2181,-4.3409,-4.4627,-4.5958,-4.7106,-4.7309,-4.7309,-4.7369,-4.7758,-4.7818,-4.7489,-4.7758,-4.8087,-4.8057,-4.8057,-4.8237,-4.8775,-4.9404,-4.9553,-4.8955,-4.8925,-4.8805,-4.8147,-4.7638,-4.7399,-4.7399,-4.7309,-4.7309,-4.7309,-4.7309,-4.7309,-4.7309,-4.7309,-4.7309,-4.7309,-4.7309,-4.7309,-4.7309,-4.7309,-4.7309,-4.7309,-4.7309,-4.7309,-4.7309,-4.7309,-4.7309,-4.7309,-4.7624,-4.7673,-4.7745,-4.919,-5.0574,-5.0823,-5.1984,-5.3247,-4.0898,-4.0508,-4.0508,-4.0,-3.9199,-3.9101,-3.8652,-3.7949,-3.75,-3.6777,-3.5937,-3.5508,-3.4844,-3.4023,-3.3613,-3.3437,-3.3418,-3.3418,-3.3398,-3.3262,-3.2539,-3.2148,-3.2051,-3.1289,-3.0898,-3.1191,-3.2731,-3.3801,-3.4282,-3.7242,-3.9298,-4.0215,-3.9948,-3.9697,-3.9697,-3.9697,-3.9697,-3.9697,-3.9697,-3.9697,-3.9697,-3.9697,-3.9697,-3.9697,-3.9697,-3.9697,-3.9697,-3.9697,-3.9672,-3.9622,-3.9597,-3.9622,-3.9597,-3.9622,-3.9647,-3.9697,-3.9697,-3.9697,-3.98,-4.0945,-4.2181,-4.3409,-4.472,-4.5958,-4.7106,-4.7309,-4.7309,-4.7339,-4.7369,-4.7399,-4.7309,-4.7399,-4.7459,-4.7489,-4.7459,-4.7429,-4.7638,-4.8057,-4.8207,-4.7578,-4.8117,-4.8147,-4.7608,-4.7369,-4.7309,-4.7309,-4.7309,-4.7309,-4.7309,-4.7309,-4.7309,-4.7309,-4.7309,-4.7309,-4.7309,-4.7309,-4.7309,-4.7309,-4.7309,-4.7309,-4.7309,-4.7309,-4.7309,-4.7309,-4.7309,-4.7309,-4.7452,-4.7873,-4.8296,-4.7835,-4.9011,-5.0735,-5.1061,-5.1764,-5.257,-4.0918,-4.0566,-4.0801,-4.0566,-4.0,-3.9726,-3.9258,-3.8691,-3.8496,-3.7949,-3.7109,-3.6445,-3.5391,-3.4082,-3.3887,-3.3672,-3.3437,-3.3418,-3.3418,-3.3379,-3.2812,-3.2539,-3.248,-3.1953,-3.166,-3.176,-3.3402,-3.4614,-3.5905,-3.8706,-4.036,-4.0445,-4.0275,-4.0023,-3.9722,-3.9697,-3.9697,-3.9697,-3.9697,-3.9697,-3.9697,-3.9697,-3.9697,-3.9697,-3.9697,-3.9697,-3.9697,-3.9697,-3.9697,-3.9697,-3.9697,-3.9697,-3.9697,-3.9697,-3.9697,-3.9697,-3.9697,-4.0083,-4.0743,-4.1319,-4.2447,-4.4442,-4.5115,-4.5958,-4.7135,-4.7309,-4.7309,-4.7309,-4.7309,-4.7309,-4.7309,-4.7309,-4.7309,-4.7309,-4.7309,-4.7309,-4.7309,-4.7878,-4.8027,-4.7459,-4.7878,-4.8027,-4.7489,-4.7309,-4.7309,-4.7309,-4.7309,-4.7309,-4.7309,-4.7309,-4.7309,-4.7309,-4.7309,-4.7309,-4.7309,-4.7309,-4.7309,-4.7309,-4.7309,-4.7309,-4.7309,-4.7309,-4.7309,-4.7309,-4.7249,-4.7279,-4.7309,-4.7508,-4.7722,-4.7487,-4.8026,-4.9479,-5.0224,-5.1093,-5.1761,-4.0996,-4.0781,-4.1055,-4.0918,-4.0508,-4.0195,-3.9824,-3.9375,-3.9141,-3.8613,-3.7871,-3.7031,-3.5781,-3.4375,-3.4141,-3.3828,-3.3457,-3.3418,-3.3418,-3.3379,-3.2988,-3.2793,-3.2754,-3.2363,-3.2168,-3.2411,-3.3436,-3.5049,-3.7103,-3.9531,-4.0898,-4.0871,-4.0676,-4.0325,-3.9948,-3.9798,-3.9697,-3.9697,-3.9697,-3.9697,-3.9697,-3.9697,-3.9697,-3.9697,-3.9697,-3.9697,-3.9697,-3.9697,-3.9697,-3.9697,-3.9697,-3.9697,-3.9697,-3.9697,-3.9697,-3.9697,-3.9697,-4.0083,-4.1045,-4.169,-4.293,-4.4656,-4.5417,-4.6255,-4.7106,-4.7309,-4.7309,-4.7309,-4.7309,-4.7309,-4.7309,-4.7309,-4.7309,-4.7309,-4.7309,-4.7309,-4.7339,-4.7758,-4.7818,-4.7429,-4.7698,-4.7848,-4.7429,-4.7309,-4.7309,-4.7309,-4.7309,-4.7309,-4.7309,-4.7309,-4.7309,-4.7309,-4.7309,-4.7309,-4.7309,-4.7309,-4.7309,-4.7309,-4.7309,-4.7309,-4.7309,-4.7309,-4.7309,-4.7309,-4.7189,-4.698,-4.683,-4.686,-4.6786,-4.6507,-4.692,-4.7919,-4.8888,-4.9893,-5.0421,-4.1172,-4.1133,-4.1152,-4.0937,-4.0527,-4.0508,-4.0254,-3.9766,-3.9023,-3.8379,-3.7891,-3.707,-3.5937,-3.4687,-3.4316,-3.3848,-3.3457,-3.3418,-3.3418,-3.3379,-3.3008,-3.2812,-3.2773,-3.2363,-3.2187,-3.2427,-3.3192,-3.5081,-3.8281,-3.9426,-4.0595,-4.2007,-4.1078,-4.0551,-4.0425,-4.0023,-3.9722,-3.9747,-3.9747,-3.9697,-3.9697,-3.9697,-3.9697,-3.9697,-3.9697,-3.9697,-3.9697,-3.9697,-3.9697,-3.9697,-3.9697,-3.9697,-3.9697,-3.9697,-3.9697,-3.9697,-3.9697,-3.98,-4.0185,-4.1985,-4.3409,-4.3975,-4.5779,-4.7193,-4.7222,-4.7309,-4.7309,-4.7309,-4.7309,-4.7309,-4.7309,-4.7309,-4.7309,-4.7309,-4.7309,-4.7309,-4.7309,-4.7369,-4.7369,-4.7309,-4.7399,-4.7429,-4.7309,-4.7309,-4.7309,-4.7309,-4.7309,-4.7309,-4.7309,-4.7309,-4.7309,-4.7309,-4.7309,-4.7309,-4.7309,-4.7309,-4.7309,-4.7309,-4.7309,-4.7309,-4.7309,-4.7309,-4.7309,-4.716,-4.68,-4.6531,-4.6292,-4.604,-4.5686,-4.5563,-4.5526,-4.6326,-4.7655,-4.8327,-4.9028,-4.1172,-4.1172,-4.1172,-4.1074,-4.0937,-4.0937,-4.0547,-3.9883,-3.957,-3.9004,-3.8281,-3.7441,-3.6504,-3.5508,-3.4785,-3.4082,-3.3457,-3.3418,-3.3418,-3.3398,-3.3262,-3.3203,-3.3184,-3.3027,-3.2969,-3.3237,-3.5146,-3.7926,-4.0913,-4.1703,-4.1905,-4.2048,-4.1781,-4.1404,-4.1078,-4.0852,-4.0576,-4.0275,-4.0224,-4.0049,-3.9747,-3.9697,-3.9697,-3.9697,-3.9697,-3.9697,-3.9697,-3.9697,-3.9697,-3.9697,-3.9697,-3.9697,-3.9697,-3.9697,-3.9697,-3.9697,-3.9697,-4.0083,-4.0844,-4.169,-4.3026,-4.4627,-4.5508,-4.655,-4.7106,-4.7309,-4.7309,-4.7309,-4.7309,-4.7309,-4.7309,-4.7309,-4.7309,-4.7309,-4.7309,-4.7309,-4.7309,-4.7309,-4.7309,-4.7309,-4.7309,-4.7309,-4.7309,-4.7309,-4.7309,-4.7309,-4.7309,-4.7309,-4.7309,-4.7309,-4.7309,-4.7309,-4.7309,-4.7309,-4.7309,-4.7309,-4.7309,-4.7309,-4.7309,-4.7309,-4.7309,-4.7309,-4.7309,-4.71,-4.6651,-4.6142,-4.5903,-4.5185,-4.4851,-4.4819,-4.4726,-4.5332,-4.6555,-4.7632,-4.8429,-4.1172,-4.1172,-4.1172,-4.1074,-4.0976,-4.0957,-4.0566,-3.9902,-3.9726,-3.918,-3.834,-3.7598,-3.668,-3.5644,-3.4961,-3.4238,-3.3476,-3.3418,-3.3418,-3.3418,-3.3418,-3.3418,-3.3418,-3.3418,-3.365,-3.4632,-3.7659,-4.041,-4.2061,-4.2912,-4.2936,-4.2459,-4.2258,-4.1982,-4.163,-4.143,-4.1128,-4.0827,-4.0777,-4.0601,-4.0249,-4.0049,-3.9973,-3.9923,-3.9772,-3.9697,-3.9697,-3.9697,-3.9697,-3.9697,-3.9697,-3.9697,-3.9697,-3.9697,-3.9697,-3.9697,-3.9697,-4.0083,-4.0945,-4.1319,-4.2544,-4.4535,-4.5207,-4.6016,-4.7374,-4.7429,-4.7399,-4.7519,-4.7399,-4.7309,-4.7309,-4.7309,-4.7309,-4.7309,-4.7309,-4.7309,-4.7309,-4.7309,-4.7309,-4.7309,-4.7309,-4.7309,-4.7309,-4.7309,-4.7309,-4.7309,-4.7309,-4.7309,-4.7309,-4.7309,-4.7309,-4.7309,-4.7309,-4.7309,-4.7309,-4.7309,-4.7309,-4.7309,-4.7309,-4.7309,-4.7309,-4.7309,-4.716,-4.695,-4.6501,-4.5933,-4.5304,-4.4586,-4.4227,-4.4098,-4.4291,-4.4781,-4.5961,-4.7104,-4.7967,-4.1133,-4.1094,-4.1172,-4.0879,-4.0547,-4.0566,-4.0293,-3.9824,-3.9375,-3.875,-3.7988,-3.7461,-3.6367,-3.5039,-3.4766,-3.4238,-3.3535,-3.3418,-3.3418,-3.3418,-3.3418,-3.3418,-3.3418,-3.3418,-3.4383,-3.5949,-3.9391,-4.0927,-4.1124,-4.2772,-4.3363,-4.2911,-4.2434,-4.2183,-4.2133,-4.1656,-4.1354,-4.1229,-4.1153,-4.1178,-4.1229,-4.0626,-4.035,-4.035,-3.9948,-3.9697,-3.9697,-3.9697,-3.9697,-3.9697,-3.9697,-3.9697,-3.9697,-3.9697,-3.9697,-3.9697,-3.9697,-3.9697,-3.9878,-4.0844,-4.1985,-4.3409,-4.4627,-4.5982,-4.7348,-4.7581,-4.7608,-4.7848,-4.7698,-4.7369,-4.7339,-4.7309,-4.7309,-4.7309,-4.7309,-4.7309,-4.7309,-4.7309,-4.7309,-4.7309,-4.7309,-4.7309,-4.7309,-4.7309,-4.7309,-4.7309,-4.7309,-4.7309,-4.7309,-4.7309,-4.7309,-4.7309,-4.7309,-4.7309,-4.7309,-4.7309,-4.7309,-4.7309,-4.7309,-4.7309,-4.7309,-4.7279,-4.701,-4.6711,-4.5813,-4.5214,-4.4436,-4.3808,-4.3718,-4.3618,-4.3849,-4.4479,-4.5746,-4.6968,-4.7737,-4.0293,-4.0332,-4.0605,-4.0469,-4.0156,-4.0391,-4.0117,-3.9394,-3.8965,-3.8457,-3.7851,-3.7168,-3.623,-3.5293,-3.4844,-3.4219,-3.3457,-3.3418,-3.3418,-3.3418,-3.3418,-3.3418,-3.3418,-3.3418,-3.486,-3.7166,-3.8596,-4.0293,-4.2086,-4.2937,-4.3112,-4.2961,-4.2811,-4.2509,-4.2158,-4.1982,-4.1605,-4.0852,-4.0777,-4.0601,-4.0249,-4.0049,-3.9973,-3.9923,-3.9772,-3.9697,-3.9697,-3.9697,-3.9697,-3.9697,-3.9697,-3.9697,-3.9697,-3.9697,-3.9697,-3.9697,-3.9697,-3.9697,-3.9697,-4.0083,-4.0945,-4.2181,-4.3409,-4.4712,-4.6189,-4.7348,-4.7818,-4.7758,-4.7788,-4.7848,-4.7429,-4.7309,-4.7339,-4.7309,-4.7309,-4.7309,-4.7309,-4.7309,-4.7309,-4.7309,-4.7309,-4.7309,-4.7309,-4.7309,-4.7309,-4.7309,-4.7309,-4.7309,-4.7309,-4.7309,-4.7309,-4.7309,-4.7309,-4.7309,-4.7309,-4.7309,-4.7309,-4.7309,-4.7309,-4.7309,-4.7309,-4.71,-4.68,-4.6142,-4.5244,-4.4466,-4.3658,-4.3329,-4.3329,-4.3645,-4.4082,-4.493,-4.5961,-4.6799,-4.7671,-3.9883,-3.9922,-4.0176,-4.0039,-3.9687,-3.9941,-3.9531,-3.8769,-3.8457,-3.8008,-3.7402,-3.6738,-3.5937,-3.5176,-3.4668,-3.4082,-3.3457,-3.3418,-3.3418,-3.3418,-3.3418,-3.3496,-3.376,-3.4266,-3.5727,-3.7976,-3.9203,-4.0856,-4.2899,-4.3589,-4.3614,-4.3112,-4.3162,-4.2886,-4.2233,-4.2133,-4.1681,-4.0927,-4.0827,-4.0651,-4.0325,-4.0099,-3.9998,-3.9973,-3.9798,-3.9697,-3.9697,-3.9697,-3.9697,-3.9697,-3.9697,-3.9697,-3.9697,-3.9697,-3.9697,-3.9697,-3.9697,-3.9697,-3.9697,-3.98,-4.0541,-4.2084,-4.3026,-4.449,-4.6069,-4.7673,-4.7728,-4.7788,-4.8027,-4.8027,-4.7489,-4.7578,-4.7549,-4.7309,-4.7309,-4.7309,-4.7309,-4.7309,-4.7309,-4.7309,-4.7309,-4.7309,-4.7309,-4.7309,-4.7309,-4.7309,-4.7309,-4.7309,-4.7309,-4.7309,-4.7309,-4.7309,-4.7309,-4.7309,-4.7309,-4.7309,-4.7309,-4.7309,-4.7309,-4.7309,-4.7309,-4.692,-4.6531,-4.5454,-4.4496,-4.4077,-4.3359,-4.3329,-4.3329,-4.3849,-4.4434,-4.5342,-4.6346,-4.7036,-4.7803,-3.9805,-3.9824,-3.9844,-3.959,-3.9199,-3.9258,-3.8828,-3.8047,-3.7891,-3.7461,-3.6758,-3.623,-3.5527,-3.4766,-3.4336,-3.3867,-3.3476,-3.3418,-3.3418,-3.3418,-3.3437,-3.3574,-3.3975,-3.5179,-3.635,-3.8043,-4.0379,-4.1918,-4.2612,-4.4077,-4.4568,-4.3137,-4.3338,-4.3162,-4.2233,-4.2082,-4.1731,-4.1103,-4.1078,-4.1053,-4.1003,-4.0651,-4.04,-4.035,-3.9948,-3.9697,-3.9697,-3.9697,-3.9697,-3.9697,-3.9697,-3.9697,-3.9697,-3.9697,-3.9697,-3.9697,-3.9697,-3.9697,-3.9697,-3.9697,-4.0541,-4.2377,-4.3245,-4.4668,-4.6841,-4.7377,-4.7788,-4.8117,-4.8267,-4.8057,-4.7668,-4.7758,-4.7788,-4.7429,-4.7309,-4.7309,-4.7309,-4.7309,-4.7309,-4.7309,-4.7309,-4.7309,-4.7309,-4.7309,-4.7309,-4.7309,-4.7309,-4.7309,-4.7309,-4.7309,-4.7309,-4.7309,-4.7309,-4.7309,-4.7309,-4.7309,-4.7309,-4.7249,-4.716,-4.698,-4.686,-4.6411,-4.5963,-4.4855,-4.4047,-4.3599,-4.3359,-4.3329,-4.3693,-4.4282,-4.5005,-4.585,-4.6625,-4.7306,-4.7868,-3.8926,-3.8945,-3.9258,-3.9141,-3.8809,-3.9062,-3.8711,-3.793,-3.7578,-3.7148,-3.6562,-3.5879,-3.5234,-3.4687,-3.4258,-3.3828,-3.3496,-3.3418,-3.3418,-3.3418,-3.3418,-3.3457,-3.3652,-3.429,-3.5435,-3.6789,-3.8702,-3.9918,-4.1239,-4.3109,-4.3514,-4.3011,-4.3162,-4.2685,-4.1731,-4.158,-4.1028,-4.0249,-4.0149,-4.0174,-4.0149,-4.0049,-3.9923,-3.9898,-3.9772,-3.9697,-3.9697,-3.9697,-3.9697,-3.9697,-3.9697,-3.9697,-3.9697,-3.9697,-3.9697,-3.9697,-3.9697,-3.9697,-3.9697,-3.9697,-4.0083,-4.0743,-4.2641,-4.3871,-4.4668,-4.6812,-4.7881,-4.8297,-4.8297,-4.8207,-4.7997,-4.7758,-4.7489,-4.7369,-4.7309,-4.7309,-4.7309,-4.7309,-4.7309,-4.7309,-4.7309,-4.7309,-4.7309,-4.7309,-4.7309,-4.7309,-4.7309,-4.7309,-4.7309,-4.7309,-4.7309,-4.7309,-4.7309,-4.7309,-4.7309,-4.7309,-4.7279,-4.7189,-4.692,-4.6441,-4.6082,-4.5544,-4.5065,-4.4347,-4.3838,-4.3389,-4.3329,-4.3329,-4.4004,-4.4812,-4.5153,-4.5706,-4.6831,-4.7671,-4.8096,-3.8574,-3.8574,-3.8652,-3.8516,-3.8301,-3.8379,-3.8027,-3.7441,-3.7148,-3.668,-3.6074,-3.541,-3.4863,-3.4414,-3.3984,-3.3672,-3.3437,-3.3418,-3.3418,-3.3457,-3.3613,-3.3613,-3.3594,-3.3848,-3.5159,-3.7105,-3.8033,-3.9847,-4.1832,-4.3173,-4.3413,-4.3112,-4.3212,-4.2635,-4.143,-4.1304,-4.0802,-3.9923,-3.9697,-3.9697,-3.9697,-3.9697,-3.9697,-3.9697,-3.9697,-3.9697,-3.9697,-3.9697,-3.9697,-3.9697,-3.9697,-3.9697,-3.9697,-3.9697,-3.9697,-3.9697,-3.9697,-3.9697,-3.9697,-3.9697,-4.0262,-4.1219,-4.2834,-4.3975,-4.5173,-4.6904,-4.7878,-4.7848,-4.8117,-4.8117,-4.7878,-4.7519,-4.7339,-4.7309,-4.7309,-4.7309,-4.7309,-4.7309,-4.7309,-4.7309,-4.7309,-4.7309,-4.7309,-4.7309,-4.7309,-4.7309,-4.7309,-4.7309,-4.7309,-4.7309,-4.7309,-4.7309,-4.7309,-4.7309,-4.7279,-4.7249,-4.683,-4.6741,-4.6172,-4.5753,-4.5334,-4.4766,-4.4407,-4.3988,-4.3599,-4.3329,-4.3409,-4.3771,-4.4555,-4.5153,-4.5227,-4.5961,-4.7273,-4.757,-4.8022,-3.8476,-3.8398,-3.8027,-3.7851,-3.7793,-3.7461,-3.7187,-3.6758,-3.6719,-3.623,-3.5488,-3.4922,-3.4531,-3.4043,-3.3711,-3.3418,-3.3418,-3.3418,-3.3418,-3.3516,-3.3691,-3.373,-3.3496,-3.4358,-3.5871,-3.7999,-3.8774,-4.0669,-4.2494,-4.3771,-4.384,-4.3212,-4.3363,-4.276,-4.158,-4.1254,-4.0651,-3.9898,-3.9697,-3.9697,-3.9697,-3.9697,-3.9697,-3.9697,-3.9697,-3.9697,-3.9697,-3.9697,-3.9697,-3.9697,-3.9697,-3.9697,-3.9697,-3.9697,-3.9697,-3.9697,-3.9697,-3.9697,-3.9697,-3.98,-4.0642,-4.2447,-4.3122,-4.4442,-4.6166,-4.7108,-4.7489,-4.7638,-4.7908,-4.7818,-4.7519,-4.7309,-4.7309,-4.7309,-4.7309,-4.7309,-4.7309,-4.7309,-4.7309,-4.7309,-4.7309,-4.7309,-4.7309,-4.7309,-4.7309,-4.7309,-4.7309,-4.7309,-4.7309,-4.7309,-4.7309,-4.7309,-4.7309,-4.7309,-4.7249,-4.7189,-4.6591,-4.6112,-4.5274,-4.4766,-4.4496,-4.4107,-4.3868,-4.3569,-4.3419,-4.3488,-4.3771,-4.4358,-4.5048,-4.5723,-4.6083,-4.7142,-4.8152,-4.7525,-4.7579,-3.7871,-3.7559,-3.748,-3.7422,-3.7422,-3.7324,-3.7051,-3.666,-3.666,-3.6152,-3.543,-3.4902,-3.4453,-3.4023,-3.3613,-3.3418,-3.3418,-3.3418,-3.3418,-3.3437,-3.3496,-3.3516,-3.3875,-3.5078,-3.6373,-3.7776,-3.9373,-4.088,-4.2098,-4.3059,-4.3237,-4.3062,-4.2685,-4.2133,-4.1455,-4.0927,-4.0375,-3.9798,-3.9697,-3.9697,-3.9697,-3.9697,-3.9697,-3.9697,-3.9697,-3.9697,-3.9697,-3.9697,-3.9697,-3.9697,-3.9697,-3.9697,-3.9697,-3.9697,-3.9697,-3.9697,-3.9697,-3.9697,-3.9697,-3.98,-4.0364,-4.1887,-4.3026,-4.4163,-4.557,-4.6814,-4.7461,-4.7818,-4.7758,-4.7519,-4.7339,-4.7309,-4.7309,-4.7309,-4.7309,-4.7309,-4.7309,-4.7309,-4.7309,-4.7309,-4.7309,-4.7309,-4.7309,-4.7309,-4.7309,-4.7309,-4.7309,-4.7309,-4.7309,-4.7309,-4.7309,-4.7309,-4.7309,-4.7249,-4.692,-4.6651,-4.5903,-4.5394,-4.4646,-4.4077,-4.3838,-4.3688,-4.3569,-4.3449,-4.3389,-4.3566,-4.3771,-4.4555,-4.5269,-4.6083,-4.6814,-4.7303,-4.7579,-4.7211,-4.7105,-3.7676,-3.7285,-3.709,-3.7012,-3.6973,-3.6797,-3.6562,-3.6387,-3.6367,-3.5879,-3.5156,-3.4785,-3.4355,-3.3769,-3.3535,-3.3418,-3.3418,-3.3418,-3.3418,-3.3418,-3.3418,-3.3418,-3.4047,-3.5976,-3.7501,-3.8077,-3.9659,-4.1157,-4.2323,-4.2811,-4.3037,-4.2936,-4.2409,-4.1932,-4.1354,-4.0802,-4.0275,-3.9798,-3.9697,-3.9697,-3.9697,-3.9697,-3.9697,-3.9697,-3.9697,-3.9697,-3.9697,-3.9697,-3.9697,-3.9697,-3.9697,-3.9697,-3.9697,-3.9697,-3.9697,-3.9697,-3.9697,-3.9697,-3.9697,-3.98,-4.0262,-4.1518,-4.2738,-4.4069,-4.5298,-4.655,-4.7342,-4.7668,-4.7549,-4.7309,-4.7309,-4.7309,-4.7309,-4.7309,-4.7309,-4.7309,-4.7309,-4.7309,-4.7309,-4.7309,-4.7309,-4.7309,-4.7309,-4.7309,-4.7309,-4.7309,-4.7309,-4.7309,-4.7309,-4.7309,-4.7309,-4.7309,-4.7309,-4.713,-4.6651,-4.6022,-4.5125,-4.4646,-4.4167,-4.3748,-4.3509,-4.3449,-4.3359,-4.3329,-4.3329,-4.3409,-4.3771,-4.4631,-4.5299,-4.5731,-4.6223,-4.6709,-4.6848,-4.6486,-4.6569,-3.7539,-3.707,-3.6719,-3.6562,-3.6504,-3.6191,-3.6074,-3.6035,-3.6035,-3.5644,-3.4902,-3.4746,-3.4297,-3.3672,-3.3457,-3.3418,-3.3418,-3.3418,-3.3418,-3.3418,-3.3902,-3.3948,-3.4634,-3.6695,-3.8625,-3.9272,-4.0526,-4.2079,-4.3148,-4.3288,-4.2986,-4.2886,-4.2434,-4.1882,-4.1354,-4.0802,-4.0249,-3.9772,-3.9697,-3.9697,-3.9697,-3.9697,-3.9697,-3.9697,-3.9697,-3.9697,-3.9697,-3.9697,-3.9697,-3.9697,-3.9697,-3.9697,-3.9697,-3.9697,-3.9697,-3.9697,-3.9697,-3.9697,-3.98,-3.9981,-4.0642,-4.1789,-4.3122,-4.4349,-4.566,-4.6638,-4.7135,-4.7339,-4.7309,-4.7309,-4.7309,-4.7309,-4.7309,-4.7309,-4.7309,-4.7309,-4.7309,-4.7309,-4.7309,-4.7309,-4.7309,-4.7309,-4.7309,-4.7309,-4.7309,-4.7309,-4.7309,-4.7309,-4.7309,-4.7279,-4.7279,-4.713,-4.707,-4.6352,-4.5813,-4.5514,-4.4586,-4.4137,-4.3688,-4.3539,-4.3329,-4.3329,-4.3329,-4.3329,-4.3329,-4.3457,-4.3929,-4.4914,-4.538,-4.5383,-4.5702,-4.6285,-4.6173,-4.5824,-4.6025,-3.6934,-3.623,-3.6152,-3.6133,-3.6113,-3.6035,-3.5976,-3.6035,-3.5976,-3.5742,-3.5234,-3.4863,-3.4434,-3.3945,-3.3555,-3.3418,-3.3418,-3.3418,-3.3418,-3.365,-3.4487,-3.4964,-3.5265,-3.7708,-3.9358,-4.0164,-4.1355,-4.2775,-4.3375,-4.3263,-4.3011,-4.2861,-4.2434,-4.1882,-4.1404,-4.0802,-4.0275,-3.9848,-3.9747,-3.9697,-3.9697,-3.9747,-3.9772,-3.9798,-3.9848,-3.9823,-3.9747,-3.9722,-3.9697,-3.9697,-3.9697,-3.9697,-3.9697,-3.9697,-3.9697,-3.9697,-3.9697,-3.9697,-3.9981,-4.0743,-4.1789,-4.3122,-4.4256,-4.5479,-4.655,-4.7106,-4.7309,-4.7309,-4.7309,-4.7309,-4.7309,-4.7309,-4.7309,-4.7309,-4.7309,-4.7309,-4.7309,-4.7309,-4.7309,-4.7309,-4.7309,-4.7309,-4.7309,-4.7309,-4.7309,-4.7309,-4.7309,-4.7309,-4.7309,-4.7249,-4.7189,-4.701,-4.677,-4.5783,-4.4796,-4.4646,-4.4167,-4.3778,-4.3479,-4.3479,-4.3329,-4.3329,-4.3329,-4.3329,-4.3566,-4.3849,-4.4445,-4.5119,-4.562,-4.5767,-4.5877,-4.5875,-4.5581,-4.532,-4.5101,-3.6484,-3.5723,-3.5703,-3.5547,-3.5351,-3.5332,-3.5332,-3.5371,-3.5566,-3.5449,-3.5078,-3.4785,-3.4473,-3.4043,-3.3613,-3.3418,-3.3418,-3.3418,-3.3418,-3.3776,-3.4943,-3.5575,-3.5417,-3.8297,-3.9255,-3.9882,-4.1213,-4.2585,-4.3288,-4.3112,-4.2961,-4.2861,-4.2434,-4.2007,-4.1605,-4.0927,-4.045,-4.0099,-3.9873,-3.9697,-3.9747,-3.9923,-4.0099,-4.0149,-4.0325,-4.04,-4.0149,-4.0124,-3.9973,-3.9772,-3.9697,-3.9697,-3.9697,-3.9697,-3.9697,-3.9697,-3.9697,-4.0083,-4.0541,-4.1419,-4.2084,-4.3409,-4.472,-4.557,-4.6344,-4.6814,-4.7309,-4.7309,-4.7309,-4.7309,-4.7309,-4.7309,-4.7309,-4.7309,-4.7309,-4.7309,-4.7309,-4.7309,-4.7309,-4.7309,-4.7309,-4.7309,-4.7309,-4.7309,-4.7309,-4.7309,-4.7309,-4.7279,-4.7249,-4.71,-4.692,-4.6441,-4.6052,-4.5274,-4.4347,-4.4077,-4.3928,-4.3539,-4.3329,-4.3329,-4.3329,-4.3329,-4.3329,-4.3329,-4.3615,-4.3897,-4.425,-4.4716,-4.5423,-4.5983,-4.5811,-4.5529,-4.5172,-4.4857,-4.4654,-3.6172,-3.5391,-3.5391,-3.5117,-3.4746,-3.4707,-3.4726,-3.4785,-3.5098,-3.5059,-3.4726,-3.459,-3.4375,-3.4023,-3.3672,-3.3418,-3.3418,-3.3418,-3.3418,-3.3882,-3.5313,-3.5891,-3.6382,-3.8,-3.9816,-3.9831,-4.0533,-4.1681,-4.2459,-4.2685,-4.2785,-4.271,-4.2384,-4.2233,-4.1957,-4.1204,-4.0777,-4.0375,-3.9998,-3.9722,-3.9823,-4.0099,-4.035,-4.035,-4.0777,-4.0676,-4.0275,-4.0199,-4.0023,-3.9798,-3.9697,-3.9697,-3.9697,-3.9697,-3.9697,-3.9697,-3.9878,-4.0642,-4.1319,-4.2447,-4.3218,-4.4069,-4.5115,-4.5689,-4.6077,-4.6844,-4.7309,-4.7309,-4.7309,-4.7309,-4.7309,-4.7309,-4.7309,-4.7309,-4.7309,-4.7309,-4.7309,-4.7309,-4.7309,-4.7309,-4.7309,-4.7279,-4.7219,-4.7309,-4.7309,-4.7309,-4.7309,-4.701,-4.695,-4.6681,-4.6381,-4.5723,-4.5185,-4.4616,-4.4018,-4.3688,-4.3599,-4.3449,-4.3329,-4.3329,-4.3329,-4.3329,-4.3329,-4.3329,-4.3329,-4.3585,-4.3945,-4.4246,-4.4747,-4.516,-4.5303,-4.5216,-4.4925,-4.4756,-4.4621,-3.6172,-3.5391,-3.5391,-3.5117,-3.4707,-3.4648,-3.4668,-3.4668,-3.4726,-3.4766,-3.4629,-3.4316,-3.4141,-3.3945,-3.3613,-3.3437,-3.3418,-3.3418,-3.3505,-3.3908,-3.5891,-3.6788,-3.6834,-3.9189,-4.003,-4.0071,-4.0389,-4.0953,-4.153,-4.1982,-4.2233,-4.2258,-4.2509,-4.261,-4.1982,-4.1329,-4.1003,-4.0501,-3.9973,-3.9697,-3.9722,-3.9823,-3.9898,-3.9898,-4.0023,-4.0099,-4.0049,-3.9998,-3.9848,-3.9747,-3.9697,-3.9697,-3.9697,-3.9697,-3.9697,-4.0083,-4.0642,-4.1518,-4.1985,-4.3409,-4.4656,-4.5207,-4.6255,-4.6901,-4.7019,-4.7019,-4.7309,-4.7309,-4.7309,-4.7309,-4.7309,-4.7309,-4.7309,-4.7309,-4.7309,-4.7309,-4.7309,-4.7309,-4.7309,-4.71,-4.704,-4.707,-4.707,-4.7189,-4.7309,-4.7309,-4.7219,-4.689,-4.6531,-4.6142,-4.5603,-4.4915,-4.4586,-4.4077,-4.3838,-4.3479,-4.3419,-4.3329,-4.3329,-4.3329,-4.3329,-4.3329,-4.3329,-4.3329,-4.3269,-4.3554,-4.4113,-4.4391,-4.4399,-4.4561,-4.4976,-4.4902,-4.4654,-4.4553,-4.4553,-3.5937,-3.5371,-3.5117,-3.4746,-3.4336,-3.4082,-3.3984,-3.4023,-3.4238,-3.4355,-3.4316,-3.418,-3.3945,-3.3711,-3.3476,-3.3418,-3.3418,-3.3398,-3.3743,-3.4534,-3.6232,-3.7404,-3.7915,-3.9355,-4.0425,-4.0124,-4.0074,-4.0099,-4.0626,-4.1229,-4.1681,-4.1731,-4.1932,-4.1907,-4.1706,-4.1153,-4.0802,-4.0425,-4.0023,-3.9722,-3.9772,-3.9973,-4.0149,-4.0149,-4.04,-4.035,-4.0174,-4.0149,-3.9973,-3.9798,-3.9697,-3.9697,-3.9697,-3.98,-3.9981,-4.0945,-4.1985,-4.2641,-4.293,-4.4442,-4.5508,-4.6344,-4.6931,-4.7222,-4.7309,-4.7309,-4.7309,-4.7309,-4.7309,-4.7309,-4.7309,-4.7309,-4.7309,-4.7309,-4.7309,-4.7309,-4.7309,-4.7279,-4.7219,-4.698,-4.6711,-4.6591,-4.6501,-4.6531,-4.6471,-4.6352,-4.6262,-4.6052,-4.5663,-4.5274,-4.4646,-4.3928,-4.3778,-4.3629,-4.3539,-4.3359,-4.3389,-4.3329,-4.3329,-4.3329,-4.3329,-4.3329,-4.324,-4.3193,-4.3061,-4.3563,-4.4308,-4.4354,-4.414,-4.445,-4.4823,-4.4688,-4.4553,-4.4553,-4.4553,-3.5684,-3.5351,-3.4902,-3.4453,-3.4043,-3.3613,-3.3379,-3.332,-3.3594,-3.375,-3.3789,-3.3809,-3.3691,-3.3476,-3.3418,-3.3418,-3.3418,-3.332,-3.4041,-3.5098,-3.6355,-3.7337,-3.8185,-3.948,-4.0074,-3.9697,-3.9772,-3.9798,-3.9998,-4.045,-4.0927,-4.1128,-4.1404,-4.1379,-4.1229,-4.0852,-4.0475,-4.0199,-3.9898,-3.9722,-3.9747,-4.0049,-4.0199,-4.0375,-4.0626,-4.0727,-4.04,-4.0275,-3.9998,-3.9798,-3.9697,-3.9697,-3.9697,-3.98,-3.9981,-4.1019,-4.2279,-4.3313,-4.3787,-4.4904,-4.6166,-4.6931,-4.7309,-4.7309,-4.7309,-4.7309,-4.7309,-4.7309,-4.7309,-4.7309,-4.7309,-4.7309,-4.7309,-4.7309,-4.7309,-4.7309,-4.7249,-4.71,-4.689,-4.6651,-4.6232,-4.5663,-4.5603,-4.5663,-4.5574,-4.5394,-4.5274,-4.5185,-4.4885,-4.4526,-4.4077,-4.3509,-4.3479,-4.3449,-4.3389,-4.3329,-4.3329,-4.3269,-4.324,-4.3269,-4.324,-4.3169,-4.3067,-4.3001,-4.2978,-4.3406,-4.4153,-4.405,-4.3977,-4.4404,-4.4688,-4.4621,-4.4553,-4.4553,-4.4553,-3.543,-3.5351,-3.4883,-3.4453,-3.4062,-3.3613,-3.3203,-3.2949,-3.293,-3.2969,-3.3066,-3.3262,-3.3437,-3.3437,-3.3418,-3.3398,-3.3379,-3.3008,-3.3861,-3.4819,-3.5808,-3.6969,-3.8179,-3.9241,-3.9798,-3.9722,-3.9697,-3.9697,-3.9722,-3.9873,-4.0249,-4.0526,-4.0877,-4.1178,-4.1078,-4.0601,-4.0199,-3.9948,-3.9722,-3.9697,-3.9697,-3.9798,-3.9823,-3.9823,-3.9823,-3.9798,-3.9772,-3.9823,-3.9823,-3.9697,-3.9697,-3.9697,-3.9697,-3.9981,-4.0262,-4.1119,-4.2738,-4.3787,-4.4442,-4.5779,-4.6931,-4.7222,-4.7309,-4.7309,-4.7309,-4.7309,-4.7309,-4.7309,-4.7309,-4.7309,-4.7309,-4.7309,-4.7309,-4.7309,-4.7279,-4.716,-4.701,-4.6681,-4.6471,-4.6262,-4.5753,-4.5125,-4.4676,-4.4706,-4.4825,-4.4676,-4.4706,-4.4616,-4.4317,-4.3988,-4.3718,-4.3389,-4.3389,-4.3359,-4.3359,-4.3269,-4.309,-4.294,-4.288,-4.297,-4.306,-4.3007,-4.294,-4.3131,-4.318,-4.3576,-4.3913,-4.3978,-4.4169,-4.4423,-4.4553,-4.4553,-4.4553,-4.4553,-4.4553,-3.5861,-3.4941,-3.4766,-3.4609,-3.4414,-3.4004,-3.3574,-3.3184,-3.291,-3.2793,-3.2812,-3.2969,-3.3184,-3.3359,-3.3398,-3.3262,-3.3047,-3.291,-3.4022,-3.5061,-3.5936,-3.7176,-3.8476,-3.9407,-3.9697,-3.9697,-3.9697,-3.9697,-3.9697,-3.9697,-3.9772,-4.0074,-4.0325,-4.0275,-4.0199,-4.0199,-3.9948,-3.9798,-3.9697,-3.9697,-3.9697,-3.9697,-3.9697,-3.9697,-3.9697,-3.9697,-3.9697,-3.9697,-3.9697,-3.9697,-3.9697,-3.98,-3.9981,-4.0465,-4.1093,-4.1736,-4.3515,-4.4542,-4.5421,-4.6579,-4.7222,-4.7309,-4.7309,-4.7309,-4.7309,-4.7309,-4.7309,-4.7309,-4.7309,-4.7309,-4.7309,-4.7309,-4.7309,-4.7309,-4.7219,-4.704,-4.6741,-4.6352,-4.5813,-4.5484,-4.5005,-4.4436,-4.4047,-4.3748,-4.3868,-4.3958,-4.4018,-4.4018,-4.3718,-4.3479,-4.321,-4.303,-4.297,-4.306,-4.306,-4.291,-4.2761,-4.2611,-4.2491,-4.2462,-4.2539,-4.2802,-4.2848,-4.3105,-4.3409,-4.3735,-4.3978,-4.4108,-4.4273,-4.4508,-4.4553,-4.4553,-4.4553,-4.4553,-4.4553,-3.5692,-3.4355,-3.459,-3.4687,-3.4648,-3.4258,-3.3828,-3.3398,-3.2969,-3.2793,-3.2793,-3.2812,-3.2949,-3.3164,-3.3066,-3.291,-3.2598,-3.2627,-3.3962,-3.507,-3.596,-3.7378,-3.881,-3.9697,-3.9697,-3.9697,-3.9697,-3.9697,-3.9697,-3.9697,-3.9722,-3.9747,-3.9697,-3.9772,-3.9772,-3.9697,-3.9697,-3.9697,-3.9697,-3.9697,-3.9697,-3.9697,-3.9697,-3.9697,-3.9697,-3.9697,-3.9697,-3.9697,-3.9697,-3.9903,-4.0083,-4.0262,-4.0743,-4.1366,-4.2463,-4.3405,-4.4344,-4.552,-4.6078,-4.6957,-4.7163,-4.7309,-4.7309,-4.7309,-4.7309,-4.7309,-4.7309,-4.7309,-4.7309,-4.7309,-4.7309,-4.7309,-4.7309,-4.7309,-4.692,-4.6711,-4.6292,-4.5873,-4.5214,-4.4646,-4.4197,-4.3838,-4.3718,-4.3449,-4.3449,-4.3569,-4.3658,-4.3539,-4.312,-4.291,-4.2761,-4.2581,-4.2462,-4.2581,-4.2671,-4.2372,-4.2073,-4.2043,-4.1893,-4.1743,-4.1821,-4.2169,-4.2598,-4.2931,-4.332,-4.3815,-4.4146,-4.434,-4.4461,-4.4587,-4.4553,-4.4553,-4.4553,-4.4553,-4.4553,-3.4777,-3.3535,-3.4297,-3.4629,-3.4531,-3.4238,-3.3828,-3.3398,-3.2988,-3.2773,-3.2734,-3.2734,-3.2734,-3.2734,-3.2519,-3.2324,-3.2148,-3.1936,-3.3135,-3.5219,-3.558,-3.712,-3.8736,-3.9697,-3.9697,-3.9697,-3.9697,-3.9697,-3.9697,-3.9697,-3.9697,-3.9697,-3.9697,-3.9697,-3.9697,-3.9697,-3.9697,-3.9697,-3.9697,-3.9697,-3.9697,-3.9697,-3.9697,-3.9697,-3.9697,-3.9697,-3.9697,-3.9697,-3.9697,-3.98,-4.0743,-4.1119,-4.1419,-4.2738,-4.3255,-4.2972,-4.4015,-4.4354,-4.395,-4.5989,-4.7043,-4.7279,-4.7309,-4.7309,-4.7309,-4.7309,-4.7219,-4.713,-4.7249,-4.7249,-4.7279,-4.7309,-4.7279,-4.7189,-4.683,-4.6322,-4.5933,-4.5364,-4.4706,-4.4077,-4.3658,-4.3329,-4.3329,-4.324,-4.315,-4.321,-4.3299,-4.306,-4.2551,-4.2342,-4.2222,-4.2132,-4.2013,-4.1983,-4.2013,-4.1654,-4.1414,-4.1384,-4.1235,-4.0965,-4.1009,-4.1382,-4.1945,-4.2639,-4.3299,-4.3854,-4.4223,-4.4587,-4.4553,-4.4553,-4.4553,-4.4553,-4.4553,-4.4553,-4.4553,-3.4805,-3.2637,-3.3203,-3.3437,-3.3496,-3.3906,-3.3828,-3.3398,-3.2988,-3.2637,-3.2422,-3.2383,-3.2383,-3.2305,-3.2207,-3.1973,-3.1838,-3.178,-3.3032,-3.5313,-3.5466,-3.718,-3.8921,-3.9697,-3.9697,-3.9697,-3.9697,-3.9697,-3.9697,-3.9697,-3.9697,-3.9697,-3.9697,-3.9697,-3.9697,-3.9697,-3.9697,-3.9697,-3.9697,-3.9697,-3.9697,-3.9697,-3.9697,-3.9697,-3.9697,-3.9697,-3.9697,-3.9697,-3.98,-3.9981,-4.1119,-4.169,-4.2155,-4.3476,-4.4407,-4.4105,-4.488,-4.5605,-4.5398,-4.636,-4.683,-4.71,-4.7309,-4.7309,-4.7309,-4.7309,-4.71,-4.686,-4.698,-4.692,-4.677,-4.71,-4.7189,-4.716,-4.68,-4.6142,-4.5603,-4.4885,-4.4227,-4.3629,-4.312,-4.2551,-4.2312,-4.2432,-4.2432,-4.2342,-4.2372,-4.2252,-4.1833,-4.1743,-4.1654,-4.1624,-4.1564,-4.1474,-4.1324,-4.0965,-4.0756,-4.0726,-4.0397,-3.9948,-4.0118,-4.0639,-4.1492,-4.2298,-4.3154,-4.3914,-4.4293,-4.4553,-4.4553,-4.4553,-4.4553,-4.4553,-4.4553,-4.4553,-4.4553,-3.4678,-3.2113,-3.2402,-3.2578,-3.2715,-3.3496,-3.3613,-3.3184,-3.2773,-3.2422,-3.2187,-3.2031,-3.1953,-3.1894,-3.1758,-3.2197,-3.1976,-3.2073,-3.357,-3.5727,-3.6054,-3.769,-3.9025,-3.9697,-3.9697,-3.9697,-3.9697,-3.9697,-3.9697,-3.9697,-3.9697,-3.9697,-3.9697,-3.9697,-3.9697,-3.9697,-3.9697,-3.9697,-3.9697,-3.9697,-3.9697,-3.9697,-3.9697,-3.9697,-3.9697,-3.9697,-3.9697,-3.98,-3.9981,-4.0567,-4.1419,-4.2447,-4.3286,-4.428,-4.5346,-4.5257,-4.4807,-4.5371,-4.5371,-4.543,-4.5933,-4.68,-4.71,-4.7279,-4.7219,-4.704,-4.677,-4.6591,-4.6591,-4.6352,-4.6172,-4.6591,-4.6621,-4.6561,-4.6112,-4.5424,-4.5065,-4.4377,-4.3688,-4.309,-4.2611,-4.1983,-4.1444,-4.1474,-4.1564,-4.1474,-4.1414,-4.1265,-4.1145,-4.1085,-4.0965,-4.0876,-4.0786,-4.0636,-4.0457,-4.0247,-4.0098,-4.0068,-3.9841,-3.9583,-3.9768,-4.0375,-4.1189,-4.2078,-4.2953,-4.3739,-4.4293,-4.4553,-4.4553,-4.4553,-4.4553,-4.4553,-4.4553,-4.4553,-4.4553,-3.4189,-3.1781,-3.1953,-3.2109,-3.2246,-3.2891,-3.3047,-3.2754,-3.2363,-3.2168,-3.2109,-3.1699,-3.1562,-3.1426,-3.1113,-3.1752,-3.2727,-3.2934,-3.4781,-3.6595,-3.7026,-3.8477,-3.9233,-3.9697,-3.9697,-3.9697,-3.9697,-3.9697,-3.9697,-3.9697,-3.9697,-3.9697,-3.9697,-3.9697,-3.9697,-3.9697,-3.9697,-3.9697,-3.9697,-3.9697,-3.9697,-3.9697,-3.9697,-3.9697,-3.9697,-3.9697,-3.98,-3.9878,-4.0567,-4.1518,-4.2738,-4.3975,-4.5035,-4.5931,-4.5739,-4.5244,-4.4146,-4.4377,-4.4616,-4.4796,-4.5185,-4.6202,-4.6741,-4.707,-4.71,-4.6711,-4.6322,-4.5992,-4.5813,-4.5544,-4.5364,-4.5484,-4.5574,-4.5304,-4.4945,-4.4586,-4.4377,-4.3808,-4.312,-4.2611,-4.2222,-4.1683,-4.1085,-4.0935,-4.0756,-4.0606,-4.0546,-4.0516,-4.0427,-4.0397,-4.0247,-3.9918,-3.9828,-3.9649,-3.9559,-3.9709,-3.9709,-3.9768,-3.9938,-3.9809,-3.999,-4.0447,-4.1593,-4.252,-4.2953,-4.3621,-4.4327,-4.4553,-4.4553,-4.4553,-4.4553,-4.4553,-4.4553,-4.4553,-4.4553,-3.4398,-3.2642,-3.1662,-3.1269,-3.1289,-3.1523,-3.1875,-3.2285,-3.2207,-3.2012,-3.1699,-3.1582,-3.1348,-3.1055,-3.0937,-3.1862,-3.2623,-3.3529,-3.5068,-3.6487,-3.7772,-3.8558,-3.9233,-3.9697,-3.9697,-3.9697,-3.9697,-3.9697,-3.9697,-3.9697,-3.9697,-3.9697,-3.9622,-3.9647,-3.9647,-3.9672,-3.9622,-3.9622,-3.9622,-3.9697,-3.9697,-3.9697,-3.9697,-3.9697,-3.9903,-3.9903,-3.9981,-4.0743,-4.1319,-4.1887,-4.3787,-4.5115,-4.5269,-4.5931,-4.6022,-4.5394,-4.4945,-4.4885,-4.4975,-4.5005,-4.5155,-4.5454,-4.5813,-4.6172,-4.6352,-4.6262,-4.5813,-4.5394,-4.5125,-4.4915,-4.4766,-4.4796,-4.4885,-4.4736,-4.4436,-4.4197,-4.3928,-4.3359,-4.2671,-4.2043,-4.1683,-4.0965,-4.0427,-4.0217,-4.0008,-3.9798,-3.9738,-3.9768,-3.9828,-3.9858,-3.9798,-3.9499,-3.9439,-3.9439,-3.9409,-3.9601,-3.9499,-3.9439,-3.995,-4.0378,-4.069,-4.1295,-4.2236,-4.3015,-4.3562,-4.4006,-4.444,-4.4553,-4.4553,-4.4553,-4.4553,-4.4553,-4.4553,-4.4553,-4.4553,-3.4936,-3.3077,-3.2207,-3.1441,-3.1015,-3.0898,-3.1211,-3.1621,-3.166,-3.1484,-3.1289,-3.125,-3.1133,-3.0898,-3.0819,-3.1673,-3.3544,-3.3965,-3.5387,-3.7589,-3.8146,-3.8896,-3.9465,-3.9697,-3.9697,-3.9697,-3.9697,-3.9697,-3.9697,-3.9697,-3.9697,-3.9672,-3.9546,-3.9396,-3.927,-3.9069,-3.8944,-3.9145,-3.9371,-3.9622,-3.9647,-3.9647,-3.9697,-3.9725,-3.993,-4.0313,-4.0516,-4.1538,-4.242,-4.293,-4.5024,-4.5689,-4.5871,-4.6307,-4.6022,-4.5454,-4.5244,-4.4975,-4.4855,-4.4796,-4.4885,-4.4915,-4.4915,-4.5125,-4.5304,-4.5304,-4.4975,-4.4646,-4.4496,-4.4377,-4.4287,-4.4227,-4.4347,-4.4436,-4.4197,-4.3928,-4.3449,-4.291,-4.2252,-4.1534,-4.0846,-4.0098,-3.9649,-3.9499,-3.9439,-3.9499,-3.9529,-3.9559,-3.9589,-3.9589,-3.9589,-3.9469,-3.9439,-3.9439,-3.9409,-3.9595,-3.9849,-4.013,-4.0758,-4.1229,-4.1462,-4.2045,-4.2986,-4.3621,-4.4179,-4.444,-4.4553,-4.4553,-4.4553,-4.4553,-4.4553,-4.4553,-4.4553,-4.4553,-4.4553,-3.5813,-3.3304,-3.3077,-3.1977,-3.0995,-3.0898,-3.0879,-3.084,-3.0879,-3.0879,-3.0898,-3.0859,-3.082,-3.078,-3.0695,-3.201,-3.3617,-3.4482,-3.5981,-3.8792,-3.8963,-3.9418,-3.9569,-3.9697,-3.9697,-3.9697,-3.9697,-3.9697,-3.9697,-3.9672,-3.9647,-3.9622,-3.9195,-3.8944,-3.8768,-3.8467,-3.8341,-3.8442,-3.8919,-3.9295,-3.9371,-3.9496,-3.9572,-3.9651,-4.0411,-4.1281,-4.1674,-4.2644,-4.4023,-4.4761,-4.5573,-4.6108,-4.6458,-4.6715,-4.6142,-4.5813,-4.5693,-4.5274,-4.4945,-4.4736,-4.4436,-4.4347,-4.4257,-4.4287,-4.4407,-4.4676,-4.4466,-4.4107,-4.3958,-4.3868,-4.3778,-4.3748,-4.3838,-4.3868,-4.3718,-4.3449,-4.306,-4.2342,-4.1414,-4.0786,-4.0217,-3.9559,-3.9529,-3.9439,-3.9439,-3.9439,-3.9439,-3.9439,-3.9439,-3.9439,-3.9439,-3.9439,-3.9439,-3.9409,-3.9625,-3.9879,-4.0378,-4.0894,-4.1496,-4.1981,-4.2205,-4.2831,-4.368,-4.4064,-4.444,-4.4497,-4.4553,-4.4553,-4.4553,-4.4553,-4.4553,-4.4553,-4.4553,-4.4451,-4.4282,-3.6487,-3.4515,-3.2322,-3.1228,-3.0879,-3.0898,-3.0664,-3.0371,-3.0371,-3.0547,-3.0762,-3.0527,-3.0486,-3.0522,-3.0984,-3.2274,-3.3777,-3.5063,-3.6795,-3.8289,-3.9044,-3.9421,-3.9597,-3.9622,-3.9647,-3.9697,-3.9697,-3.9572,-3.9521,-3.9521,-3.9421,-3.9094,-3.8768,-3.8567,-3.8216,-3.7914,-3.7864,-3.7839,-3.8115,-3.8417,-3.8417,-3.8417,-3.8417,-3.8815,-3.9602,-4.0526,-4.114,-4.2453,-4.3239,-4.3949,-4.5375,-4.6129,-4.6531,-4.683,-4.6681,-4.6292,-4.6411,-4.5992,-4.5364,-4.4915,-4.4586,-4.3898,-4.3658,-4.3599,-4.3718,-4.4077,-4.4107,-4.3718,-4.3479,-4.3389,-4.3329,-4.3329,-4.3299,-4.3299,-4.324,-4.294,-4.2641,-4.1654,-4.0636,-4.0098,-3.9589,-3.9469,-3.9439,-3.9439,-3.9439,-3.9439,-3.9439,-3.9439,-3.9439,-3.9439,-3.9439,-3.9439,-3.9439,-3.9481,-3.9666,-4.0209,-4.0831,-4.1401,-4.2012,-4.2453,-4.2921,-4.3562,-4.4121,-4.4327,-4.4553,-4.4553,-4.4553,-4.4553,-4.4553,-4.4553,-4.4384,-4.4316,-4.4147,-4.4012,-4.3809,-3.7263,-3.5068,-3.2113,-3.0762,-3.0605,-3.0586,-3.0332,-2.998,-2.9922,-3.0379,-3.101,-3.0472,-3.0241,-3.0589,-3.1283,-3.2656,-3.4119,-3.5145,-3.6618,-3.7916,-3.8793,-3.9245,-3.9421,-3.9471,-3.9295,-3.9295,-3.9019,-3.8894,-3.9019,-3.8894,-3.8668,-3.8467,-3.8316,-3.8015,-3.7613,-3.7462,-3.7337,-3.7262,-3.7337,-3.7337,-3.7437,-3.7663,-3.8333,-3.8846,-3.9754,-4.0575,-4.1952,-4.3197,-4.392,-4.432,-4.5327,-4.5913,-4.6292,-4.6591,-4.68,-4.686,-4.692,-4.686,-4.5992,-4.5334,-4.4796,-4.4018,-4.3389,-4.3449,-4.3419,-4.3748,-4.3748,-4.3419,-4.3419,-4.3329,-4.3329,-4.3329,-4.303,-4.291,-4.2701,-4.2432,-4.1803,-4.0935,-4.0217,-3.9738,-3.9439,-3.9439,-3.9439,-3.9439,-3.9439,-3.9439,-3.9439,-3.9379,-3.9379,-3.926,-3.929,-3.9331,-3.9283,-3.9688,-4.017,-4.0764,-4.1369,-4.2011,-4.2537,-4.2888,-4.3331,-4.4011,-4.4553,-4.4485,-4.4485,-4.4553,-4.4553,-4.435,-4.4519,-4.4553,-4.4282,-4.3978,-4.3775,-4.3525,-4.3192,-3.7733,-3.4957,-3.193,-3.0527,-3.0215,-3.0137,-2.9883,-2.9531,-2.9492,-3.0189,-3.1091,-3.0128,-3.0587,-3.1246,-3.1762,-3.3173,-3.4427,-3.5349,-3.6702,-3.7742,-3.8492,-3.8944,-3.912,-3.9145,-3.8969,-3.8668,-3.8391,-3.8241,-3.8216,-3.8191,-3.8165,-3.7864,-3.7513,-3.7161,-3.696,-3.6709,-3.6533,-3.6584,-3.6609,-3.6483,-3.681,-3.7333,-3.8261,-3.9465,-4.0849,-4.1999,-4.3142,-4.4112,-4.481,-4.4982,-4.4982,-4.5514,-4.5873,-4.6142,-4.6561,-4.6741,-4.692,-4.6621,-4.6082,-4.5514,-4.4855,-4.4197,-4.3658,-4.3359,-4.3329,-4.321,-4.321,-4.318,-4.318,-4.315,-4.315,-4.297,-4.2611,-4.2312,-4.2043,-4.1803,-4.1025,-4.0337,-3.9888,-3.9439,-3.9439,-3.9439,-3.9439,-3.9439,-3.9439,-3.9439,-3.9409,-3.9349,-3.923,-3.9062,-3.9013,-3.9073,-3.9031,-3.9657,-4.0467,-4.1146,-4.1753,-4.257,-4.3046,-4.3327,-4.3639,-4.3978,-4.4215,-4.4248,-4.4282,-4.4181,-4.4045,-4.3809,-4.4045,-4.4181,-4.3741,-4.3267,-4.3098,-4.2833,-4.2415,-3.6892,-3.4314,-3.1157,-2.9961,-3.0211,-2.9824,-2.9434,-2.9082,-2.9133,-2.9587,-3.0516,-3.0643,-3.1063,-3.2767,-3.3522,-3.4379,-3.4745,-3.5624,-3.6725,-3.7939,-3.8115,-3.8542,-3.8818,-3.8743,-3.8567,-3.8216,-3.7914,-3.799,-3.7688,-3.7789,-3.7739,-3.7337,-3.7312,-3.696,-3.6558,-3.6358,-3.6358,-3.6358,-3.6358,-3.6358,-3.6358,-3.6893,-3.7288,-3.845,-3.9625,-4.074,-4.1961,-4.3064,-4.3528,-4.3838,-4.4167,-4.4676,-4.5065,-4.5364,-4.5753,-4.6202,-4.6411,-4.6202,-4.5693,-4.5334,-4.4706,-4.3928,-4.3419,-4.321,-4.303,-4.2701,-4.2641,-4.2521,-4.2491,-4.2491,-4.2402,-4.2073,-4.1743,-4.1474,-4.1205,-4.0935,-4.0427,-3.9978,-3.9559,-3.9439,-3.9439,-3.9439,-3.9439,-3.9439,-3.9439,-3.9439,-3.9439,-3.932,-3.8811,-3.8772,-3.8801,-3.8804,-3.8898,-3.9616,-4.0479,-4.1339,-4.2005,-4.2874,-4.3389,-4.3351,-4.3403,-4.3606,-4.3775,-4.3673,-4.3538,-4.3403,-4.3267,-4.3234,-4.3031,-4.3064,-4.2794,-4.2455,-4.232,-4.2192,-4.1866]}]]